Time,TemperatureF,DewpointF,PressureIn,WindDirection,WindDirectionDegrees,WindSpeedMPH,WindSpeedGustMPH,Humidity,HourlyPrecipIn,Conditions,Clouds,dailyrainin,SolarRadiationWatts/m^2,SoftwareType,DateUTC
2012-12-02 00:00:00,60.7,58.7,30.24,NE,52,1.0,3.0,93,0.00,,---,0.00,0.00,VWS V14.01,2012-12-02 05:00:00,
2012-12-02 00:01:00,60.7,58.7,30.24,ENE,60,3.0,3.0,93,0.00,,---,0.00,0.00,VWS V14.01,2012-12-02 05:01:00,
2012-12-02 00:02:00,60.7,58.7,30.24,NNE,33,3.0,3.0,93,0.00,,---,0.00,0.00,VWS V14.01,2012-12-02 05:02:00,
2012-12-02 00:03:00,60.7,58.7,30.24,ENE,62,3.0,3.0,93,0.00,,---,0.00,0.00,VWS V14.01,2012-12-02 05:03:00,
2012-12-02 00:04:00,60.7,58.7,30.24,ENE,68,2.0,3.0,93,0.00,,---,0.00,0.00,VWS V14.01,2012-12-02 05:04:00,
2012-12-02 00:05:00,60.8,58.8,30.24,NE,49,2.0,4.0,93,0.00,,---,0.00,0.00,VWS V14.01,2012-12-02 05:05:00,
2012-12-02 00:06:00,60.8,58.8,30.24,ENE,57,2.0,4.0,93,0.00,,---,0.00,0.00,VWS V14.01,2012-12-02 05:06:00,
2012-12-02 00:07:00,60.8,58.8,30.24,ENE,77,3.0,4.0,93,0.00,,---,0.00,0.00,VWS V14.01,2012-12-02 05:07:00,
2012-12-02 00:08:00,60.8,58.8,30.24,ENE,62,0.0,4.0,93,0.00,,---,0.00,0.00,VWS V14.01,2012-12-02 05:08:00,
2012-12-02 00:09:00,60.8,58.8,30.24,ENE,66,2.0,4.0,93,0.00,,---,0.00,0.00,VWS V14.01,2012-12-02 05:09:00,
2012-12-02 00:10:00,60.8,58.8,30.24,ENE,57,0.0,4.0,93,0.00,,---,0.00,0.00,VWS V14.01,2012-12-02 05:10:00,
2012-12-02 00:11:00,60.8,58.8,30.24,ENE,57,1.0,4.0,93,0.00,,---,0.00,0.00,VWS V14.01,2012-12-02 05:11:00,
2012-12-02 00:12:00,60.8,58.8,30.24,ENE,57,2.0,4.0,93,0.00,,---,0.00,0.00,VWS V14.01,2012-12-02 05:12:00,
2012-12-02 00:13:00,60.8,58.8,30.24,NE,52,1.0,4.0,93,0.00,,---,0.00,0.00,VWS V14.01,2012-12-02 05:13:00,
2012-12-02 00:14:00,60.9,58.9,30.24,NE,52,0.0,4.0,93,0.00,,---,0.00,0.00,VWS V14.01,2012-12-02 05:14:00,
2012-12-02 00:15:00,60.9,58.9,30.24,NE,52,0.0,4.0,93,0.00,,---,0.00,0.00,VWS V14.01,2012-12-02 05:15:00,
2012-12-02 00:16:00,60.9,58.9,30.24,ENE,70,1.0,4.0,93,0.00,,---,0.00,0.00,VWS V14.01,2012-12-02 05:16:00,
2012-12-02 00:17:00,60.9,58.9,30.24,ENE,67,1.0,4.0,93,0.00,,---,0.00,0.00,VWS V14.01,2012-12-02 05:17:00,
2012-12-02 00:18:00,60.9,58.9,30.24,ENE,67,0.0,4.0,93,0.00,,---,0.00,0.00,VWS V14.01,2012-12-02 05:18:00,
2012-12-02 00:19:00,60.8,58.8,30.24,ENE,67,0.0,4.0,93,0.00,,---,0.00,0.00,VWS V14.01,2012-12-02 05:19:00,
2012-12-02 00:20:00,60.9,58.9,30.24,ENE,67,0.0,4.0,93,0.00,,---,0.00,0.00,VWS V14.01,2012-12-02 05:20:00,
2012-12-02 00:21:00,60.8,58.8,30.23,ENE,60,2.0,4.0,93,0.00,,---,0.00,0.00,VWS V14.01,2012-12-02 05:21:00,
2012-12-02 00:22:00,60.9,59.2,30.24,NE,50,2.0,4.0,94,0.00,,---,0.00,0.00,VWS V14.01,2012-12-02 05:22:00,
2012-12-02 00:23:00,60.9,58.9,30.24,NE,50,1.0,4.0,93,0.00,,---,0.00,0.00,VWS V14.01,2012-12-02 05:23:00,
2012-12-02 00:24:00,60.9,59.2,30.24,NE,50,2.0,4.0,94,0.00,,---,0.00,0.00,VWS V14.01,2012-12-02 05:24:00,
2012-12-02 00:25:00,60.9,58.9,30.24,NE,50,0.0,4.0,93,0.00,,---,0.00,0.00,VWS V14.01,2012-12-02 05:25:00,
2012-12-02 00:26:00,60.9,58.9,30.24,NE,50,1.0,4.0,93,0.00,,---,0.00,0.00,VWS V14.01,2012-12-02 05:26:00,
2012-12-02 00:27:00,60.9,59.2,30.23,NE,50,0.0,4.0,94,0.00,,---,0.00,0.00,VWS V14.01,2012-12-02 05:27:00,
2012-12-02 00:28:00,60.8,59.1,30.24,ENE,60,2.0,4.0,94,0.00,,---,0.00,0.00,VWS V14.01,2012-12-02 05:28:00,
2012-12-02 00:29:00,60.9,59.2,30.24,ENE,64,1.0,4.0,94,0.00,,---,0.00,0.00,VWS V14.01,2012-12-02 05:29:00,
2012-12-02 00:30:00,60.9,59.2,30.24,ENE,58,0.0,4.0,94,0.00,,---,0.00,0.00,VWS V14.01,2012-12-02 05:30:00,
2012-12-02 00:31:00,60.9,59.2,30.24,ENE,68,1.0,4.0,94,0.00,,---,0.00,0.00,VWS V14.01,2012-12-02 05:31:00,
2012-12-02 00:32:00,60.9,59.2,30.24,NE,48,2.0,4.0,94,0.00,,---,0.00,0.00,VWS V14.01,2012-12-02 05:32:00,
2012-12-02 00:33:00,60.9,59.2,30.24,East,82,2.0,4.0,94,0.00,,---,0.00,0.00,VWS V14.01,2012-12-02 05:33:00,
2012-12-02 00:34:00,60.9,59.2,30.24,ENE,63,1.0,4.0,94,0.00,,---,0.00,0.00,VWS V14.01,2012-12-02 05:34:00,
2012-12-02 00:35:00,60.9,59.2,30.24,ENE,58,1.0,4.0,94,0.00,,---,0.00,0.00,VWS V14.01,2012-12-02 05:35:00,
2012-12-02 00:36:00,60.9,59.2,30.24,ENE,58,1.0,4.0,94,0.00,,---,0.00,0.00,VWS V14.01,2012-12-02 05:36:00,
2012-12-02 00:37:00,60.9,59.2,30.24,ENE,58,0.0,4.0,94,0.00,,---,0.00,0.00,VWS V14.01,2012-12-02 05:37:00,
2012-12-02 00:38:00,60.9,59.2,30.24,NE,51,1.0,4.0,94,0.00,,---,0.00,0.00,VWS V14.01,2012-12-02 05:38:00,
2012-12-02 00:39:00,60.9,59.2,30.24,ENE,77,0.0,4.0,94,0.00,,---,0.00,0.00,VWS V14.01,2012-12-02 05:39:00,
2012-12-02 00:40:00,60.9,59.2,30.24,NE,56,3.0,4.0,94,0.00,,---,0.00,0.00,VWS V14.01,2012-12-02 05:40:00,
2012-12-02 00:41:00,60.9,59.2,30.24,NE,56,0.0,4.0,94,0.00,,---,0.00,0.00,VWS V14.01,2012-12-02 05:41:00,
2012-12-02 00:42:00,60.9,59.2,30.24,NE,56,0.0,4.0,94,0.00,,---,0.00,0.00,VWS V14.01,2012-12-02 05:42:00,
2012-12-02 00:43:00,60.9,59.2,30.24,ENE,58,1.0,4.0,94,0.00,,---,0.00,0.00,VWS V14.01,2012-12-02 05:43:00,
2012-12-02 00:44:00,60.9,59.2,30.24,ENE,58,1.0,4.0,94,0.00,,---,0.00,0.00,VWS V14.01,2012-12-02 05:44:00,
2012-12-02 00:45:00,60.9,59.2,30.24,ENE,58,1.0,4.0,94,0.00,,---,0.00,0.00,VWS V14.01,2012-12-02 05:45:00,
2012-12-02 00:46:00,60.9,59.2,30.24,ENE,58,1.0,4.0,94,0.00,,---,0.00,0.00,VWS V14.01,2012-12-02 05:46:00,
2012-12-02 00:47:00,61.0,59.3,30.24,ENE,59,1.0,4.0,94,0.00,,---,0.00,0.00,VWS V14.01,2012-12-02 05:47:00,
2012-12-02 00:48:00,61.0,59.3,30.24,ENE,59,1.0,4.0,94,0.00,,---,0.00,0.00,VWS V14.01,2012-12-02 05:48:00,
2012-12-02 00:49:00,61.0,59.3,30.24,ENE,59,1.0,4.0,94,0.00,,---,0.00,0.00,VWS V14.01,2012-12-02 05:49:00,
2012-12-02 00:50:00,61.0,59.3,30.24,ENE,59,0.0,4.0,94,0.00,,---,0.00,0.00,VWS V14.01,2012-12-02 05:50:00,
2012-12-02 00:51:00,61.0,59.3,30.24,ENE,59,0.0,4.0,94,0.00,,---,0.00,0.00,VWS V14.01,2012-12-02 05:51:00,
2012-12-02 00:52:00,61.0,59.3,30.24,ENE,59,0.0,4.0,94,0.00,,---,0.00,0.00,VWS V14.01,2012-12-02 05:52:00,
2012-12-02 00:53:00,60.9,59.2,30.24,ENE,59,1.0,4.0,94,0.00,,---,0.00,0.00,VWS V14.01,2012-12-02 05:53:00,
2012-12-02 00:54:00,60.9,59.2,30.24,ENE,60,3.0,4.0,94,0.00,,---,0.00,0.00,VWS V14.01,2012-12-02 05:54:00,
2012-12-02 00:55:00,60.8,59.1,30.24,ENE,62,1.0,4.0,94,0.00,,---,0.00,0.00,VWS V14.01,2012-12-02 05:55:00,
2012-12-02 00:56:00,60.9,59.2,30.24,NE,36,2.0,4.0,94,0.00,,---,0.00,0.00,VWS V14.01,2012-12-02 05:56:00,
2012-12-02 00:57:00,60.9,59.2,30.24,NE,37,0.0,4.0,94,0.00,,---,0.00,0.00,VWS V14.01,2012-12-02 05:57:00,
2012-12-02 00:58:00,60.9,59.2,30.24,NE,53,0.0,4.0,94,0.00,,---,0.00,0.00,VWS V14.01,2012-12-02 05:58:00,
2012-12-02 00:59:00,60.9,59.2,30.24,NE,53,0.0,4.0,94,0.00,,---,0.00,0.00,VWS V14.01,2012-12-02 05:59:00,
2012-12-02 01:00:00,60.9,59.2,30.24,ENE,59,3.0,4.0,94,0.00,,---,0.00,0.00,VWS V14.01,2012-12-02 06:00:00,
2012-12-02 01:01:00,60.9,59.2,30.24,ENE,78,1.0,3.0,94,0.00,,---,0.00,0.00,VWS V14.01,2012-12-02 06:01:00,
2012-12-02 01:02:00,60.9,59.2,30.24,NE,51,1.0,3.0,94,0.00,,---,0.00,0.00,VWS V14.01,2012-12-02 06:02:00,
2012-12-02 01:03:00,60.9,59.2,30.24,ENE,58,0.0,3.0,94,0.00,,---,0.00,0.00,VWS V14.01,2012-12-02 06:03:00,
2012-12-02 01:04:00,60.9,59.2,30.24,ENE,58,0.0,3.0,94,0.00,,---,0.00,0.00,VWS V14.01,2012-12-02 06:04:00,
2012-12-02 01:05:00,60.9,59.2,30.24,ENE,58,0.0,3.0,94,0.00,,---,0.00,0.00,VWS V14.01,2012-12-02 06:05:00,
2012-12-02 01:06:00,60.9,59.2,30.24,ENE,58,0.0,3.0,94,0.00,,---,0.00,0.00,VWS V14.01,2012-12-02 06:06:00,
2012-12-02 01:07:00,60.9,59.2,30.24,ENE,58,0.0,3.0,94,0.00,,---,0.00,0.00,VWS V14.01,2012-12-02 06:07:00,
2012-12-02 01:08:00,60.9,59.2,30.24,ENE,58,0.0,3.0,94,0.00,,---,0.00,0.00,VWS V14.01,2012-12-02 06:08:00,
2012-12-02 01:09:00,60.9,59.2,30.24,ENE,58,1.0,3.0,94,0.00,,---,0.00,0.00,VWS V14.01,2012-12-02 06:09:00,
2012-12-02 01:10:00,60.9,59.2,30.24,ENE,58,2.0,3.0,94,0.00,,---,0.00,0.00,VWS V14.01,2012-12-02 06:10:00,
2012-12-02 01:11:00,60.9,59.2,30.24,East,82,1.0,3.0,94,0.00,,---,0.00,0.00,VWS V14.01,2012-12-02 06:11:00,
2012-12-02 01:12:00,60.9,59.2,30.24,East,82,2.0,3.0,94,0.00,,---,0.00,0.00,VWS V14.01,2012-12-02 06:12:00,
2012-12-02 01:13:00,60.9,59.2,30.24,NE,56,2.0,3.0,94,0.00,,---,0.00,0.00,VWS V14.01,2012-12-02 06:13:00,
2012-12-02 01:14:00,60.9,59.2,30.24,NE,56,0.0,3.0,94,0.00,,---,0.00,0.00,VWS V14.01,2012-12-02 06:14:00,
2012-12-02 01:15:00,60.9,59.2,30.24,ENE,68,3.0,3.0,94,0.00,,---,0.00,0.00,VWS V14.01,2012-12-02 06:15:00,
2012-12-02 01:16:00,60.9,59.2,30.23,NE,54,1.0,3.0,94,0.00,,---,0.00,0.00,VWS V14.01,2012-12-02 06:16:00,
2012-12-02 01:17:00,60.9,59.2,30.24,NE,54,0.0,3.0,94,0.00,,---,0.00,0.00,VWS V14.01,2012-12-02 06:17:00,
2012-12-02 01:18:00,60.9,59.2,30.23,ENE,60,0.0,3.0,94,0.00,,---,0.00,0.00,VWS V14.01,2012-12-02 06:18:00,
2012-12-02 01:19:00,60.9,59.2,30.23,ENE,60,2.0,4.0,94,0.00,,---,0.00,0.00,VWS V14.01,2012-12-02 06:19:00,
2012-12-02 01:20:00,60.9,59.2,30.23,ENE,74,1.0,4.0,94,0.00,,---,0.00,0.00,VWS V14.01,2012-12-02 06:20:00,
2012-12-02 01:21:00,60.9,59.2,30.23,NE,35,1.0,4.0,94,0.00,,---,0.00,0.00,VWS V14.01,2012-12-02 06:21:00,
2012-12-02 01:22:00,60.9,59.2,30.23,NE,45,2.0,4.0,94,0.00,,---,0.00,0.00,VWS V14.01,2012-12-02 06:22:00,
2012-12-02 01:23:00,60.9,59.2,30.23,NE,53,3.0,4.0,94,0.00,,---,0.00,0.00,VWS V14.01,2012-12-02 06:23:00,
2012-12-02 01:24:00,60.9,59.2,30.23,NE,53,0.0,4.0,94,0.00,,---,0.00,0.00,VWS V14.01,2012-12-02 06:24:00,
2012-12-02 01:25:00,60.9,59.5,30.23,NE,53,1.0,4.0,95,0.00,,---,0.00,0.00,VWS V14.01,2012-12-02 06:25:00,
2012-12-02 01:26:00,60.9,59.5,30.23,ENE,62,2.0,4.0,95,0.00,,---,0.00,0.00,VWS V14.01,2012-12-02 06:26:00,
2012-12-02 01:27:00,60.9,59.5,30.23,NE,35,0.0,4.0,95,0.00,,---,0.00,0.00,VWS V14.01,2012-12-02 06:27:00,
2012-12-02 01:28:00,60.9,59.5,30.23,NE,45,1.0,4.0,95,0.00,,---,0.00,0.00,VWS V14.01,2012-12-02 06:28:00,
2012-12-02 01:29:00,60.9,59.5,30.23,ENE,66,1.0,4.0,95,0.00,,---,0.00,0.00,VWS V14.01,2012-12-02 06:29:00,
2012-12-02 01:30:00,60.9,59.5,30.23,ENE,70,3.0,4.0,95,0.00,,---,0.00,0.00,VWS V14.01,2012-12-02 06:30:00,
2012-12-02 01:31:00,60.9,59.5,30.23,ENE,62,1.0,4.0,95,0.00,,---,0.00,0.00,VWS V14.01,2012-12-02 06:31:00,
2012-12-02 01:32:00,61.0,59.6,30.23,ENE,62,2.0,4.0,95,0.00,,---,0.00,0.00,VWS V14.01,2012-12-02 06:32:00,
2012-12-02 01:33:00,61.0,59.6,30.23,NE,56,1.0,4.0,95,0.00,,---,0.00,0.00,VWS V14.01,2012-12-02 06:33:00,
2012-12-02 01:34:00,61.0,59.6,30.23,NE,46,2.0,4.0,95,0.00,,---,0.00,0.00,VWS V14.01,2012-12-02 06:34:00,
2012-12-02 01:35:00,61.0,59.6,30.23,ENE,77,2.0,4.0,95,0.00,,---,0.00,0.00,VWS V14.01,2012-12-02 06:35:00,
2012-12-02 01:36:00,61.0,59.6,30.23,NE,52,0.0,4.0,95,0.00,,---,0.00,0.00,VWS V14.01,2012-12-02 06:36:00,
2012-12-02 01:37:00,61.1,59.7,30.23,NE,52,0.0,4.0,95,0.00,,---,0.00,0.00,VWS V14.01,2012-12-02 06:37:00,
2012-12-02 01:38:00,61.1,59.7,30.23,NNE,20,0.0,4.0,95,0.00,,---,0.00,0.00,VWS V14.01,2012-12-02 06:38:00,
2012-12-02 01:39:00,61.1,59.7,30.23,NNE,20,0.0,4.0,95,0.00,,---,0.00,0.00,VWS V14.01,2012-12-02 06:39:00,
2012-12-02 01:40:00,61.1,59.7,30.23,NE,54,3.0,4.0,95,0.00,,---,0.00,0.00,VWS V14.01,2012-12-02 06:40:00,
2012-12-02 01:41:00,61.1,59.7,30.23,ENE,61,1.0,5.0,95,0.00,,---,0.00,0.00,VWS V14.01,2012-12-02 06:41:00,
2012-12-02 01:42:00,61.2,59.8,30.23,ENE,62,0.0,5.0,95,0.00,,---,0.00,0.00,VWS V14.01,2012-12-02 06:42:00,
2012-12-02 01:43:00,61.2,59.8,30.23,NE,37,0.0,5.0,95,0.00,,---,0.00,0.00,VWS V14.01,2012-12-02 06:43:00,
2012-12-02 01:44:00,61.3,59.9,30.23,NNE,26,1.0,5.0,95,0.00,,---,0.00,0.00,VWS V14.01,2012-12-02 06:44:00,
2012-12-02 01:45:00,61.3,59.9,30.23,NNE,28,0.0,5.0,95,0.00,,---,0.00,0.00,VWS V14.01,2012-12-02 06:45:00,
2012-12-02 01:46:00,61.3,59.9,30.23,NNE,28,0.0,5.0,95,0.00,,---,0.00,0.00,VWS V14.01,2012-12-02 06:46:00,
2012-12-02 01:47:00,61.3,59.9,30.23,NNE,28,0.0,5.0,95,0.00,,---,0.00,0.00,VWS V14.01,2012-12-02 06:47:00,
2012-12-02 01:48:00,61.3,59.9,30.23,NNE,28,1.0,5.0,95,0.00,,---,0.00,0.00,VWS V14.01,2012-12-02 06:48:00,
2012-12-02 01:49:00,61.4,60.0,30.23,NNE,28,0.0,5.0,95,0.00,,---,0.00,0.00,VWS V14.01,2012-12-02 06:49:00,
2012-12-02 01:50:00,61.4,60.0,30.23,NNE,29,0.0,5.0,95,0.00,,---,0.00,0.00,VWS V14.01,2012-12-02 06:50:00,
2012-12-02 01:51:00,61.4,60.0,30.23,ENE,74,3.0,5.0,95,0.00,,---,0.00,0.00,VWS V14.01,2012-12-02 06:51:00,
2012-12-02 01:52:00,61.4,60.0,30.23,ENE,57,1.0,5.0,95,0.00,,---,0.00,0.00,VWS V14.01,2012-12-02 06:52:00,
2012-12-02 01:53:00,61.5,60.1,30.23,NE,49,4.0,5.0,95,0.00,,---,0.00,0.00,VWS V14.01,2012-12-02 06:53:00,
2012-12-02 01:54:00,61.5,60.1,30.23,ENE,60,0.0,5.0,95,0.00,,---,0.00,0.00,VWS V14.01,2012-12-02 06:54:00,
2012-12-02 01:55:00,61.5,60.1,30.23,NNE,31,2.0,5.0,95,0.00,,---,0.00,0.00,VWS V14.01,2012-12-02 06:55:00,
2012-12-02 01:56:00,61.6,60.2,30.23,ENE,72,0.0,5.0,95,0.00,,---,0.00,0.00,VWS V14.01,2012-12-02 06:56:00,
2012-12-02 01:57:00,61.6,60.2,30.23,ENE,72,0.0,5.0,95,0.00,,---,0.00,0.00,VWS V14.01,2012-12-02 06:57:00,
2012-12-02 01:58:00,61.6,60.2,30.23,NE,53,1.0,5.0,95,0.00,,---,0.00,0.00,VWS V14.01,2012-12-02 06:58:00,
2012-12-02 01:59:00,61.6,60.2,30.23,NE,48,1.0,5.0,95,0.00,,---,0.00,0.00,VWS V14.01,2012-12-02 06:59:00,
2012-12-02 02:00:00,61.6,60.2,30.23,NE,49,1.0,5.0,95,0.00,,---,0.00,0.00,VWS V14.01,2012-12-02 07:00:00,
2012-12-02 02:01:00,61.6,60.2,30.23,NE,49,0.0,1.0,95,0.00,,---,0.00,0.00,VWS V14.01,2012-12-02 07:01:00,
2012-12-02 02:02:00,61.6,60.2,30.23,NE,49,0.0,2.0,95,0.00,,---,0.00,0.00,VWS V14.01,2012-12-02 07:02:00,
2012-12-02 02:03:00,61.7,60.3,30.23,ENE,64,2.0,2.0,95,0.00,,---,0.00,0.00,VWS V14.01,2012-12-02 07:03:00,
2012-12-02 02:04:00,61.6,60.2,30.23,East,93,4.0,4.0,95,0.00,,---,0.00,0.00,VWS V14.01,2012-12-02 07:04:00,
2012-12-02 02:05:00,61.6,60.2,30.23,ENE,63,0.0,4.0,95,0.00,,---,0.00,0.00,VWS V14.01,2012-12-02 07:05:00,
2012-12-02 02:06:00,61.6,60.2,30.23,ENE,71,1.0,4.0,95,0.00,,---,0.00,0.00,VWS V14.01,2012-12-02 07:06:00,
2012-12-02 02:07:00,61.7,60.3,30.23,East,84,1.0,4.0,95,0.00,,---,0.00,0.00,VWS V14.01,2012-12-02 07:07:00,
2012-12-02 02:09:00,61.6,59.9,30.23,NE,41,3.0,4.0,94,0.00,,---,0.00,0.00,VWS V14.01,2012-12-02 07:09:00,
2012-12-02 02:10:00,61.6,59.9,30.23,ENE,73,2.0,4.0,94,0.00,,---,0.00,0.00,VWS V14.01,2012-12-02 07:10:00,
2012-12-02 02:11:00,61.6,59.9,30.23,NNE,30,0.0,4.0,94,0.00,,---,0.00,0.00,VWS V14.01,2012-12-02 07:11:00,
2012-12-02 02:12:00,61.6,59.9,30.23,NNE,30,1.0,4.0,94,0.00,,---,0.00,0.00,VWS V14.01,2012-12-02 07:12:00,
2012-12-02 02:13:00,61.5,59.8,30.23,NNE,30,1.0,4.0,94,0.00,,---,0.00,0.00,VWS V14.01,2012-12-02 07:13:00,
2012-12-02 02:14:00,61.5,59.8,30.23,NNE,31,0.0,4.0,94,0.00,,---,0.00,0.00,VWS V14.01,2012-12-02 07:14:00,
2012-12-02 02:15:00,61.6,59.9,30.23,ENE,64,1.0,4.0,94,0.00,,---,0.00,0.00,VWS V14.01,2012-12-02 07:15:00,
2012-12-02 02:16:00,61.6,59.9,30.23,ENE,64,0.0,4.0,94,0.00,,---,0.00,0.00,VWS V14.01,2012-12-02 07:16:00,
2012-12-02 02:17:00,61.6,59.9,30.23,ENE,64,2.0,4.0,94,0.00,,---,0.00,0.00,VWS V14.01,2012-12-02 07:17:00,
2012-12-02 02:18:00,61.6,59.9,30.23,ENE,64,0.0,4.0,94,0.00,,---,0.00,0.00,VWS V14.01,2012-12-02 07:18:00,
2012-12-02 02:19:00,61.6,59.9,30.23,ENE,64,0.0,4.0,94,0.00,,---,0.00,0.00,VWS V14.01,2012-12-02 07:19:00,
2012-12-02 02:20:00,61.6,59.9,30.23,ENE,64,1.0,4.0,94,0.00,,---,0.00,0.00,VWS V14.01,2012-12-02 07:20:00,
2012-12-02 02:21:00,61.5,59.8,30.23,ENE,64,0.0,4.0,94,0.00,,---,0.00,0.00,VWS V14.01,2012-12-02 07:21:00,
2012-12-02 02:22:00,61.5,59.8,30.23,East,99,1.0,4.0,94,0.00,,---,0.00,0.00,VWS V14.01,2012-12-02 07:22:00,
2012-12-02 02:23:00,61.5,59.8,30.23,East,99,0.0,4.0,94,0.00,,---,0.00,0.00,VWS V14.01,2012-12-02 07:23:00,
2012-12-02 02:24:00,61.6,59.9,30.23,East,99,0.0,4.0,94,0.00,,---,0.00,0.00,VWS V14.01,2012-12-02 07:24:00,
2012-12-02 02:25:00,61.6,59.9,30.23,East,99,1.0,4.0,94,0.00,,---,0.00,0.00,VWS V14.01,2012-12-02 07:25:00,
2012-12-02 02:26:00,61.6,59.9,30.23,East,99,0.0,4.0,94,0.00,,---,0.00,0.00,VWS V14.01,2012-12-02 07:26:00,
2012-12-02 02:27:00,61.6,59.9,30.23,ENE,63,0.0,4.0,94,0.00,,---,0.00,0.00,VWS V14.01,2012-12-02 07:27:00,
2012-12-02 02:28:00,61.6,59.9,30.23,ENE,63,0.0,4.0,94,0.00,,---,0.00,0.00,VWS V14.01,2012-12-02 07:28:00,
2012-12-02 02:29:00,61.6,59.9,30.23,ENE,62,0.0,4.0,94,0.00,,---,0.00,0.00,VWS V14.01,2012-12-02 07:29:00,
2012-12-02 02:30:00,61.6,59.9,30.23,ENE,62,0.0,4.0,94,0.00,,---,0.00,0.00,VWS V14.01,2012-12-02 07:30:00,
2012-12-02 02:31:00,61.6,59.9,30.23,ENE,62,0.0,4.0,94,0.00,,---,0.00,0.00,VWS V14.01,2012-12-02 07:31:00,
2012-12-02 02:32:00,61.7,60.0,30.23,ENE,62,0.0,4.0,94,0.00,,---,0.00,0.00,VWS V14.01,2012-12-02 07:32:00,
2012-12-02 02:33:00,61.7,60.0,30.23,ENE,62,0.0,4.0,94,0.00,,---,0.00,0.00,VWS V14.01,2012-12-02 07:33:00,
2012-12-02 02:34:00,61.7,60.0,30.23,ENE,62,0.0,4.0,94,0.00,,---,0.00,0.00,VWS V14.01,2012-12-02 07:34:00,
2012-12-02 02:35:00,61.7,60.0,30.23,ENE,73,1.0,4.0,94,0.00,,---,0.00,0.00,VWS V14.01,2012-12-02 07:35:00,
2012-12-02 02:36:00,61.7,60.0,30.23,ENE,68,2.0,4.0,94,0.00,,---,0.00,0.00,VWS V14.01,2012-12-02 07:36:00,
2012-12-02 02:37:00,61.7,60.0,30.23,NE,49,0.0,4.0,94,0.00,,---,0.00,0.00,VWS V14.01,2012-12-02 07:37:00,
2012-12-02 02:38:00,61.7,60.0,30.23,ENE,61,2.0,4.0,94,0.00,,---,0.00,0.00,VWS V14.01,2012-12-02 07:38:00,
2012-12-02 02:39:00,61.7,60.0,30.23,NE,36,0.0,4.0,94,0.00,,---,0.00,0.00,VWS V14.01,2012-12-02 07:39:00,
2012-12-02 02:40:00,61.7,60.0,30.23,NE,36,0.0,4.0,94,0.00,,---,0.00,0.00,VWS V14.01,2012-12-02 07:40:00,
2012-12-02 02:41:00,61.7,60.0,30.23,ENE,58,0.0,4.0,94,0.00,,---,0.00,0.00,VWS V14.01,2012-12-02 07:41:00,
2012-12-02 02:42:00,61.7,60.0,30.23,ENE,58,0.0,4.0,94,0.00,,---,0.00,0.00,VWS V14.01,2012-12-02 07:42:00,
2012-12-02 02:43:00,61.7,60.0,30.23,ENE,58,0.0,4.0,94,0.00,,---,0.00,0.00,VWS V14.01,2012-12-02 07:43:00,
2012-12-02 02:44:00,61.7,60.0,30.23,ENE,57,1.0,4.0,94,0.00,,---,0.00,0.00,VWS V14.01,2012-12-02 07:44:00,
2012-12-02 02:45:00,61.6,59.9,30.23,ENE,65,0.0,4.0,94,0.00,,---,0.00,0.00,VWS V14.01,2012-12-02 07:45:00,
2012-12-02 02:46:00,61.6,59.9,30.23,NNE,27,2.0,4.0,94,0.00,,---,0.00,0.00,VWS V14.01,2012-12-02 07:46:00,
2012-12-02 02:47:00,61.5,59.8,30.23,NNE,27,0.0,4.0,94,0.00,,---,0.00,0.00,VWS V14.01,2012-12-02 07:47:00,
2012-12-02 02:48:00,61.5,59.8,30.23,East,93,0.0,4.0,94,0.00,,---,0.00,0.00,VWS V14.01,2012-12-02 07:48:00,
2012-12-02 02:49:00,61.4,59.7,30.23,East,93,0.0,4.0,94,0.00,,---,0.00,0.00,VWS V14.01,2012-12-02 07:49:00,
2012-12-02 02:50:00,61.4,59.7,30.23,East,93,0.0,4.0,94,0.00,,---,0.00,0.00,VWS V14.01,2012-12-02 07:50:00,
2012-12-02 02:51:00,61.4,59.7,30.23,East,93,1.0,4.0,94,0.00,,---,0.00,0.00,VWS V14.01,2012-12-02 07:51:00,
2012-12-02 02:52:00,61.3,59.6,30.23,ENE,72,2.0,4.0,94,0.00,,---,0.00,0.00,VWS V14.01,2012-12-02 07:52:00,
2012-12-02 02:53:00,61.3,59.6,30.23,NE,41,1.0,4.0,94,0.00,,---,0.00,0.00,VWS V14.01,2012-12-02 07:53:00,
2012-12-02 02:54:00,61.3,59.6,30.23,NE,41,0.0,4.0,94,0.00,,---,0.00,0.00,VWS V14.01,2012-12-02 07:54:00,
2012-12-02 02:55:00,61.2,59.5,30.23,NNE,33,2.0,4.0,94,0.00,,---,0.00,0.00,VWS V14.01,2012-12-02 07:55:00,
2012-12-02 02:56:00,61.2,59.5,30.23,NNE,33,0.0,4.0,94,0.00,,---,0.00,0.00,VWS V14.01,2012-12-02 07:56:00,
2012-12-02 02:57:00,61.2,59.5,30.23,NE,43,1.0,4.0,94,0.00,,---,0.00,0.00,VWS V14.01,2012-12-02 07:57:00,
2012-12-02 02:58:00,61.2,59.5,30.23,NE,47,1.0,4.0,94,0.00,,---,0.00,0.00,VWS V14.01,2012-12-02 07:58:00,
2012-12-02 02:59:00,61.1,59.4,30.23,NE,47,0.0,4.0,94,0.00,,---,0.00,0.00,VWS V14.01,2012-12-02 07:59:00,
2012-12-02 03:00:00,61.1,59.4,30.23,NE,47,0.0,4.0,94,0.00,,---,0.00,0.00,VWS V14.01,2012-12-02 08:00:00,
2012-12-02 03:01:00,61.1,59.4,30.23,East,81,1.0,3.0,94,0.00,,---,0.00,0.00,VWS V14.01,2012-12-02 08:01:00,
2012-12-02 03:02:00,61.0,59.3,30.23,ENE,66,2.0,3.0,94,0.00,,---,0.00,0.00,VWS V14.01,2012-12-02 08:02:00,
2012-12-02 03:03:00,61.0,59.3,30.23,ENE,60,3.0,3.0,94,0.00,,---,0.00,0.00,VWS V14.01,2012-12-02 08:03:00,
2012-12-02 03:04:00,61.0,59.3,30.23,NE,52,0.0,4.0,94,0.00,,---,0.00,0.00,VWS V14.01,2012-12-02 08:04:00,
2012-12-02 03:05:00,61.0,59.3,30.23,NE,52,0.0,4.0,94,0.00,,---,0.00,0.00,VWS V14.01,2012-12-02 08:05:00,
2012-12-02 03:06:00,61.0,59.3,30.23,ENE,68,0.0,4.0,94,0.00,,---,0.00,0.00,VWS V14.01,2012-12-02 08:06:00,
2012-12-02 03:07:00,60.9,59.2,30.23,ENE,68,0.0,4.0,94,0.00,,---,0.00,0.00,VWS V14.01,2012-12-02 08:07:00,
2012-12-02 03:08:00,60.9,59.2,30.23,ENE,68,0.0,4.0,94,0.00,,---,0.00,0.00,VWS V14.01,2012-12-02 08:08:00,
2012-12-02 03:09:00,60.9,59.2,30.23,ENE,68,0.0,4.0,94,0.00,,---,0.00,0.00,VWS V14.01,2012-12-02 08:09:00,
2012-12-02 03:10:00,60.9,59.5,30.23,NE,35,0.0,4.0,95,0.00,,---,0.00,0.00,VWS V14.01,2012-12-02 08:10:00,
2012-12-02 03:11:00,60.9,59.5,30.23,NE,35,0.0,4.0,95,0.00,,---,0.00,0.00,VWS V14.01,2012-12-02 08:11:00,
2012-12-02 03:12:00,60.9,59.5,30.23,NE,35,0.0,4.0,95,0.00,,---,0.00,0.00,VWS V14.01,2012-12-02 08:12:00,
2012-12-02 03:13:00,60.9,59.5,30.23,NE,35,0.0,4.0,95,0.00,,---,0.00,0.00,VWS V14.01,2012-12-02 08:13:00,
2012-12-02 03:14:00,60.9,59.5,30.23,NE,35,0.0,4.0,95,0.00,,---,0.00,0.00,VWS V14.01,2012-12-02 08:14:00,
2012-12-02 03:15:00,60.9,59.5,30.23,ENE,62,2.0,4.0,95,0.00,,---,0.00,0.00,VWS V14.01,2012-12-02 08:15:00,
2012-12-02 03:16:00,60.8,59.4,30.23,NE,47,1.0,4.0,95,0.00,,---,0.00,0.00,VWS V14.01,2012-12-02 08:16:00,
2012-12-02 03:17:00,60.8,59.4,30.23,NE,48,0.0,4.0,95,0.00,,---,0.00,0.00,VWS V14.01,2012-12-02 08:17:00,
2012-12-02 03:18:00,60.8,59.4,30.23,NE,48,0.0,4.0,95,0.00,,---,0.00,0.00,VWS V14.01,2012-12-02 08:18:00,
2012-12-02 03:19:00,60.8,59.4,30.23,ENE,75,1.0,4.0,95,0.00,,---,0.00,0.00,VWS V14.01,2012-12-02 08:19:00,
2012-12-02 03:20:00,60.8,59.4,30.22,ESE,114,0.0,4.0,95,0.00,,---,0.00,0.00,VWS V14.01,2012-12-02 08:20:00,
2012-12-02 03:21:00,60.7,59.3,30.22,East,83,2.0,4.0,95,0.00,,---,0.00,0.00,VWS V14.01,2012-12-02 08:21:00,
2012-12-02 03:22:00,60.8,59.4,30.23,East,93,3.0,4.0,95,0.00,,---,0.00,0.00,VWS V14.01,2012-12-02 08:22:00,
2012-12-02 03:23:00,60.7,59.3,30.23,NE,43,3.0,4.0,95,0.00,,---,0.00,0.00,VWS V14.01,2012-12-02 08:23:00,
2012-12-02 03:24:00,60.8,59.4,30.22,ENE,68,3.0,4.0,95,0.00,,---,0.00,0.00,VWS V14.01,2012-12-02 08:24:00,
2012-12-02 03:25:00,60.8,59.4,30.22,ENE,61,1.0,4.0,95,0.00,,---,0.00,0.00,VWS V14.01,2012-12-02 08:25:00,
2012-12-02 03:26:00,60.8,59.4,30.22,ENE,62,2.0,4.0,95,0.00,,---,0.00,0.00,VWS V14.01,2012-12-02 08:26:00,
2012-12-02 03:27:00,60.8,59.4,30.22,ENE,63,0.0,4.0,95,0.00,,---,0.00,0.00,VWS V14.01,2012-12-02 08:27:00,
2012-12-02 03:28:00,60.8,59.4,30.22,ENE,63,1.0,4.0,95,0.00,,---,0.00,0.00,VWS V14.01,2012-12-02 08:28:00,
2012-12-02 03:29:00,60.8,59.4,30.22,SE,125,1.0,4.0,95,0.00,,---,0.00,0.00,VWS V14.01,2012-12-02 08:29:00,
2012-12-02 03:30:00,60.8,59.4,30.22,NE,43,0.0,4.0,95,0.00,,---,0.00,0.00,VWS V14.01,2012-12-02 08:30:00,
2012-12-02 03:31:00,60.8,59.4,30.22,ENE,75,1.0,4.0,95,0.00,,---,0.00,0.00,VWS V14.01,2012-12-02 08:31:00,
2012-12-02 03:32:00,60.8,59.4,30.22,ENE,61,0.0,4.0,95,0.00,,---,0.00,0.00,VWS V14.01,2012-12-02 08:32:00,
2012-12-02 03:33:00,60.8,59.4,30.22,NE,54,5.0,5.0,95,0.00,,---,0.00,0.00,VWS V14.01,2012-12-02 08:33:00,
2012-12-02 03:34:00,60.8,59.4,30.22,NE,45,2.0,5.0,95,0.00,,---,0.00,0.00,VWS V14.01,2012-12-02 08:34:00,
2012-12-02 03:35:00,60.8,59.4,30.22,ENE,70,2.0,5.0,95,0.00,,---,0.00,0.00,VWS V14.01,2012-12-02 08:35:00,
2012-12-02 03:36:00,60.8,59.4,30.22,East,80,0.0,5.0,95,0.00,,---,0.00,0.00,VWS V14.01,2012-12-02 08:36:00,
2012-12-02 03:37:00,60.8,59.4,30.22,NE,49,0.0,5.0,95,0.00,,---,0.00,0.00,VWS V14.01,2012-12-02 08:37:00,
2012-12-02 03:38:00,60.8,59.4,30.22,East,94,0.0,5.0,95,0.00,,---,0.00,0.00,VWS V14.01,2012-12-02 08:38:00,
2012-12-02 03:39:00,60.7,59.3,30.22,ENE,57,3.0,5.0,95,0.00,,---,0.00,0.00,VWS V14.01,2012-12-02 08:39:00,
2012-12-02 03:40:00,60.7,59.3,30.22,East,85,2.0,5.0,95,0.00,,---,0.00,0.00,VWS V14.01,2012-12-02 08:40:00,
2012-12-02 03:41:00,60.7,59.3,30.22,NE,46,1.0,5.0,95,0.00,,---,0.00,0.00,VWS V14.01,2012-12-02 08:41:00,
2012-12-02 03:42:00,60.7,59.3,30.22,NE,46,0.0,5.0,95,0.00,,---,0.00,0.00,VWS V14.01,2012-12-02 08:42:00,
2012-12-02 03:43:00,60.7,59.3,30.22,NE,39,2.0,5.0,95,0.00,,---,0.00,0.00,VWS V14.01,2012-12-02 08:43:00,
2012-12-02 03:44:00,60.7,59.3,30.22,NE,45,0.0,5.0,95,0.00,,---,0.00,0.00,VWS V14.01,2012-12-02 08:44:00,
2012-12-02 03:45:00,60.7,59.3,30.22,NE,45,0.0,5.0,95,0.00,,---,0.00,0.00,VWS V14.01,2012-12-02 08:45:00,
2012-12-02 03:46:00,60.6,59.2,30.22,ENE,77,1.0,5.0,95,0.00,,---,0.00,0.00,VWS V14.01,2012-12-02 08:46:00,
2012-12-02 03:47:00,60.6,59.2,30.22,ENE,76,1.0,5.0,95,0.00,,---,0.00,0.00,VWS V14.01,2012-12-02 08:47:00,
2012-12-02 03:48:00,60.6,59.2,30.22,ENE,76,0.0,5.0,95,0.00,,---,0.00,0.00,VWS V14.01,2012-12-02 08:48:00,
2012-12-02 03:49:00,60.5,59.1,30.22,ENE,76,0.0,5.0,95,0.00,,---,0.00,0.00,VWS V14.01,2012-12-02 08:49:00,
2012-12-02 03:50:00,60.5,59.1,30.22,ENE,76,0.0,5.0,95,0.00,,---,0.00,0.00,VWS V14.01,2012-12-02 08:50:00,
2012-12-02 03:51:00,60.5,59.1,30.22,ENE,76,0.0,5.0,95,0.00,,---,0.00,0.00,VWS V14.01,2012-12-02 08:51:00,
2012-12-02 03:52:00,60.5,59.1,30.22,ENE,63,2.0,5.0,95,0.00,,---,0.00,0.00,VWS V14.01,2012-12-02 08:52:00,
2012-12-02 03:53:00,60.5,59.1,30.22,ENE,63,0.0,5.0,95,0.00,,---,0.00,0.00,VWS V14.01,2012-12-02 08:53:00,
2012-12-02 03:54:00,60.5,59.1,30.22,ENE,66,2.0,5.0,95,0.00,,---,0.00,0.00,VWS V14.01,2012-12-02 08:54:00,
2012-12-02 03:55:00,60.4,59.0,30.22,ENE,62,0.0,5.0,95,0.00,,---,0.00,0.00,VWS V14.01,2012-12-02 08:55:00,
2012-12-02 03:56:00,60.4,59.0,30.22,East,88,0.0,5.0,95,0.00,,---,0.00,0.00,VWS V14.01,2012-12-02 08:56:00,
2012-12-02 03:57:00,60.4,59.0,30.22,ENE,71,2.0,5.0,95,0.00,,---,0.00,0.00,VWS V14.01,2012-12-02 08:57:00,
2012-12-02 03:58:00,60.4,59.0,30.22,ENE,71,1.0,5.0,95,0.00,,---,0.00,0.00,VWS V14.01,2012-12-02 08:58:00,
2012-12-02 03:59:00,60.4,59.0,30.22,ENE,71,0.0,5.0,95,0.00,,---,0.00,0.00,VWS V14.01,2012-12-02 08:59:00,
2012-12-02 04:00:00,60.4,59.0,30.22,ENE,71,0.0,5.0,95,0.00,,---,0.00,0.00,VWS V14.01,2012-12-02 09:00:00,
2012-12-02 04:01:00,60.5,59.1,30.22,ENE,78,3.0,3.0,95,0.00,,---,0.00,0.00,VWS V14.01,2012-12-02 09:01:00,
2012-12-02 04:02:00,60.5,59.1,30.22,NE,41,0.0,3.0,95,0.00,,---,0.00,0.00,VWS V14.01,2012-12-02 09:02:00,
2012-12-02 04:03:00,60.5,59.1,30.22,NE,41,0.0,3.0,95,0.00,,---,0.00,0.00,VWS V14.01,2012-12-02 09:03:00,
2012-12-02 04:04:00,60.4,59.0,30.22,NE,41,0.0,3.0,95,0.00,,---,0.00,0.00,VWS V14.01,2012-12-02 09:04:00,
2012-12-02 04:05:00,60.4,59.0,30.22,NE,48,2.0,3.0,95,0.00,,---,0.00,0.00,VWS V14.01,2012-12-02 09:05:00,
2012-12-02 04:06:00,60.4,59.3,30.22,East,79,1.0,3.0,96,0.00,,---,0.00,0.00,VWS V14.01,2012-12-02 09:06:00,
2012-12-02 04:07:00,60.4,59.3,30.22,East,79,0.0,3.0,96,0.00,,---,0.00,0.00,VWS V14.01,2012-12-02 09:07:00,
2012-12-02 04:08:00,60.4,59.3,30.22,East,90,0.0,3.0,96,0.00,,---,0.00,0.00,VWS V14.01,2012-12-02 09:08:00,
2012-12-02 04:09:00,60.4,59.3,30.22,ENE,70,0.0,3.0,96,0.00,,---,0.00,0.00,VWS V14.01,2012-12-02 09:09:00,
2012-12-02 04:10:00,60.4,59.3,30.22,East,90,0.0,3.0,96,0.00,,---,0.00,0.00,VWS V14.01,2012-12-02 09:10:00,
2012-12-02 04:11:00,60.4,59.3,30.22,East,90,0.0,3.0,96,0.00,,---,0.00,0.00,VWS V14.01,2012-12-02 09:11:00,
2012-12-02 04:12:00,60.4,59.3,30.22,East,90,0.0,3.0,96,0.00,,---,0.00,0.00,VWS V14.01,2012-12-02 09:12:00,
2012-12-02 04:13:00,60.4,59.3,30.22,ENE,58,4.0,4.0,96,0.00,,---,0.00,0.00,VWS V14.01,2012-12-02 09:13:00,
2012-12-02 04:14:00,60.4,59.3,30.22,ENE,64,0.0,4.0,96,0.00,,---,0.00,0.00,VWS V14.01,2012-12-02 09:14:00,
2012-12-02 04:15:00,60.4,59.3,30.22,ENE,64,0.0,4.0,96,0.00,,---,0.00,0.00,VWS V14.01,2012-12-02 09:15:00,
2012-12-02 04:16:00,60.4,59.3,30.22,NNE,31,0.0,4.0,96,0.00,,---,0.00,0.00,VWS V14.01,2012-12-02 09:16:00,
2012-12-02 04:17:00,60.3,58.9,30.22,NE,34,1.0,4.0,95,0.00,,---,0.00,0.00,VWS V14.01,2012-12-02 09:17:00,
2012-12-02 04:18:00,60.3,58.9,30.22,East,79,4.0,4.0,95,0.00,,---,0.00,0.00,VWS V14.01,2012-12-02 09:18:00,
2012-12-02 04:19:00,60.3,58.9,30.22,ENE,68,1.0,4.0,95,0.00,,---,0.00,0.00,VWS V14.01,2012-12-02 09:19:00,
2012-12-02 04:20:00,60.3,58.9,30.22,NE,48,1.0,4.0,95,0.00,,---,0.00,0.00,VWS V14.01,2012-12-02 09:20:00,
2012-12-02 04:21:00,60.3,59.2,30.22,ENE,63,0.0,4.0,96,0.00,,---,0.00,0.00,VWS V14.01,2012-12-02 09:21:00,
2012-12-02 04:22:00,60.3,59.2,30.22,NE,34,0.0,4.0,96,0.00,,---,0.00,0.00,VWS V14.01,2012-12-02 09:22:00,
2012-12-02 04:23:00,60.3,59.2,30.22,ESE,103,1.0,4.0,96,0.00,,---,0.00,0.00,VWS V14.01,2012-12-02 09:23:00,
2012-12-02 04:24:00,60.3,59.2,30.23,ENE,67,0.0,4.0,96,0.00,,---,0.00,0.00,VWS V14.01,2012-12-02 09:24:00,
2012-12-02 04:25:00,60.2,59.1,30.23,ENE,67,2.0,4.0,96,0.00,,---,0.00,0.00,VWS V14.01,2012-12-02 09:25:00,
2012-12-02 04:26:00,60.2,59.1,30.23,ENE,67,0.0,4.0,96,0.00,,---,0.00,0.00,VWS V14.01,2012-12-02 09:26:00,
2012-12-02 04:27:00,60.2,59.1,30.23,NE,50,2.0,4.0,96,0.00,,---,0.00,0.00,VWS V14.01,2012-12-02 09:27:00,
2012-12-02 04:28:00,60.2,59.1,30.23,NE,49,0.0,4.0,96,0.00,,---,0.00,0.00,VWS V14.01,2012-12-02 09:28:00,
2012-12-02 04:29:00,60.2,59.1,30.23,NNE,31,0.0,4.0,96,0.00,,---,0.00,0.00,VWS V14.01,2012-12-02 09:29:00,
2012-12-02 04:30:00,60.3,59.2,30.23,NNE,31,0.0,4.0,96,0.00,,---,0.00,0.00,VWS V14.01,2012-12-02 09:30:00,
2012-12-02 04:31:00,60.3,59.2,30.23,NE,48,2.0,4.0,96,0.00,,---,0.00,0.00,VWS V14.01,2012-12-02 09:31:00,
2012-12-02 04:32:00,60.2,59.1,30.23,ENE,64,1.0,4.0,96,0.00,,---,0.00,0.00,VWS V14.01,2012-12-02 09:32:00,
2012-12-02 04:33:00,60.2,59.1,30.23,ENE,62,0.0,4.0,96,0.00,,---,0.00,0.00,VWS V14.01,2012-12-02 09:33:00,
2012-12-02 04:34:00,60.2,59.1,30.23,ENE,62,0.0,4.0,96,0.00,,---,0.00,0.00,VWS V14.01,2012-12-02 09:34:00,
2012-12-02 04:35:00,60.2,59.1,30.23,ENE,62,0.0,4.0,96,0.00,,---,0.00,0.00,VWS V14.01,2012-12-02 09:35:00,
2012-12-02 04:36:00,60.2,59.1,30.23,ENE,62,0.0,4.0,96,0.00,,---,0.00,0.00,VWS V14.01,2012-12-02 09:36:00,
2012-12-02 04:37:00,60.2,59.1,30.23,ENE,62,1.0,4.0,96,0.00,,---,0.00,0.00,VWS V14.01,2012-12-02 09:37:00,
2012-12-02 04:38:00,60.2,59.1,30.23,ENE,62,1.0,4.0,96,0.00,,---,0.00,0.00,VWS V14.01,2012-12-02 09:38:00,
2012-12-02 04:39:00,60.2,59.1,30.23,ENE,62,0.0,4.0,96,0.00,,---,0.00,0.00,VWS V14.01,2012-12-02 09:39:00,
2012-12-02 04:40:00,60.2,59.1,30.23,NE,54,1.0,4.0,96,0.00,,---,0.00,0.00,VWS V14.01,2012-12-02 09:40:00,
2012-12-02 04:41:00,60.1,59.0,30.23,ENE,59,1.0,4.0,96,0.00,,---,0.00,0.00,VWS V14.01,2012-12-02 09:41:00,
2012-12-02 04:42:00,60.1,59.0,30.23,ENE,68,1.0,4.0,96,0.00,,---,0.00,0.00,VWS V14.01,2012-12-02 09:42:00,
2012-12-02 04:43:00,60.1,59.0,30.23,ENE,68,1.0,4.0,96,0.00,,---,0.00,0.00,VWS V14.01,2012-12-02 09:43:00,
2012-12-02 04:44:00,60.1,59.0,30.23,NE,55,0.0,4.0,96,0.00,,---,0.00,0.00,VWS V14.01,2012-12-02 09:44:00,
2012-12-02 04:45:00,60.1,59.0,30.22,NE,41,0.0,4.0,96,0.00,,---,0.00,0.00,VWS V14.01,2012-12-02 09:45:00,
2012-12-02 04:46:00,60.1,59.0,30.23,NE,41,1.0,4.0,96,0.00,,---,0.00,0.00,VWS V14.01,2012-12-02 09:46:00,
2012-12-02 04:47:00,60.0,58.9,30.23,NE,52,0.0,4.0,96,0.00,,---,0.00,0.00,VWS V14.01,2012-12-02 09:47:00,
2012-12-02 04:48:00,60.0,58.9,30.22,NE,37,2.0,4.0,96,0.00,,---,0.00,0.00,VWS V14.01,2012-12-02 09:48:00,
2012-12-02 04:49:00,60.0,58.9,30.23,ENE,66,0.0,4.0,96,0.00,,---,0.00,0.00,VWS V14.01,2012-12-02 09:49:00,
2012-12-02 04:50:00,60.0,58.9,30.23,ENE,67,0.0,4.0,96,0.00,,---,0.00,0.00,VWS V14.01,2012-12-02 09:50:00,
2012-12-02 04:51:00,60.0,58.9,30.23,NE,43,0.0,4.0,96,0.00,,---,0.00,0.00,VWS V14.01,2012-12-02 09:51:00,
2012-12-02 04:52:00,60.0,58.9,30.23,NE,43,0.0,4.0,96,0.00,,---,0.00,0.00,VWS V14.01,2012-12-02 09:52:00,
2012-12-02 04:53:00,60.0,58.9,30.23,ENE,58,1.0,4.0,96,0.00,,---,0.00,0.00,VWS V14.01,2012-12-02 09:53:00,
2012-12-02 04:54:00,60.0,58.9,30.23,NE,54,2.0,4.0,96,0.00,,---,0.00,0.00,VWS V14.01,2012-12-02 09:54:00,
2012-12-02 04:55:00,60.0,58.9,30.23,NE,54,0.0,4.0,96,0.00,,---,0.00,0.00,VWS V14.01,2012-12-02 09:55:00,
2012-12-02 04:56:00,59.9,58.8,30.23,ENE,63,0.0,4.0,96,0.00,,---,0.00,0.00,VWS V14.01,2012-12-02 09:56:00,
2012-12-02 04:57:00,59.9,58.8,30.23,ENE,66,0.0,4.0,96,0.00,,---,0.00,0.00,VWS V14.01,2012-12-02 09:57:00,
2012-12-02 04:58:00,59.9,58.8,30.23,ENE,66,1.0,4.0,96,0.00,,---,0.00,0.00,VWS V14.01,2012-12-02 09:58:00,
2012-12-02 04:59:00,59.9,58.8,30.23,ENE,64,1.0,4.0,96,0.00,,---,0.00,0.00,VWS V14.01,2012-12-02 09:59:00,
2012-12-02 05:00:00,59.9,58.8,30.23,NNE,16,0.0,4.0,96,0.00,,---,0.00,0.00,VWS V14.01,2012-12-02 10:00:00,
2012-12-02 05:01:00,59.9,58.8,30.23,NNE,30,0.0,3.0,96,0.00,,---,0.00,0.00,VWS V14.01,2012-12-02 10:01:00,
2012-12-02 05:02:00,59.8,58.7,30.23,ENE,71,0.0,3.0,96,0.00,,---,0.00,0.00,VWS V14.01,2012-12-02 10:02:00,
2012-12-02 05:03:00,59.8,58.7,30.23,NE,46,0.0,3.0,96,0.00,,---,0.00,0.00,VWS V14.01,2012-12-02 10:03:00,
2012-12-02 05:04:00,59.8,58.7,30.23,NE,46,0.0,3.0,96,0.00,,---,0.00,0.00,VWS V14.01,2012-12-02 10:04:00,
2012-12-02 05:05:00,59.8,58.7,30.23,NE,46,0.0,3.0,96,0.00,,---,0.00,0.00,VWS V14.01,2012-12-02 10:05:00,
2012-12-02 05:06:00,59.8,58.7,30.23,East,87,0.0,3.0,96,0.00,,---,0.00,0.00,VWS V14.01,2012-12-02 10:06:00,
2012-12-02 05:07:00,59.7,58.6,30.23,ENE,68,0.0,3.0,96,0.00,,---,0.00,0.00,VWS V14.01,2012-12-02 10:07:00,
2012-12-02 05:08:00,59.7,58.6,30.23,ENE,68,0.0,3.0,96,0.00,,---,0.00,0.00,VWS V14.01,2012-12-02 10:08:00,
2012-12-02 05:09:00,59.7,58.6,30.23,ENE,68,0.0,3.0,96,0.00,,---,0.00,0.00,VWS V14.01,2012-12-02 10:09:00,
2012-12-02 05:10:00,59.7,58.6,30.23,ENE,66,0.0,3.0,96,0.00,,---,0.00,0.00,VWS V14.01,2012-12-02 10:10:00,
2012-12-02 05:11:00,59.7,58.6,30.23,NE,48,2.0,3.0,96,0.00,,---,0.00,0.00,VWS V14.01,2012-12-02 10:11:00,
2012-12-02 05:12:00,59.7,58.6,30.23,NE,48,0.0,3.0,96,0.00,,---,0.00,0.00,VWS V14.01,2012-12-02 10:12:00,
2012-12-02 05:13:00,59.7,58.6,30.23,NE,48,0.0,3.0,96,0.00,,---,0.00,0.00,VWS V14.01,2012-12-02 10:13:00,
2012-12-02 05:14:00,59.7,58.6,30.23,NE,48,0.0,3.0,96,0.00,,---,0.00,0.00,VWS V14.01,2012-12-02 10:14:00,
2012-12-02 05:15:00,59.6,58.5,30.23,NE,48,0.0,3.0,96,0.00,,---,0.00,0.00,VWS V14.01,2012-12-02 10:15:00,
2012-12-02 05:16:00,59.6,58.5,30.23,NE,48,0.0,3.0,96,0.00,,---,0.00,0.00,VWS V14.01,2012-12-02 10:16:00,
2012-12-02 05:17:00,59.6,58.5,30.23,NE,48,1.0,3.0,96,0.00,,---,0.00,0.00,VWS V14.01,2012-12-02 10:17:00,
2012-12-02 05:18:00,59.6,58.5,30.23,NE,48,0.0,3.0,96,0.00,,---,0.00,0.00,VWS V14.01,2012-12-02 10:18:00,
2012-12-02 05:19:00,59.6,58.5,30.23,NE,52,0.0,3.0,96,0.00,,---,0.00,0.00,VWS V14.01,2012-12-02 10:19:00,
2012-12-02 05:20:00,59.7,58.6,30.23,NE,52,0.0,3.0,96,0.00,,---,0.00,0.00,VWS V14.01,2012-12-02 10:20:00,
2012-12-02 05:21:00,59.7,58.6,30.23,ENE,74,1.0,3.0,96,0.00,,---,0.00,0.00,VWS V14.01,2012-12-02 10:21:00,
2012-12-02 05:22:00,59.7,58.6,30.23,NE,45,0.0,3.0,96,0.00,,---,0.00,0.00,VWS V14.01,2012-12-02 10:22:00,
2012-12-02 05:23:00,59.7,58.6,30.23,NE,45,0.0,3.0,96,0.00,,---,0.00,0.00,VWS V14.01,2012-12-02 10:23:00,
2012-12-02 05:24:00,59.7,58.6,30.23,NE,45,0.0,3.0,96,0.00,,---,0.00,0.00,VWS V14.01,2012-12-02 10:24:00,
2012-12-02 05:25:00,59.7,58.6,30.23,NE,45,0.0,3.0,96,0.00,,---,0.00,0.00,VWS V14.01,2012-12-02 10:25:00,
2012-12-02 05:26:00,59.7,58.6,30.23,NE,45,0.0,3.0,96,0.00,,---,0.00,0.00,VWS V14.01,2012-12-02 10:26:00,
2012-12-02 05:27:00,59.7,58.6,30.23,NE,45,0.0,3.0,96,0.00,,---,0.00,0.00,VWS V14.01,2012-12-02 10:27:00,
2012-12-02 05:28:00,59.7,58.6,30.23,NE,45,0.0,3.0,96,0.00,,---,0.00,0.00,VWS V14.01,2012-12-02 10:28:00,
2012-12-02 05:29:00,59.7,58.6,30.23,NE,45,0.0,3.0,96,0.00,,---,0.00,0.00,VWS V14.01,2012-12-02 10:29:00,
2012-12-02 05:30:00,59.6,58.5,30.23,NE,45,0.0,3.0,96,0.00,,---,0.00,0.00,VWS V14.01,2012-12-02 10:30:00,
2012-12-02 05:31:00,59.6,58.5,30.23,NE,45,0.0,3.0,96,0.00,,---,0.00,0.00,VWS V14.01,2012-12-02 10:31:00,
2012-12-02 05:32:00,59.6,58.5,30.23,NE,45,0.0,3.0,96,0.00,,---,0.00,0.00,VWS V14.01,2012-12-02 10:32:00,
2012-12-02 05:33:00,59.6,58.5,30.23,NE,45,0.0,3.0,96,0.00,,---,0.00,0.00,VWS V14.01,2012-12-02 10:33:00,
2012-12-02 05:34:00,59.6,58.5,30.23,NE,45,1.0,3.0,96,0.00,,---,0.00,0.00,VWS V14.01,2012-12-02 10:34:00,
2012-12-02 05:35:00,59.6,58.5,30.23,NE,45,0.0,3.0,96,0.00,,---,0.00,0.00,VWS V14.01,2012-12-02 10:35:00,
2012-12-02 05:36:00,59.6,58.5,30.23,NE,45,0.0,3.0,96,0.00,,---,0.00,0.00,VWS V14.01,2012-12-02 10:36:00,
2012-12-02 05:37:00,59.6,58.5,30.23,NE,45,0.0,3.0,96,0.00,,---,0.00,0.00,VWS V14.01,2012-12-02 10:37:00,
2012-12-02 05:38:00,59.6,58.5,30.23,NE,45,0.0,3.0,96,0.00,,---,0.00,0.00,VWS V14.01,2012-12-02 10:38:00,
2012-12-02 05:39:00,59.6,58.5,30.23,NE,45,0.0,3.0,96,0.00,,---,0.00,0.00,VWS V14.01,2012-12-02 10:39:00,
2012-12-02 05:40:00,59.6,58.5,30.23,NE,45,0.0,3.0,96,0.00,,---,0.00,0.00,VWS V14.01,2012-12-02 10:40:00,
2012-12-02 05:41:00,59.6,58.5,30.23,NE,36,0.0,3.0,96,0.00,,---,0.00,0.00,VWS V14.01,2012-12-02 10:41:00,
2012-12-02 05:42:00,59.6,58.5,30.24,NE,36,0.0,3.0,96,0.00,,---,0.00,0.00,VWS V14.01,2012-12-02 10:42:00,
2012-12-02 05:43:00,59.6,58.5,30.24,NE,36,0.0,3.0,96,0.00,,---,0.00,0.00,VWS V14.01,2012-12-02 10:43:00,
2012-12-02 05:44:00,59.6,58.5,30.24,NE,37,0.0,3.0,96,0.00,,---,0.00,0.00,VWS V14.01,2012-12-02 10:44:00,
2012-12-02 05:45:00,59.6,58.5,30.24,NE,37,1.0,3.0,96,0.00,,---,0.00,0.00,VWS V14.01,2012-12-02 10:45:00,
2012-12-02 05:46:00,59.6,58.5,30.24,NE,37,0.0,3.0,96,0.00,,---,0.00,0.00,VWS V14.01,2012-12-02 10:46:00,
2012-12-02 05:47:00,59.5,58.4,30.24,ENE,69,0.0,3.0,96,0.00,,---,0.00,0.00,VWS V14.01,2012-12-02 10:47:00,
2012-12-02 05:48:00,59.5,58.7,30.24,ENE,69,0.0,3.0,97,0.00,,---,0.00,0.00,VWS V14.01,2012-12-02 10:48:00,
2012-12-02 05:49:00,59.6,58.8,30.24,ENE,62,1.0,3.0,97,0.00,,---,0.00,0.00,VWS V14.01,2012-12-02 10:49:00,
2012-12-02 05:50:00,59.6,58.8,30.24,ENE,62,0.0,3.0,97,0.00,,---,0.00,0.00,VWS V14.01,2012-12-02 10:50:00,
2012-12-02 05:51:00,59.6,58.8,30.24,ENE,62,0.0,3.0,97,0.00,,---,0.00,0.00,VWS V14.01,2012-12-02 10:51:00,
2012-12-02 05:52:00,59.6,58.8,30.24,ENE,62,0.0,3.0,97,0.00,,---,0.00,0.00,VWS V14.01,2012-12-02 10:52:00,
2012-12-02 05:53:00,59.6,58.8,30.24,ENE,70,1.0,3.0,97,0.00,,---,0.00,0.00,VWS V14.01,2012-12-02 10:53:00,
2012-12-02 05:54:00,59.6,58.8,30.24,ENE,70,0.0,3.0,97,0.00,,---,0.00,0.00,VWS V14.01,2012-12-02 10:54:00,
2012-12-02 05:55:00,59.6,58.8,30.24,ENE,60,0.0,3.0,97,0.00,,---,0.00,0.00,VWS V14.01,2012-12-02 10:55:00,
2012-12-02 05:56:00,59.7,58.8,30.24,ENE,72,0.0,3.0,97,0.00,,---,0.00,0.00,VWS V14.01,2012-12-02 10:56:00,
2012-12-02 05:57:00,59.7,58.8,30.24,ENE,72,0.0,3.0,97,0.00,,---,0.00,0.00,VWS V14.01,2012-12-02 10:57:00,
2012-12-02 05:58:00,59.7,58.8,30.24,ENE,72,0.0,3.0,97,0.00,,---,0.00,0.00,VWS V14.01,2012-12-02 10:58:00,
2012-12-02 05:59:00,59.7,58.8,30.24,ENE,72,0.0,3.0,97,0.00,,---,0.00,0.00,VWS V14.01,2012-12-02 10:59:00,
2012-12-02 06:00:00,59.8,59.0,30.24,ENE,72,0.0,3.0,97,0.00,,---,0.00,0.00,VWS V14.01,2012-12-02 11:00:00,
2012-12-02 06:01:00,59.8,59.0,30.24,NE,37,0.0,1.0,97,0.00,,---,0.00,0.00,VWS V14.01,2012-12-02 11:01:00,
2012-12-02 06:02:00,59.8,59.0,30.24,NE,37,0.0,1.0,97,0.00,,---,0.00,0.00,VWS V14.01,2012-12-02 11:02:00,
2012-12-02 06:03:00,59.8,59.0,30.24,NE,37,0.0,1.0,97,0.00,,---,0.00,0.00,VWS V14.01,2012-12-02 11:03:00,
2012-12-02 06:04:00,59.7,58.8,30.24,NE,37,0.0,1.0,97,0.00,,---,0.00,0.00,VWS V14.01,2012-12-02 11:04:00,
2012-12-02 06:05:00,59.8,59.0,30.24,NE,37,0.0,1.0,97,0.00,,---,0.00,0.00,VWS V14.01,2012-12-02 11:05:00,
2012-12-02 06:06:00,59.8,59.0,30.24,NE,45,0.0,1.0,97,0.00,,---,0.00,0.00,VWS V14.01,2012-12-02 11:06:00,
2012-12-02 06:07:00,59.7,58.8,30.24,ENE,64,1.0,2.0,97,0.00,,---,0.00,0.00,VWS V14.01,2012-12-02 11:07:00,
2012-12-02 06:08:00,59.8,59.0,30.24,ENE,64,1.0,2.0,97,0.00,,---,0.00,0.00,VWS V14.01,2012-12-02 11:08:00,
2012-12-02 06:09:00,59.8,59.0,30.24,ENE,58,0.0,2.0,97,0.00,,---,0.00,0.00,VWS V14.01,2012-12-02 11:09:00,
2012-12-02 06:10:00,59.8,59.0,30.24,ENE,58,1.0,2.0,97,0.00,,---,0.00,0.00,VWS V14.01,2012-12-02 11:10:00,
2012-12-02 06:11:00,59.8,59.0,30.24,ENE,58,0.0,2.0,97,0.00,,---,0.00,0.00,VWS V14.01,2012-12-02 11:11:00,
2012-12-02 06:12:00,59.8,59.0,30.24,ENE,58,0.0,2.0,97,0.00,,---,0.00,0.00,VWS V14.01,2012-12-02 11:12:00,
2012-12-02 06:13:00,59.8,59.0,30.24,ENE,58,0.0,2.0,97,0.00,,---,0.00,0.00,VWS V14.01,2012-12-02 11:13:00,
2012-12-02 06:14:00,59.8,59.0,30.24,ENE,58,0.0,2.0,97,0.00,,---,0.00,0.00,VWS V14.01,2012-12-02 11:14:00,
2012-12-02 06:15:00,59.8,59.0,30.24,ENE,66,1.0,2.0,97,0.00,,---,0.00,0.00,VWS V14.01,2012-12-02 11:15:00,
2012-12-02 06:16:00,59.8,59.0,30.24,ENE,66,0.0,2.0,97,0.00,,---,0.00,0.00,VWS V14.01,2012-12-02 11:16:00,
2012-12-02 06:17:00,59.8,59.0,30.24,ENE,66,0.0,2.0,97,0.00,,---,0.00,0.00,VWS V14.01,2012-12-02 11:17:00,
2012-12-02 06:18:00,59.7,58.8,30.25,ENE,66,0.0,2.0,97,0.00,,---,0.00,0.00,VWS V14.01,2012-12-02 11:18:00,
2012-12-02 06:19:00,59.7,58.8,30.24,NE,43,2.0,2.0,97,0.00,,---,0.00,0.00,VWS V14.01,2012-12-02 11:19:00,
2012-12-02 06:20:00,59.7,58.8,30.24,ENE,61,0.0,2.0,97,0.00,,---,0.00,0.00,VWS V14.01,2012-12-02 11:20:00,
2012-12-02 06:21:00,59.7,58.8,30.25,ENE,69,1.0,3.0,97,0.00,,---,0.00,0.00,VWS V14.01,2012-12-02 11:21:00,
2012-12-02 06:22:00,59.7,58.8,30.25,ENE,69,0.0,3.0,97,0.00,,---,0.00,0.00,VWS V14.01,2012-12-02 11:22:00,
2012-12-02 06:23:00,59.7,58.8,30.25,ENE,69,0.0,3.0,97,0.00,,---,0.00,0.00,VWS V14.01,2012-12-02 11:23:00,
2012-12-02 06:24:00,59.7,58.8,30.25,ENE,69,0.0,3.0,97,0.00,,---,0.00,0.00,VWS V14.01,2012-12-02 11:24:00,
2012-12-02 06:25:00,59.7,58.8,30.25,ENE,69,0.0,3.0,97,0.00,,---,0.00,0.00,VWS V14.01,2012-12-02 11:25:00,
2012-12-02 06:26:00,59.7,58.8,30.25,ENE,69,0.0,3.0,97,0.00,,---,0.00,0.00,VWS V14.01,2012-12-02 11:26:00,
2012-12-02 06:27:00,59.7,58.8,30.25,ENE,69,0.0,3.0,97,0.00,,---,0.00,0.00,VWS V14.01,2012-12-02 11:27:00,
2012-12-02 06:28:00,59.7,58.8,30.25,ENE,65,0.0,3.0,97,0.00,,---,0.00,0.00,VWS V14.01,2012-12-02 11:28:00,
2012-12-02 06:29:00,59.8,59.0,30.25,ENE,65,0.0,3.0,97,0.00,,---,0.00,0.00,VWS V14.01,2012-12-02 11:29:00,
2012-12-02 06:30:00,59.8,59.0,30.25,ENE,64,0.0,3.0,97,0.00,,---,0.00,0.00,VWS V14.01,2012-12-02 11:30:00,
2012-12-02 06:31:00,59.8,59.0,30.25,ENE,64,0.0,3.0,97,0.00,,---,0.00,0.00,VWS V14.01,2012-12-02 11:31:00,
2012-12-02 06:32:00,59.8,59.0,30.25,ENE,59,0.0,3.0,97,0.00,,---,0.00,0.00,VWS V14.01,2012-12-02 11:32:00,
2012-12-02 06:33:00,59.8,59.0,30.25,NE,54,0.0,3.0,97,0.00,,---,0.00,0.00,VWS V14.01,2012-12-02 11:33:00,
2012-12-02 06:34:00,59.7,58.8,30.25,NE,54,1.0,3.0,97,0.00,,---,0.00,0.00,VWS V14.01,2012-12-02 11:34:00,
2012-12-02 06:35:00,59.7,58.8,30.25,NE,54,0.0,3.0,97,0.00,,---,0.00,0.00,VWS V14.01,2012-12-02 11:35:00,
2012-12-02 06:36:00,59.7,58.8,30.25,NE,54,0.0,3.0,97,0.00,,---,0.00,0.00,VWS V14.01,2012-12-02 11:36:00,
2012-12-02 06:37:00,59.7,58.8,30.25,NE,54,0.0,3.0,97,0.00,,---,0.00,0.00,VWS V14.01,2012-12-02 11:37:00,
2012-12-02 06:38:00,59.7,58.8,30.25,NE,43,0.0,3.0,97,0.00,,---,0.00,0.00,VWS V14.01,2012-12-02 11:38:00,
2012-12-02 06:39:00,59.7,58.8,30.25,NE,43,0.0,3.0,97,0.00,,---,0.00,0.00,VWS V14.01,2012-12-02 11:39:00,
2012-12-02 06:40:00,59.7,58.8,30.25,ENE,68,0.0,3.0,97,0.00,,---,0.00,0.00,VWS V14.01,2012-12-02 11:40:00,
2012-12-02 06:41:00,59.7,58.8,30.25,NE,54,2.0,3.0,97,0.00,,---,0.00,0.00,VWS V14.01,2012-12-02 11:41:00,
2012-12-02 06:42:00,59.6,58.8,30.25,ENE,70,0.0,3.0,97,0.00,,---,0.00,0.00,VWS V14.01,2012-12-02 11:42:00,
2012-12-02 06:43:00,59.6,58.8,30.25,NE,48,0.0,3.0,97,0.00,,---,0.00,0.00,VWS V14.01,2012-12-02 11:43:00,
2012-12-02 06:44:00,59.6,58.8,30.25,NE,50,0.0,3.0,97,0.00,,---,0.00,0.00,VWS V14.01,2012-12-02 11:44:00,
2012-12-02 06:45:00,59.6,58.8,30.25,NE,52,0.0,3.0,97,0.00,,---,0.00,0.00,VWS V14.01,2012-12-02 11:45:00,
2012-12-02 06:46:00,59.6,58.8,30.25,NE,46,0.0,3.0,97,0.00,,---,0.00,0.00,VWS V14.01,2012-12-02 11:46:00,
2012-12-02 06:47:00,59.6,58.8,30.25,NE,46,0.0,3.0,97,0.00,,---,0.00,0.00,VWS V14.01,2012-12-02 11:47:00,
2012-12-02 06:48:00,59.6,58.8,30.25,NE,46,0.0,3.0,97,0.00,,---,0.00,0.00,VWS V14.01,2012-12-02 11:48:00,
2012-12-02 06:49:00,59.7,58.8,30.25,NE,46,0.0,3.0,97,0.00,,---,0.00,0.00,VWS V14.01,2012-12-02 11:49:00,
2012-12-02 06:50:00,59.6,58.8,30.26,NE,46,0.0,3.0,97,0.00,,---,0.00,0.00,VWS V14.01,2012-12-02 11:50:00,
2012-12-02 06:51:00,59.6,58.8,30.26,NE,46,0.0,3.0,97,0.00,,---,0.00,0.00,VWS V14.01,2012-12-02 11:51:00,
2012-12-02 06:52:00,59.7,58.8,30.26,NE,46,0.0,3.0,97,0.00,,---,0.00,0.00,VWS V14.01,2012-12-02 11:52:00,
2012-12-02 06:53:00,59.7,58.8,30.26,NE,46,0.0,3.0,97,0.00,,---,0.00,0.00,VWS V14.01,2012-12-02 11:53:00,
2012-12-02 06:54:00,59.6,58.8,30.26,NE,46,1.0,3.0,97,0.00,,---,0.00,0.00,VWS V14.01,2012-12-02 11:54:00,
2012-12-02 06:55:00,59.6,58.8,30.26,ENE,58,0.0,3.0,97,0.00,,---,0.00,0.00,VWS V14.01,2012-12-02 11:55:00,
2012-12-02 06:56:00,59.6,58.8,30.26,ENE,58,0.0,3.0,97,0.00,,---,0.00,0.00,VWS V14.01,2012-12-02 11:56:00,
2012-12-02 06:57:00,59.6,58.8,30.26,ENE,75,0.0,3.0,97,0.00,,---,0.00,5.00,VWS V14.01,2012-12-02 11:57:00,
2012-12-02 06:58:00,59.6,58.8,30.26,ENE,75,0.0,3.0,97,0.00,,---,0.00,5.00,VWS V14.01,2012-12-02 11:58:00,
2012-12-02 06:59:00,59.6,58.8,30.26,ENE,64,1.0,3.0,97,0.00,,---,0.00,5.00,VWS V14.01,2012-12-02 11:59:00,
2012-12-02 07:00:00,59.6,58.8,30.26,ENE,72,0.0,3.0,97,0.00,,---,0.00,7.00,VWS V14.01,2012-12-02 12:00:00,
2012-12-02 07:01:00,59.7,58.8,30.26,ENE,72,0.0,0.0,97,0.00,,---,0.00,9.00,VWS V14.01,2012-12-02 12:01:00,
2012-12-02 07:02:00,59.7,58.8,30.26,ENE,72,0.0,0.0,97,0.00,,---,0.00,9.00,VWS V14.01,2012-12-02 12:02:00,
2012-12-02 07:03:00,59.7,58.8,30.26,ENE,72,0.0,0.0,97,0.00,,---,0.00,11.00,VWS V14.01,2012-12-02 12:03:00,
2012-12-02 07:04:00,59.7,58.8,30.26,NE,52,0.0,1.0,97,0.00,,---,0.00,11.00,VWS V14.01,2012-12-02 12:04:00,
2012-12-02 07:05:00,59.7,58.8,30.26,NE,45,0.0,1.0,97,0.00,,---,0.00,12.00,VWS V14.01,2012-12-02 12:05:00,
2012-12-02 07:06:00,59.8,59.0,30.26,NE,45,0.0,1.0,97,0.00,,---,0.00,12.00,VWS V14.01,2012-12-02 12:06:00,
2012-12-02 07:07:00,59.8,59.0,30.26,NE,45,0.0,1.0,97,0.00,,---,0.00,12.00,VWS V14.01,2012-12-02 12:07:00,
2012-12-02 07:08:00,59.8,59.0,30.26,NE,56,0.0,1.0,97,0.00,,---,0.00,14.00,VWS V14.01,2012-12-02 12:08:00,
2012-12-02 07:09:00,59.8,59.0,30.26,NE,56,0.0,1.0,97,0.00,,---,0.00,16.00,VWS V14.01,2012-12-02 12:09:00,
2012-12-02 07:10:00,59.8,59.0,30.26,NE,56,0.0,1.0,97,0.00,,---,0.00,16.00,VWS V14.01,2012-12-02 12:10:00,
2012-12-02 07:11:00,59.8,59.0,30.26,NE,56,0.0,1.0,97,0.00,,---,0.00,16.00,VWS V14.01,2012-12-02 12:11:00,
2012-12-02 07:12:00,59.8,59.0,30.26,NE,52,2.0,2.0,97,0.00,,---,0.00,21.00,VWS V14.01,2012-12-02 12:12:00,
2012-12-02 07:13:00,59.8,59.0,30.26,ENE,58,0.0,2.0,97,0.00,,---,0.00,21.00,VWS V14.01,2012-12-02 12:13:00,
2012-12-02 07:14:00,59.9,59.0,30.26,ENE,63,1.0,2.0,97,0.00,,---,0.00,23.00,VWS V14.01,2012-12-02 12:14:00,
2012-12-02 07:15:00,59.9,59.0,30.26,ENE,75,0.0,2.0,97,0.00,,---,0.00,25.00,VWS V14.01,2012-12-02 12:15:00,
2012-12-02 07:16:00,59.9,59.0,30.26,ENE,60,0.0,2.0,97,0.00,,---,0.00,25.00,VWS V14.01,2012-12-02 12:16:00,
2012-12-02 07:17:00,59.9,59.0,30.26,NE,56,0.0,2.0,97,0.00,,---,0.00,25.00,VWS V14.01,2012-12-02 12:17:00,
2012-12-02 07:18:00,60.0,59.2,30.26,ENE,62,0.0,2.0,97,0.00,,---,0.00,25.00,VWS V14.01,2012-12-02 12:18:00,
2012-12-02 07:19:00,60.0,59.2,30.26,ENE,57,0.0,2.0,97,0.00,,---,0.00,28.00,VWS V14.01,2012-12-02 12:19:00,
2012-12-02 07:20:00,60.1,59.2,30.26,NE,49,0.0,2.0,97,0.00,,---,0.00,30.00,VWS V14.01,2012-12-02 12:20:00,
2012-12-02 07:21:00,60.1,59.2,30.26,East,81,1.0,2.0,97,0.00,,---,0.00,30.00,VWS V14.01,2012-12-02 12:21:00,
2012-12-02 07:22:00,60.1,59.2,30.26,ENE,69,1.0,2.0,97,0.00,,---,0.00,33.00,VWS V14.01,2012-12-02 12:22:00,
2012-12-02 07:23:00,60.1,59.2,30.26,ENE,57,0.0,2.0,97,0.00,,---,0.00,33.00,VWS V14.01,2012-12-02 12:23:00,
2012-12-02 07:24:00,60.2,59.3,30.26,NE,56,0.0,2.0,97,0.00,,---,0.00,37.00,VWS V14.01,2012-12-02 12:24:00,
2012-12-02 07:25:00,60.2,59.3,30.26,NE,56,0.0,2.0,97,0.00,,---,0.00,42.00,VWS V14.01,2012-12-02 12:25:00,
2012-12-02 07:26:00,60.3,59.5,30.26,ENE,57,0.0,2.0,97,0.00,,---,0.00,44.00,VWS V14.01,2012-12-02 12:26:00,
2012-12-02 07:27:00,60.3,59.5,30.26,NE,41,0.0,2.0,97,0.00,,---,0.00,42.00,VWS V14.01,2012-12-02 12:27:00,
2012-12-02 07:28:00,60.4,59.5,30.26,NE,47,0.0,2.0,97,0.00,,---,0.00,42.00,VWS V14.01,2012-12-02 12:28:00,
2012-12-02 07:29:00,60.4,59.5,30.27,SE,128,1.0,2.0,97,0.00,,---,0.00,42.00,VWS V14.01,2012-12-02 12:29:00,
2012-12-02 07:30:00,60.4,59.5,30.26,ESE,114,0.0,2.0,97,0.00,,---,0.00,54.00,VWS V14.01,2012-12-02 12:30:00,
2012-12-02 07:31:00,60.5,59.7,30.26,East,92,0.0,2.0,97,0.00,,---,0.00,56.00,VWS V14.01,2012-12-02 12:31:00,
2012-12-02 07:32:00,60.5,59.7,30.26,ESE,105,1.0,2.0,97,0.00,,---,0.00,58.00,VWS V14.01,2012-12-02 12:32:00,
2012-12-02 07:33:00,60.5,59.7,30.26,ESE,104,1.0,2.0,97,0.00,,---,0.00,58.00,VWS V14.01,2012-12-02 12:33:00,
2012-12-02 07:34:00,60.6,59.8,30.26,ESE,104,0.0,2.0,97,0.00,,---,0.00,69.00,VWS V14.01,2012-12-02 12:34:00,
2012-12-02 07:35:00,60.6,59.8,30.26,ESE,106,0.0,2.0,97,0.00,,---,0.00,72.00,VWS V14.01,2012-12-02 12:35:00,
2012-12-02 07:36:00,60.7,59.8,30.26,ESE,106,0.0,2.0,97,0.00,,---,0.00,77.00,VWS V14.01,2012-12-02 12:36:00,
2012-12-02 07:37:00,60.8,60.0,30.26,ENE,70,0.0,2.0,97,0.00,,---,0.00,77.00,VWS V14.01,2012-12-02 12:37:00,
2012-12-02 07:38:00,60.8,60.0,30.26,NE,56,0.0,2.0,97,0.00,,---,0.00,69.00,VWS V14.01,2012-12-02 12:38:00,
2012-12-02 07:39:00,60.9,60.0,30.26,NE,37,0.0,2.0,97,0.00,,---,0.00,63.00,VWS V14.01,2012-12-02 12:39:00,
2012-12-02 07:40:00,61.0,60.2,30.27,NE,47,1.0,2.0,97,0.00,,---,0.00,58.00,VWS V14.01,2012-12-02 12:40:00,
2012-12-02 07:41:00,61.0,60.2,30.26,NE,47,0.0,2.0,97,0.00,,---,0.00,62.00,VWS V14.01,2012-12-02 12:41:00,
2012-12-02 07:42:00,61.1,60.2,30.26,NE,47,0.0,2.0,97,0.00,,---,0.00,62.00,VWS V14.01,2012-12-02 12:42:00,
2012-12-02 07:43:00,61.1,60.2,30.27,NE,47,0.0,2.0,97,0.00,,---,0.00,62.00,VWS V14.01,2012-12-02 12:43:00,
2012-12-02 07:44:00,61.2,60.3,30.26,ENE,76,0.0,2.0,97,0.00,,---,0.00,67.00,VWS V14.01,2012-12-02 12:44:00,
2012-12-02 07:45:00,61.2,60.3,30.27,ENE,76,0.0,2.0,97,0.00,,---,0.00,56.00,VWS V14.01,2012-12-02 12:45:00,
2012-12-02 07:46:00,61.3,60.4,30.26,ENE,75,1.0,2.0,97,0.00,,---,0.00,47.00,VWS V14.01,2012-12-02 12:46:00,
2012-12-02 07:47:00,61.3,60.4,30.26,East,85,0.0,2.0,97,0.00,,---,0.00,46.00,VWS V14.01,2012-12-02 12:47:00,
2012-12-02 07:48:00,61.4,60.2,30.26,East,85,0.0,2.0,96,0.00,,---,0.00,42.00,VWS V14.01,2012-12-02 12:48:00,
2012-12-02 07:49:00,61.4,60.2,30.27,ENE,58,3.0,3.0,96,0.00,,---,0.00,53.00,VWS V14.01,2012-12-02 12:49:00,
2012-12-02 07:50:00,61.4,60.2,30.27,ENE,62,0.0,3.0,96,0.00,,---,0.00,56.00,VWS V14.01,2012-12-02 12:50:00,
2012-12-02 07:51:00,61.5,60.3,30.27,ENE,70,3.0,3.0,96,0.00,,---,0.00,56.00,VWS V14.01,2012-12-02 12:51:00,
2012-12-02 07:52:00,61.6,60.5,30.27,ENE,64,0.0,3.0,96,0.00,,---,0.00,56.00,VWS V14.01,2012-12-02 12:52:00,
2012-12-02 07:53:00,61.6,60.5,30.27,NNE,19,0.0,3.0,96,0.00,,---,0.00,54.00,VWS V14.01,2012-12-02 12:53:00,
2012-12-02 07:54:00,61.7,60.5,30.27,NE,48,1.0,3.0,96,0.00,,---,0.00,54.00,VWS V14.01,2012-12-02 12:54:00,
2012-12-02 07:55:00,61.7,60.5,30.27,NE,48,0.0,3.0,96,0.00,,---,0.00,44.00,VWS V14.01,2012-12-02 12:55:00,
2012-12-02 07:56:00,61.9,60.8,30.27,East,93,3.0,3.0,96,0.00,,---,0.00,39.00,VWS V14.01,2012-12-02 12:56:00,
2012-12-02 07:57:00,61.9,60.8,30.27,ENE,58,2.0,3.0,96,0.00,,---,0.00,39.00,VWS V14.01,2012-12-02 12:57:00,
2012-12-02 07:58:00,62.0,60.6,30.27,ENE,65,3.0,6.0,95,0.00,,---,0.00,40.00,VWS V14.01,2012-12-02 12:58:00,
2012-12-02 07:59:00,62.0,60.6,30.27,East,82,3.0,6.0,95,0.00,,---,0.00,40.00,VWS V14.01,2012-12-02 12:59:00,
2012-12-02 08:00:00,62.1,60.7,30.27,ENE,64,2.0,6.0,95,0.00,,---,0.00,46.00,VWS V14.01,2012-12-02 13:00:00,
2012-12-02 08:01:00,62.1,60.7,30.27,ENE,70,0.0,3.0,95,0.00,,---,0.00,72.00,VWS V14.01,2012-12-02 13:01:00,
2012-12-02 08:02:00,62.3,60.8,30.27,ENE,73,1.0,3.0,95,0.00,,---,0.00,76.00,VWS V14.01,2012-12-02 13:02:00,
2012-12-02 08:03:00,62.4,61.0,30.27,East,92,0.0,3.0,95,0.00,,---,0.00,76.00,VWS V14.01,2012-12-02 13:03:00,
2012-12-02 08:04:00,62.5,61.0,30.27,North,356,0.0,3.0,95,0.00,,---,0.00,77.00,VWS V14.01,2012-12-02 13:04:00,
2012-12-02 08:05:00,62.6,61.2,30.27,NNE,29,0.0,3.0,95,0.00,,---,0.00,104.00,VWS V14.01,2012-12-02 13:05:00,
2012-12-02 08:06:00,62.6,60.8,30.27,East,81,0.0,3.0,94,0.00,,---,0.00,118.00,VWS V14.01,2012-12-02 13:06:00,
2012-12-02 08:07:00,62.7,61.0,30.27,East,100,1.0,3.0,94,0.00,,---,0.00,118.00,VWS V14.01,2012-12-02 13:07:00,
2012-12-02 08:08:00,62.8,61.0,30.27,ENE,71,1.0,3.0,94,0.00,,---,0.00,118.00,VWS V14.01,2012-12-02 13:08:00,
2012-12-02 08:09:00,62.9,61.2,30.27,ENE,67,2.0,5.0,94,0.00,,---,0.00,58.00,VWS V14.01,2012-12-02 13:09:00,
2012-12-02 08:10:00,63.0,61.2,30.27,ESE,107,3.0,5.0,94,0.00,,---,0.00,56.00,VWS V14.01,2012-12-02 13:10:00,
2012-12-02 08:11:00,63.1,61.0,30.27,ENE,78,0.0,5.0,93,0.00,,---,0.00,54.00,VWS V14.01,2012-12-02 13:11:00,
2012-12-02 08:12:00,63.2,61.2,30.27,SE,137,2.0,5.0,93,0.00,,---,0.00,54.00,VWS V14.01,2012-12-02 13:12:00,
2012-12-02 08:13:00,63.2,61.2,30.27,ESE,106,0.0,5.0,93,0.00,,---,0.00,54.00,VWS V14.01,2012-12-02 13:13:00,
2012-12-02 08:14:00,63.4,61.3,30.27,East,89,0.0,5.0,93,0.00,,---,0.00,105.00,VWS V14.01,2012-12-02 13:14:00,
2012-12-02 08:15:00,63.4,61.3,30.27,ENE,72,2.0,5.0,93,0.00,,---,0.00,102.00,VWS V14.01,2012-12-02 13:15:00,
2012-12-02 08:16:00,63.4,61.3,30.27,ENE,71,3.0,5.0,93,0.00,,---,0.00,81.00,VWS V14.01,2012-12-02 13:16:00,
2012-12-02 08:17:00,63.5,61.4,30.27,ENE,57,4.0,5.0,93,0.00,,---,0.00,90.00,VWS V14.01,2012-12-02 13:17:00,
2012-12-02 08:18:00,63.6,61.2,30.27,East,100,7.0,7.0,92,0.00,,---,0.00,77.00,VWS V14.01,2012-12-02 13:18:00,
2012-12-02 08:19:00,63.6,61.2,30.27,ENE,67,2.0,7.0,92,0.00,,---,0.00,79.00,VWS V14.01,2012-12-02 13:19:00,
2012-12-02 08:20:00,63.7,61.3,30.27,ENE,70,1.0,7.0,92,0.00,,---,0.00,76.00,VWS V14.01,2012-12-02 13:20:00,
2012-12-02 08:21:00,63.7,61.3,30.27,East,97,2.0,7.0,92,0.00,,---,0.00,54.00,VWS V14.01,2012-12-02 13:21:00,
2012-12-02 08:22:00,63.7,61.3,30.27,ESE,104,3.0,7.0,92,0.00,,---,0.00,49.00,VWS V14.01,2012-12-02 13:22:00,
2012-12-02 08:23:00,63.7,61.3,30.27,ESE,112,0.0,7.0,92,0.00,,---,0.00,49.00,VWS V14.01,2012-12-02 13:23:00,
2012-12-02 08:24:00,63.8,61.4,30.27,East,79,4.0,7.0,92,0.00,,---,0.00,49.00,VWS V14.01,2012-12-02 13:24:00,
2012-12-02 08:25:00,63.9,61.2,30.27,East,91,4.0,7.0,91,0.00,,---,0.00,49.00,VWS V14.01,2012-12-02 13:25:00,
2012-12-02 08:26:00,64.0,61.3,30.27,NE,45,1.0,7.0,91,0.00,,---,0.00,49.00,VWS V14.01,2012-12-02 13:26:00,
2012-12-02 08:27:00,64.0,61.3,30.27,ENE,61,1.0,7.0,91,0.00,,---,0.00,74.00,VWS V14.01,2012-12-02 13:27:00,
2012-12-02 08:28:00,64.1,61.4,30.27,NE,51,2.0,8.0,91,0.00,,---,0.00,88.00,VWS V14.01,2012-12-02 13:28:00,
2012-12-02 08:29:00,64.3,61.6,30.27,East,100,2.0,8.0,91,0.00,,---,0.00,60.00,VWS V14.01,2012-12-02 13:29:00,
2012-12-02 08:30:00,64.4,61.7,30.28,East,97,3.0,8.0,91,0.00,,---,0.00,60.00,VWS V14.01,2012-12-02 13:30:00,
2012-12-02 08:31:00,64.5,61.8,30.28,East,84,8.0,8.0,91,0.00,,---,0.00,51.00,VWS V14.01,2012-12-02 13:31:00,
2012-12-02 08:32:00,64.5,61.5,30.28,ESE,106,4.0,8.0,90,0.00,,---,0.00,51.00,VWS V14.01,2012-12-02 13:32:00,
2012-12-02 08:33:00,64.6,61.6,30.27,ENE,72,6.0,8.0,90,0.00,,---,0.00,49.00,VWS V14.01,2012-12-02 13:33:00,
2012-12-02 08:34:00,64.7,61.7,30.27,ENE,63,0.0,8.0,90,0.00,,---,0.00,49.00,VWS V14.01,2012-12-02 13:34:00,
2012-12-02 08:35:00,64.7,61.7,30.28,ENE,62,1.0,8.0,90,0.00,,---,0.00,49.00,VWS V14.01,2012-12-02 13:35:00,
2012-12-02 08:36:00,64.9,61.9,30.28,ESE,114,4.0,8.0,90,0.00,,---,0.00,54.00,VWS V14.01,2012-12-02 13:36:00,
2012-12-02 08:37:00,64.9,61.9,30.28,ENE,58,0.0,8.0,90,0.00,,---,0.00,74.00,VWS V14.01,2012-12-02 13:37:00,
2012-12-02 08:38:00,65.0,62.0,30.28,ENE,77,4.0,8.0,90,0.00,,---,0.00,74.00,VWS V14.01,2012-12-02 13:38:00,
2012-12-02 08:39:00,65.1,62.1,30.28,East,96,8.0,8.0,90,0.00,,---,0.00,70.00,VWS V14.01,2012-12-02 13:39:00,
2012-12-02 08:40:00,65.2,61.9,30.28,ENE,64,2.0,8.0,89,0.00,,---,0.00,62.00,VWS V14.01,2012-12-02 13:40:00,
2012-12-02 08:41:00,65.3,62.3,30.28,East,92,2.0,8.0,90,0.00,,---,0.00,58.00,VWS V14.01,2012-12-02 13:41:00,
2012-12-02 08:42:00,65.4,62.4,30.28,ESE,105,3.0,8.0,90,0.00,,---,0.00,83.00,VWS V14.01,2012-12-02 13:42:00,
2012-12-02 08:43:00,65.5,62.2,30.28,ESE,110,3.0,8.0,89,0.00,,---,0.00,91.00,VWS V14.01,2012-12-02 13:43:00,
2012-12-02 08:44:00,65.6,62.3,30.28,East,89,2.0,8.0,89,0.00,,---,0.00,91.00,VWS V14.01,2012-12-02 13:44:00,
2012-12-02 08:45:00,65.7,62.4,30.28,NE,36,0.0,8.0,89,0.00,,---,0.00,91.00,VWS V14.01,2012-12-02 13:45:00,
2012-12-02 08:46:00,65.8,62.5,30.28,NE,37,1.0,8.0,89,0.00,,---,0.00,81.00,VWS V14.01,2012-12-02 13:46:00,
2012-12-02 08:47:00,65.9,62.6,30.28,NE,37,1.0,8.0,89,0.00,,---,0.00,81.00,VWS V14.01,2012-12-02 13:47:00,
2012-12-02 08:48:00,66.0,62.7,30.28,ENE,76,5.0,8.0,89,0.00,,---,0.00,81.00,VWS V14.01,2012-12-02 13:48:00,
2012-12-02 08:49:00,66.0,62.3,30.29,ESE,117,2.0,8.0,88,0.00,,---,0.00,81.00,VWS V14.01,2012-12-02 13:49:00,
2012-12-02 08:50:00,66.1,62.5,30.29,ESE,114,3.0,8.0,88,0.00,,---,0.00,65.00,VWS V14.01,2012-12-02 13:50:00,
2012-12-02 08:51:00,66.1,62.5,30.29,East,82,4.0,8.0,88,0.00,,---,0.00,67.00,VWS V14.01,2012-12-02 13:51:00,
2012-12-02 08:52:00,66.2,62.2,30.29,SE,129,5.0,8.0,87,0.00,,---,0.00,67.00,VWS V14.01,2012-12-02 13:52:00,
2012-12-02 08:53:00,66.3,62.3,30.29,East,91,5.0,8.0,87,0.00,,---,0.00,63.00,VWS V14.01,2012-12-02 13:53:00,
2012-12-02 08:54:00,66.3,62.3,30.29,ESE,114,0.0,8.0,87,0.00,,---,0.00,63.00,VWS V14.01,2012-12-02 13:54:00,
2012-12-02 08:55:00,66.5,62.8,30.28,East,84,3.0,8.0,88,0.00,,---,0.00,63.00,VWS V14.01,2012-12-02 13:55:00,
2012-12-02 08:56:00,66.6,62.6,30.28,East,95,3.0,8.0,87,0.00,,---,0.00,63.00,VWS V14.01,2012-12-02 13:56:00,
2012-12-02 08:57:00,66.7,62.7,30.28,ESE,115,6.0,8.0,87,0.00,,---,0.00,63.00,VWS V14.01,2012-12-02 13:57:00,
2012-12-02 08:58:00,66.7,62.7,30.29,East,91,3.0,8.0,87,0.00,,---,0.00,79.00,VWS V14.01,2012-12-02 13:58:00,
2012-12-02 08:59:00,66.8,62.5,30.29,East,83,2.0,8.0,86,0.00,,---,0.00,98.00,VWS V14.01,2012-12-02 13:59:00,
2012-12-02 09:00:00,67.0,62.7,30.29,NE,41,1.0,8.0,86,0.00,,---,0.00,146.00,VWS V14.01,2012-12-02 14:00:00,
2012-12-02 09:01:00,67.1,62.8,30.29,East,93,3.0,4.0,86,0.00,,---,0.00,176.00,VWS V14.01,2012-12-02 14:01:00,
2012-12-02 09:02:00,67.2,62.9,30.29,East,91,3.0,4.0,86,0.00,,---,0.00,176.00,VWS V14.01,2012-12-02 14:02:00,
2012-12-02 09:03:00,67.3,63.0,30.29,ESE,108,0.0,4.0,86,0.00,,---,0.00,114.00,VWS V14.01,2012-12-02 14:03:00,
2012-12-02 09:04:00,67.4,62.7,30.29,East,79,0.0,4.0,85,0.00,,---,0.00,105.00,VWS V14.01,2012-12-02 14:04:00,
2012-12-02 09:05:00,67.6,63.3,30.29,ENE,73,1.0,4.0,86,0.00,,---,0.00,176.00,VWS V14.01,2012-12-02 14:05:00,
2012-12-02 09:06:00,67.7,63.4,30.29,East,91,1.0,6.0,86,0.00,,---,0.00,171.00,VWS V14.01,2012-12-02 14:06:00,
2012-12-02 09:07:00,67.7,63.4,30.29,North,353,3.0,6.0,86,0.00,,---,0.00,160.00,VWS V14.01,2012-12-02 14:07:00,
2012-12-02 09:08:00,67.9,63.2,30.29,East,91,2.0,6.0,85,0.00,,---,0.00,199.00,VWS V14.01,2012-12-02 14:08:00,
2012-12-02 09:09:00,68.0,63.3,30.29,East,90,1.0,6.0,85,0.00,,---,0.00,272.00,VWS V14.01,2012-12-02 14:09:00,
2012-12-02 09:10:00,68.1,63.4,30.29,East,97,3.0,6.0,85,0.00,,---,0.00,308.00,VWS V14.01,2012-12-02 14:10:00,
2012-12-02 09:11:00,68.1,63.4,30.29,SE,135,3.0,6.0,85,0.00,,---,0.00,325.00,VWS V14.01,2012-12-02 14:11:00,
2012-12-02 09:12:00,68.2,63.2,30.29,ENE,58,3.0,6.0,84,0.00,,---,0.00,299.00,VWS V14.01,2012-12-02 14:12:00,
2012-12-02 09:13:00,68.2,63.2,30.29,ENE,77,2.0,6.0,84,0.00,,---,0.00,297.00,VWS V14.01,2012-12-02 14:13:00,
2012-12-02 09:14:00,68.4,63.4,30.29,North,351,2.0,6.0,84,0.00,,---,0.00,332.00,VWS V14.01,2012-12-02 14:14:00,
2012-12-02 09:15:00,68.5,63.5,30.29,NE,35,0.0,6.0,84,0.00,,---,0.00,332.00,VWS V14.01,2012-12-02 14:15:00,
2012-12-02 09:16:00,68.6,63.6,30.29,NNE,12,1.0,6.0,84,0.00,,---,0.00,100.00,VWS V14.01,2012-12-02 14:16:00,
2012-12-02 09:17:00,68.7,63.7,30.29,East,87,2.0,6.0,84,0.00,,---,0.00,139.00,VWS V14.01,2012-12-02 14:17:00,
2012-12-02 09:18:00,68.9,63.5,30.29,ESE,116,0.0,6.0,83,0.00,,---,0.00,139.00,VWS V14.01,2012-12-02 14:18:00,
2012-12-02 09:19:00,68.9,63.5,30.29,NW,319,0.0,6.0,83,0.00,,---,0.00,186.00,VWS V14.01,2012-12-02 14:19:00,
2012-12-02 09:20:00,69.1,64.1,30.29,East,82,5.0,6.0,84,0.00,,---,0.00,251.00,VWS V14.01,2012-12-02 14:20:00,
2012-12-02 09:21:00,69.3,63.9,30.29,ESE,109,3.0,6.0,83,0.00,,---,0.00,279.00,VWS V14.01,2012-12-02 14:21:00,
2012-12-02 09:22:00,69.3,63.9,30.29,East,83,4.0,6.0,83,0.00,,---,0.00,279.00,VWS V14.01,2012-12-02 14:22:00,
2012-12-02 09:23:00,69.4,64.0,30.29,NE,55,0.0,6.0,83,0.00,,---,0.00,195.00,VWS V14.01,2012-12-02 14:23:00,
2012-12-02 09:24:00,69.5,63.8,30.29,ESE,105,4.0,6.0,82,0.00,,---,0.00,195.00,VWS V14.01,2012-12-02 14:24:00,
2012-12-02 09:25:00,69.6,64.2,30.29,ESE,118,0.0,6.0,83,0.00,,---,0.00,304.00,VWS V14.01,2012-12-02 14:25:00,
2012-12-02 09:26:00,69.7,64.3,30.29,ENE,71,5.0,6.0,83,0.00,,---,0.00,374.00,VWS V14.01,2012-12-02 14:26:00,
2012-12-02 09:27:00,69.8,64.1,30.29,ESE,114,0.0,6.0,82,0.00,,---,0.00,330.00,VWS V14.01,2012-12-02 14:27:00,
2012-12-02 09:28:00,69.9,64.2,30.29,NE,43,1.0,6.0,82,0.00,,---,0.00,394.00,VWS V14.01,2012-12-02 14:28:00,
2012-12-02 09:29:00,70.1,64.4,30.29,East,86,1.0,6.0,82,0.00,,---,0.00,425.00,VWS V14.01,2012-12-02 14:29:00,
2012-12-02 09:30:00,70.2,64.1,30.29,East,91,1.0,6.0,81,0.00,,---,0.00,427.00,VWS V14.01,2012-12-02 14:30:00,
2012-12-02 09:31:00,70.4,64.7,30.29,ENE,73,0.0,6.0,82,0.00,,---,0.00,431.00,VWS V14.01,2012-12-02 14:31:00,
2012-12-02 09:32:00,70.5,64.4,30.29,East,85,0.0,6.0,81,0.00,,---,0.00,431.00,VWS V14.01,2012-12-02 14:32:00,
2012-12-02 09:33:00,70.6,64.5,30.29,ENE,64,3.0,6.0,81,0.00,,---,0.00,439.00,VWS V14.01,2012-12-02 14:33:00,
2012-12-02 09:34:00,70.7,64.2,30.29,ESE,110,2.0,6.0,80,0.00,,---,0.00,441.00,VWS V14.01,2012-12-02 14:34:00,
2012-12-02 09:35:00,70.9,64.4,30.29,ESE,116,0.0,6.0,80,0.00,,---,0.00,441.00,VWS V14.01,2012-12-02 14:35:00,
2012-12-02 09:36:00,71.0,64.9,30.29,East,83,0.0,6.0,81,0.00,,---,0.00,446.00,VWS V14.01,2012-12-02 14:36:00,
2012-12-02 09:37:00,71.1,64.6,30.29,SSE,163,2.0,6.0,80,0.00,,---,0.00,448.00,VWS V14.01,2012-12-02 14:37:00,
2012-12-02 09:38:00,71.2,64.4,30.29,NE,53,3.0,6.0,79,0.00,,---,0.00,450.00,VWS V14.01,2012-12-02 14:38:00,
2012-12-02 09:39:00,71.3,64.5,30.29,East,79,2.0,6.0,79,0.00,,---,0.00,450.00,VWS V14.01,2012-12-02 14:39:00,
2012-12-02 09:40:00,71.4,64.6,30.29,East,91,2.0,6.0,79,0.00,,---,0.00,450.00,VWS V14.01,2012-12-02 14:40:00,
2012-12-02 09:41:00,71.5,64.7,30.29,ENE,72,2.0,6.0,79,0.00,,---,0.00,461.00,VWS V14.01,2012-12-02 14:41:00,
2012-12-02 09:42:00,71.6,64.4,30.29,NNE,16,0.0,6.0,78,0.00,,---,0.00,438.00,VWS V14.01,2012-12-02 14:42:00,
2012-12-02 09:43:00,71.6,64.4,30.29,ENE,75,3.0,6.0,78,0.00,,---,0.00,441.00,VWS V14.01,2012-12-02 14:43:00,
2012-12-02 09:44:00,71.7,64.5,30.29,East,80,1.0,6.0,78,0.00,,---,0.00,446.00,VWS V14.01,2012-12-02 14:44:00,
2012-12-02 09:45:00,71.7,64.5,30.29,ESE,106,1.0,6.0,78,0.00,,---,0.00,445.00,VWS V14.01,2012-12-02 14:45:00,
2012-12-02 09:46:00,71.8,64.6,30.29,NNE,21,1.0,6.0,78,0.00,,---,0.00,471.00,VWS V14.01,2012-12-02 14:46:00,
2012-12-02 09:47:00,71.9,64.7,30.29,ESE,105,1.0,6.0,78,0.00,,---,0.00,471.00,VWS V14.01,2012-12-02 14:47:00,
2012-12-02 09:48:00,72.0,64.8,30.29,ENE,71,2.0,6.0,78,0.00,,---,0.00,346.00,VWS V14.01,2012-12-02 14:48:00,
2012-12-02 09:49:00,72.2,64.6,30.29,ENE,64,3.0,6.0,77,0.00,,---,0.00,387.00,VWS V14.01,2012-12-02 14:49:00,
2012-12-02 09:50:00,72.2,64.2,30.28,East,100,3.0,6.0,76,0.00,,---,0.00,371.00,VWS V14.01,2012-12-02 14:50:00,
2012-12-02 09:51:00,72.3,64.3,30.29,SE,139,3.0,7.0,76,0.00,,---,0.00,408.00,VWS V14.01,2012-12-02 14:51:00,
2012-12-02 09:52:00,72.3,64.3,30.29,East,86,3.0,7.0,76,0.00,,---,0.00,457.00,VWS V14.01,2012-12-02 14:52:00,
2012-12-02 09:53:00,72.4,64.4,30.29,NE,56,5.0,7.0,76,0.00,,---,0.00,457.00,VWS V14.01,2012-12-02 14:53:00,
2012-12-02 09:54:00,72.4,64.4,30.29,ESE,113,5.0,9.0,76,0.00,,---,0.00,492.00,VWS V14.01,2012-12-02 14:54:00,
2012-12-02 09:55:00,72.5,64.1,30.29,ENE,74,3.0,9.0,75,0.00,,---,0.00,492.00,VWS V14.01,2012-12-02 14:55:00,
2012-12-02 09:56:00,72.5,64.5,30.29,East,82,5.0,9.0,76,0.00,,---,0.00,496.00,VWS V14.01,2012-12-02 14:56:00,
2012-12-02 09:57:00,72.6,64.6,30.29,ESE,108,1.0,9.0,76,0.00,,---,0.00,497.00,VWS V14.01,2012-12-02 14:57:00,
2012-12-02 09:58:00,72.6,64.2,30.29,East,91,0.0,9.0,75,0.00,,---,0.00,501.00,VWS V14.01,2012-12-02 14:58:00,
2012-12-02 09:59:00,72.8,64.4,30.29,SSE,148,0.0,9.0,75,0.00,,---,0.00,501.00,VWS V14.01,2012-12-02 14:59:00,
2012-12-02 10:00:00,73.0,65.0,30.29,ENE,68,2.0,9.0,76,0.00,,---,0.00,501.00,VWS V14.01,2012-12-02 15:00:00,
2012-12-02 10:01:00,73.2,64.4,30.29,East,93,4.0,7.0,74,0.00,,---,0.00,508.00,VWS V14.01,2012-12-02 15:01:00,
2012-12-02 10:02:00,73.2,64.4,30.29,ESE,102,6.0,7.0,74,0.00,,---,0.00,508.00,VWS V14.01,2012-12-02 15:02:00,
2012-12-02 10:03:00,73.3,64.1,30.29,NNW,344,3.0,7.0,73,0.00,,---,0.00,510.00,VWS V14.01,2012-12-02 15:03:00,
2012-12-02 10:04:00,73.3,64.5,30.29,ESE,116,5.0,7.0,74,0.00,,---,0.00,513.00,VWS V14.01,2012-12-02 15:04:00,
2012-12-02 10:05:00,73.5,64.7,30.29,East,81,9.0,9.0,74,0.00,,---,0.00,513.00,VWS V14.01,2012-12-02 15:05:00,
2012-12-02 10:06:00,73.6,64.8,30.29,ENE,64,2.0,9.0,74,0.00,,---,0.00,513.00,VWS V14.01,2012-12-02 15:06:00,
2012-12-02 10:07:00,73.7,64.9,30.28,East,85,2.0,9.0,74,0.00,,---,0.00,520.00,VWS V14.01,2012-12-02 15:07:00,
2012-12-02 10:08:00,73.8,64.6,30.28,NE,56,2.0,9.0,73,0.00,,---,0.00,524.00,VWS V14.01,2012-12-02 15:08:00,
2012-12-02 10:09:00,73.9,64.7,30.28,East,92,1.0,9.0,73,0.00,,---,0.00,526.00,VWS V14.01,2012-12-02 15:09:00,
2012-12-02 10:10:00,74.1,64.9,30.28,ESE,103,4.0,9.0,73,0.00,,---,0.00,527.00,VWS V14.01,2012-12-02 15:10:00,
2012-12-02 10:11:00,74.2,64.6,30.28,SE,124,3.0,9.0,72,0.00,,---,0.00,527.00,VWS V14.01,2012-12-02 15:11:00,
2012-12-02 10:12:00,74.2,64.6,30.28,ENE,76,5.0,9.0,72,0.00,,---,0.00,531.00,VWS V14.01,2012-12-02 15:12:00,
2012-12-02 10:13:00,74.2,64.6,30.29,East,92,2.0,9.0,72,0.00,,---,0.00,536.00,VWS V14.01,2012-12-02 15:13:00,
2012-12-02 10:14:00,74.2,64.6,30.29,East,88,4.0,9.0,72,0.00,,---,0.00,536.00,VWS V14.01,2012-12-02 15:14:00,
2012-12-02 10:15:00,74.2,64.2,30.29,East,81,5.0,9.0,71,0.00,,---,0.00,538.00,VWS V14.01,2012-12-02 15:15:00,
2012-12-02 10:16:00,74.2,64.2,30.28,East,81,6.0,11.0,71,0.00,,---,0.00,538.00,VWS V14.01,2012-12-02 15:16:00,
2012-12-02 10:17:00,74.2,64.2,30.28,ESE,120,5.0,11.0,71,0.00,,---,0.00,545.00,VWS V14.01,2012-12-02 15:17:00,
2012-12-02 10:18:00,74.2,64.2,30.29,ENE,75,3.0,11.0,71,0.00,,---,0.00,545.00,VWS V14.01,2012-12-02 15:18:00,
2012-12-02 10:19:00,74.3,64.3,30.28,East,93,3.0,11.0,71,0.00,,---,0.00,545.00,VWS V14.01,2012-12-02 15:19:00,
2012-12-02 10:20:00,74.3,64.3,30.28,NE,50,3.0,11.0,71,0.00,,---,0.00,550.00,VWS V14.01,2012-12-02 15:20:00,
2012-12-02 10:21:00,74.4,64.4,30.28,East,92,3.0,11.0,71,0.00,,---,0.00,552.00,VWS V14.01,2012-12-02 15:21:00,
2012-12-02 10:22:00,74.6,64.6,30.28,ESE,120,4.0,11.0,71,0.00,,---,0.00,552.00,VWS V14.01,2012-12-02 15:22:00,
2012-12-02 10:23:00,74.7,64.3,30.28,ESE,122,6.0,11.0,70,0.00,,---,0.00,552.00,VWS V14.01,2012-12-02 15:23:00,
2012-12-02 10:24:00,74.7,64.3,30.28,SSE,149,1.0,11.0,70,0.00,,---,0.00,552.00,VWS V14.01,2012-12-02 15:24:00,
2012-12-02 10:25:00,74.8,64.4,30.28,NE,35,1.0,11.0,70,0.00,,---,0.00,559.00,VWS V14.01,2012-12-02 15:25:00,
2012-12-02 10:26:00,74.9,64.5,30.28,NE,43,4.0,11.0,70,0.00,,---,0.00,566.00,VWS V14.01,2012-12-02 15:26:00,
2012-12-02 10:27:00,75.0,64.6,30.28,ENE,75,2.0,11.0,70,0.00,,---,0.00,566.00,VWS V14.01,2012-12-02 15:27:00,
2012-12-02 10:28:00,75.0,64.6,30.28,ENE,66,2.0,11.0,70,0.00,,---,0.00,566.00,VWS V14.01,2012-12-02 15:28:00,
2012-12-02 10:29:00,75.1,64.7,30.28,ESE,121,1.0,11.0,70,0.00,,---,0.00,566.00,VWS V14.01,2012-12-02 15:29:00,
2012-12-02 10:30:00,75.2,64.8,30.28,East,96,2.0,11.0,70,0.00,,---,0.00,566.00,VWS V14.01,2012-12-02 15:30:00,
2012-12-02 10:31:00,75.2,63.9,30.28,ESE,102,5.0,11.0,68,0.00,,---,0.00,575.00,VWS V14.01,2012-12-02 15:31:00,
2012-12-02 10:32:00,75.1,64.2,30.28,ESE,103,5.0,11.0,69,0.00,,---,0.00,575.00,VWS V14.01,2012-12-02 15:32:00,
2012-12-02 10:33:00,75.1,64.2,30.28,ESE,121,1.0,11.0,69,0.00,,---,0.00,578.00,VWS V14.01,2012-12-02 15:33:00,
2012-12-02 10:34:00,75.2,64.3,30.28,NE,45,3.0,11.0,69,0.00,,---,0.00,580.00,VWS V14.01,2012-12-02 15:34:00,
2012-12-02 10:35:00,75.3,64.8,30.28,NE,52,4.0,11.0,70,0.00,,---,0.00,580.00,VWS V14.01,2012-12-02 15:35:00,
2012-12-02 10:36:00,75.5,64.6,30.28,SW,214,5.0,11.0,69,0.00,,---,0.00,577.00,VWS V14.01,2012-12-02 15:36:00,
2012-12-02 10:37:00,75.5,64.6,30.28,ESE,105,2.0,11.0,69,0.00,,---,0.00,577.00,VWS V14.01,2012-12-02 15:37:00,
2012-12-02 10:38:00,75.6,64.7,30.28,SE,124,3.0,11.0,69,0.00,,---,0.00,585.00,VWS V14.01,2012-12-02 15:38:00,
2012-12-02 10:39:00,75.6,64.3,30.28,East,99,2.0,11.0,68,0.00,,---,0.00,587.00,VWS V14.01,2012-12-02 15:39:00,
2012-12-02 10:40:00,75.7,64.8,30.28,East,91,5.0,11.0,69,0.00,,---,0.00,589.00,VWS V14.01,2012-12-02 15:40:00,
2012-12-02 10:41:00,75.8,64.9,30.27,East,91,8.0,11.0,69,0.00,,---,0.00,591.00,VWS V14.01,2012-12-02 15:41:00,
2012-12-02 10:42:00,75.8,64.5,30.27,East,81,5.0,11.0,68,0.00,,---,0.00,591.00,VWS V14.01,2012-12-02 15:42:00,
2012-12-02 10:43:00,75.8,64.5,30.27,ESE,112,1.0,11.0,68,0.00,,---,0.00,592.00,VWS V14.01,2012-12-02 15:43:00,
2012-12-02 10:44:00,75.8,64.5,30.27,SSE,153,0.0,11.0,68,0.00,,---,0.00,596.00,VWS V14.01,2012-12-02 15:44:00,
2012-12-02 10:45:00,75.9,64.6,30.27,East,91,1.0,11.0,68,0.00,,---,0.00,596.00,VWS V14.01,2012-12-02 15:45:00,
2012-12-02 10:46:00,75.9,64.6,30.27,SSE,155,4.0,11.0,68,0.00,,---,0.00,596.00,VWS V14.01,2012-12-02 15:46:00,
2012-12-02 10:47:00,75.9,64.2,30.27,ESE,104,5.0,11.0,67,0.00,,---,0.00,599.00,VWS V14.01,2012-12-02 15:47:00,
2012-12-02 10:48:00,75.9,64.2,30.27,NE,46,4.0,11.0,67,0.00,,---,0.00,601.00,VWS V14.01,2012-12-02 15:48:00,
2012-12-02 10:49:00,76.0,64.7,30.27,ENE,62,9.0,11.0,68,0.00,,---,0.00,605.00,VWS V14.01,2012-12-02 15:49:00,
2012-12-02 10:50:00,76.1,64.8,30.27,East,98,7.0,11.0,68,0.00,,---,0.00,605.00,VWS V14.01,2012-12-02 15:50:00,
2012-12-02 10:51:00,76.1,64.4,30.27,East,83,5.0,11.0,67,0.00,,---,0.00,605.00,VWS V14.01,2012-12-02 15:51:00,
2012-12-02 10:52:00,76.1,63.9,30.27,ESE,104,5.0,11.0,66,0.00,,---,0.00,610.00,VWS V14.01,2012-12-02 15:52:00,
2012-12-02 10:53:00,76.0,63.8,30.27,NE,45,6.0,11.0,66,0.00,,---,0.00,610.00,VWS V14.01,2012-12-02 15:53:00,
2012-12-02 10:54:00,76.0,63.4,30.27,SSE,149,3.0,11.0,65,0.00,,---,0.00,608.00,VWS V14.01,2012-12-02 15:54:00,
2012-12-02 10:55:00,75.9,63.3,30.27,SE,128,3.0,11.0,65,0.00,,---,0.00,610.00,VWS V14.01,2012-12-02 15:55:00,
2012-12-02 10:56:00,76.0,63.4,30.27,SW,218,3.0,11.0,65,0.00,,---,0.00,610.00,VWS V14.01,2012-12-02 15:56:00,
2012-12-02 10:57:00,75.9,63.3,30.27,SE,141,3.0,11.0,65,0.00,,---,0.00,622.00,VWS V14.01,2012-12-02 15:57:00,
2012-12-02 10:58:00,75.8,63.2,30.27,ESE,120,2.0,11.0,65,0.00,,---,0.00,615.00,VWS V14.01,2012-12-02 15:58:00,
2012-12-02 10:59:00,75.9,63.7,30.27,South,170,4.0,11.0,66,0.00,,---,0.00,615.00,VWS V14.01,2012-12-02 15:59:00,
2012-12-02 11:00:00,76.1,63.5,30.27,SSE,147,10.0,11.0,65,0.00,,---,0.00,615.00,VWS V14.01,2012-12-02 16:00:00,
2012-12-02 11:01:00,76.1,63.0,30.27,East,87,6.0,10.0,64,0.00,,---,0.00,622.00,VWS V14.01,2012-12-02 16:01:00,
2012-12-02 11:02:00,76.1,63.0,30.27,ESE,107,3.0,10.0,64,0.00,,---,0.00,622.00,VWS V14.01,2012-12-02 16:02:00,
2012-12-02 11:03:00,76.1,63.5,30.27,East,91,8.0,10.0,65,0.00,,---,0.00,624.00,VWS V14.01,2012-12-02 16:03:00,
2012-12-02 11:04:00,76.2,63.6,30.27,ENE,64,3.0,11.0,65,0.00,,---,0.00,624.00,VWS V14.01,2012-12-02 16:04:00,
2012-12-02 11:05:00,76.3,63.2,30.27,East,86,6.0,11.0,64,0.00,,---,0.00,628.00,VWS V14.01,2012-12-02 16:05:00,
2012-12-02 11:06:00,76.3,63.2,30.27,NE,56,6.0,11.0,64,0.00,,---,0.00,628.00,VWS V14.01,2012-12-02 16:06:00,
2012-12-02 11:07:00,76.3,63.7,30.27,ESE,114,4.0,11.0,65,0.00,,---,0.00,628.00,VWS V14.01,2012-12-02 16:07:00,
2012-12-02 11:08:00,76.3,63.7,30.27,SSE,147,3.0,11.0,65,0.00,,---,0.00,633.00,VWS V14.01,2012-12-02 16:08:00,
2012-12-02 11:09:00,76.4,63.8,30.26,SSE,150,2.0,11.0,65,0.00,,---,0.00,635.00,VWS V14.01,2012-12-02 16:09:00,
2012-12-02 11:10:00,76.5,63.9,30.26,SE,142,6.0,11.0,65,0.00,,---,0.00,636.00,VWS V14.01,2012-12-02 16:10:00,
2012-12-02 11:11:00,76.5,63.9,30.26,ENE,63,1.0,11.0,65,0.00,,---,0.00,635.00,VWS V14.01,2012-12-02 16:11:00,
2012-12-02 11:12:00,76.7,63.6,30.26,ESE,102,8.0,11.0,64,0.00,,---,0.00,635.00,VWS V14.01,2012-12-02 16:12:00,
2012-12-02 11:13:00,76.8,63.7,30.26,ESE,116,4.0,11.0,64,0.00,,---,0.00,635.00,VWS V14.01,2012-12-02 16:13:00,
2012-12-02 11:14:00,76.8,63.3,30.26,SE,131,3.0,11.0,63,0.00,,---,0.00,635.00,VWS V14.01,2012-12-02 16:14:00,
2012-12-02 11:15:00,76.8,63.3,30.26,ESE,108,5.0,11.0,63,0.00,,---,0.00,635.00,VWS V14.01,2012-12-02 16:15:00,
2012-12-02 11:16:00,77.0,63.5,30.26,NE,56,8.0,11.0,63,0.00,,---,0.00,642.00,VWS V14.01,2012-12-02 16:16:00,
2012-12-02 11:17:00,77.0,63.0,30.26,East,80,4.0,11.0,62,0.00,,---,0.00,642.00,VWS V14.01,2012-12-02 16:17:00,
2012-12-02 11:18:00,77.0,63.5,30.26,South,170,3.0,11.0,63,0.00,,---,0.00,645.00,VWS V14.01,2012-12-02 16:18:00,
2012-12-02 11:19:00,77.1,63.5,30.26,East,101,5.0,11.0,63,0.00,,---,0.00,645.00,VWS V14.01,2012-12-02 16:19:00,
2012-12-02 11:20:00,77.1,63.1,30.26,SE,137,3.0,11.0,62,0.00,,---,0.00,645.00,VWS V14.01,2012-12-02 16:20:00,
2012-12-02 11:21:00,77.1,63.1,30.26,SSE,160,2.0,11.0,62,0.00,,---,0.00,645.00,VWS V14.01,2012-12-02 16:21:00,
2012-12-02 11:22:00,77.0,63.0,30.26,South,191,1.0,11.0,62,0.00,,---,0.00,647.00,VWS V14.01,2012-12-02 16:22:00,
2012-12-02 11:23:00,77.0,63.5,30.26,South,177,6.0,11.0,63,0.00,,---,0.00,649.00,VWS V14.01,2012-12-02 16:23:00,
2012-12-02 11:24:00,77.0,63.9,30.26,East,85,1.0,11.0,64,0.00,,---,0.00,650.00,VWS V14.01,2012-12-02 16:24:00,
2012-12-02 11:25:00,77.2,63.6,30.26,East,82,4.0,11.0,63,0.00,,---,0.00,654.00,VWS V14.01,2012-12-02 16:25:00,
2012-12-02 11:26:00,77.3,63.3,30.26,East,93,5.0,11.0,62,0.00,,---,0.00,657.00,VWS V14.01,2012-12-02 16:26:00,
2012-12-02 11:27:00,77.3,63.3,30.26,North,6,1.0,11.0,62,0.00,,---,0.00,661.00,VWS V14.01,2012-12-02 16:27:00,
2012-12-02 11:28:00,77.3,63.3,30.26,ENE,70,5.0,11.0,62,0.00,,---,0.00,661.00,VWS V14.01,2012-12-02 16:28:00,
2012-12-02 11:29:00,77.4,63.4,30.26,SE,142,1.0,11.0,62,0.00,,---,0.00,661.00,VWS V14.01,2012-12-02 16:29:00,
2012-12-02 11:30:00,77.4,62.9,30.26,ENE,72,2.0,11.0,61,0.00,,---,0.00,661.00,VWS V14.01,2012-12-02 16:30:00,
2012-12-02 11:31:00,77.4,63.4,30.26,SE,131,3.0,11.0,62,0.00,,---,0.00,663.00,VWS V14.01,2012-12-02 16:31:00,
2012-12-02 11:32:00,77.3,62.3,30.26,East,94,4.0,11.0,60,0.00,,---,0.00,663.00,VWS V14.01,2012-12-02 16:32:00,
2012-12-02 11:33:00,77.4,62.9,30.26,SE,146,4.0,11.0,61,0.00,,---,0.00,656.00,VWS V14.01,2012-12-02 16:33:00,
2012-12-02 11:34:00,77.5,63.0,30.26,ENE,76,0.0,11.0,61,0.00,,---,0.00,657.00,VWS V14.01,2012-12-02 16:34:00,
2012-12-02 11:35:00,77.5,63.0,30.26,East,89,5.0,11.0,61,0.00,,---,0.00,663.00,VWS V14.01,2012-12-02 16:35:00,
2012-12-02 11:36:00,77.6,63.1,30.25,South,180,5.0,11.0,61,0.00,,---,0.00,663.00,VWS V14.01,2012-12-02 16:36:00,
2012-12-02 11:37:00,77.6,63.1,30.25,ENE,66,5.0,11.0,61,0.00,,---,0.00,661.00,VWS V14.01,2012-12-02 16:37:00,
2012-12-02 11:38:00,77.7,62.7,30.25,NE,56,3.0,11.0,60,0.00,,---,0.00,657.00,VWS V14.01,2012-12-02 16:38:00,
2012-12-02 11:39:00,77.7,62.7,30.25,ENE,68,5.0,11.0,60,0.00,,---,0.00,663.00,VWS V14.01,2012-12-02 16:39:00,
2012-12-02 11:40:00,77.7,62.2,30.25,ENE,75,8.0,11.0,59,0.00,,---,0.00,664.00,VWS V14.01,2012-12-02 16:40:00,
2012-12-02 11:41:00,77.7,62.2,30.25,SE,143,2.0,11.0,59,0.00,,---,0.00,673.00,VWS V14.01,2012-12-02 16:41:00,
2012-12-02 11:42:00,77.7,62.7,30.25,SE,140,4.0,11.0,60,0.00,,---,0.00,677.00,VWS V14.01,2012-12-02 16:42:00,
2012-12-02 11:43:00,77.6,62.6,30.25,NE,37,2.0,11.0,60,0.00,,---,0.00,677.00,VWS V14.01,2012-12-02 16:43:00,
2012-12-02 11:44:00,77.6,62.6,30.25,SSE,166,6.0,11.0,60,0.00,,---,0.00,689.00,VWS V14.01,2012-12-02 16:44:00,
2012-12-02 11:45:00,77.6,62.6,30.25,East,99,6.0,11.0,60,0.00,,---,0.00,689.00,VWS V14.01,2012-12-02 16:45:00,
2012-12-02 11:46:00,77.6,62.2,30.25,NE,54,7.0,11.0,59,0.00,,---,0.00,689.00,VWS V14.01,2012-12-02 16:46:00,
2012-12-02 11:47:00,77.6,62.2,30.25,ENE,58,7.0,11.0,59,0.00,,---,0.00,689.00,VWS V14.01,2012-12-02 16:47:00,
2012-12-02 11:48:00,77.5,62.1,30.25,SSE,150,3.0,13.0,59,0.00,,---,0.00,689.00,VWS V14.01,2012-12-02 16:48:00,
2012-12-02 11:49:00,77.4,62.0,30.25,South,182,4.0,13.0,59,0.00,,---,0.00,689.00,VWS V14.01,2012-12-02 16:49:00,
2012-12-02 11:50:00,77.1,61.7,30.25,ESE,122,2.0,13.0,59,0.00,,---,0.00,185.00,VWS V14.01,2012-12-02 16:50:00,
2012-12-02 11:51:00,76.9,61.5,30.25,ENE,74,1.0,13.0,59,0.00,,---,0.00,185.00,VWS V14.01,2012-12-02 16:51:00,
2012-12-02 11:52:00,76.9,62.0,30.25,SE,139,5.0,13.0,60,0.00,,---,0.00,185.00,VWS V14.01,2012-12-02 16:52:00,
2012-12-02 11:53:00,77.0,61.6,30.25,ESE,117,2.0,13.0,59,0.00,,---,0.00,686.00,VWS V14.01,2012-12-02 16:53:00,
2012-12-02 11:54:00,77.2,61.8,30.25,East,81,3.0,13.0,59,0.00,,---,0.00,689.00,VWS V14.01,2012-12-02 16:54:00,
2012-12-02 11:55:00,77.5,62.1,30.25,NNE,23,3.0,13.0,59,0.00,,---,0.00,687.00,VWS V14.01,2012-12-02 16:55:00,
2012-12-02 11:56:00,77.7,62.2,30.25,SE,127,1.0,13.0,59,0.00,,---,0.00,693.00,VWS V14.01,2012-12-02 16:56:00,
2012-12-02 11:57:00,78.0,62.5,30.25,ESE,117,1.0,13.0,59,0.00,,---,0.00,694.00,VWS V14.01,2012-12-02 16:57:00,
2012-12-02 11:58:00,78.2,62.7,30.25,SE,125,2.0,13.0,59,0.00,,---,0.00,698.00,VWS V14.01,2012-12-02 16:58:00,
2012-12-02 11:59:00,78.5,62.5,30.25,ENE,76,8.0,13.0,58,0.00,,---,0.00,696.00,VWS V14.01,2012-12-02 16:59:00,
2012-12-02 12:00:00,78.6,62.6,30.25,ENE,63,3.0,13.0,58,0.00,,---,0.00,691.00,VWS V14.01,2012-12-02 17:00:00,
2012-12-02 12:01:00,78.7,62.7,30.24,NE,53,4.0,7.0,58,0.00,,---,0.00,691.00,VWS V14.01,2012-12-02 17:01:00,
2012-12-02 12:02:00,78.7,61.7,30.24,East,88,3.0,7.0,56,0.00,,---,0.00,682.00,VWS V14.01,2012-12-02 17:02:00,
2012-12-02 12:03:00,78.8,62.3,30.24,NE,51,4.0,7.0,57,0.00,,---,0.00,682.00,VWS V14.01,2012-12-02 17:03:00,
2012-12-02 12:04:00,78.8,61.8,30.24,NE,48,5.0,10.0,56,0.00,,---,0.00,682.00,VWS V14.01,2012-12-02 17:04:00,
2012-12-02 12:05:00,78.8,61.8,30.24,ENE,68,7.0,10.0,56,0.00,,---,0.00,684.00,VWS V14.01,2012-12-02 17:05:00,
2012-12-02 12:06:00,78.8,62.3,30.24,NNE,26,4.0,10.0,57,0.00,,---,0.00,686.00,VWS V14.01,2012-12-02 17:06:00,
2012-12-02 12:07:00,78.8,61.8,30.24,NE,50,2.0,10.0,56,0.00,,---,0.00,701.00,VWS V14.01,2012-12-02 17:07:00,
2012-12-02 12:08:00,78.9,62.4,30.24,East,79,1.0,10.0,57,0.00,,---,0.00,701.00,VWS V14.01,2012-12-02 17:08:00,
2012-12-02 12:09:00,78.9,62.4,30.24,NE,53,1.0,10.0,57,0.00,,---,0.00,701.00,VWS V14.01,2012-12-02 17:09:00,
2012-12-02 12:10:00,78.9,61.9,30.24,ENE,68,3.0,10.0,56,0.00,,---,0.00,694.00,VWS V14.01,2012-12-02 17:10:00,
2012-12-02 12:11:00,78.9,61.9,30.24,ENE,77,6.0,10.0,56,0.00,,---,0.00,714.00,VWS V14.01,2012-12-02 17:11:00,
2012-12-02 12:12:00,78.9,60.9,30.24,ESE,104,3.0,10.0,54,0.00,,---,0.00,745.00,VWS V14.01,2012-12-02 17:12:00,
2012-12-02 12:13:00,78.9,60.9,30.24,ESE,122,3.0,10.0,54,0.00,,---,0.00,745.00,VWS V14.01,2012-12-02 17:13:00,
2012-12-02 12:14:00,78.7,61.2,30.24,ESE,104,1.0,10.0,55,0.00,,---,0.00,206.00,VWS V14.01,2012-12-02 17:14:00,
2012-12-02 12:15:00,78.4,60.9,30.24,SE,127,2.0,10.0,55,0.00,,---,0.00,206.00,VWS V14.01,2012-12-02 17:15:00,
2012-12-02 12:16:00,78.3,61.3,30.24,SSE,161,0.0,10.0,56,0.00,,---,0.00,700.00,VWS V14.01,2012-12-02 17:16:00,
2012-12-02 12:17:00,78.4,61.9,30.24,South,191,4.0,10.0,57,0.00,,---,0.00,701.00,VWS V14.01,2012-12-02 17:17:00,
2012-12-02 12:18:00,78.6,62.1,30.23,SSE,151,3.0,10.0,57,0.00,,---,0.00,703.00,VWS V14.01,2012-12-02 17:18:00,
2012-12-02 12:19:00,78.9,62.4,30.23,ENE,72,2.0,10.0,57,0.00,,---,0.00,705.00,VWS V14.01,2012-12-02 17:19:00,
2012-12-02 12:20:00,79.0,62.0,30.23,ENE,66,1.0,10.0,56,0.00,,---,0.00,701.00,VWS V14.01,2012-12-02 17:20:00,
2012-12-02 12:21:00,79.3,61.8,30.23,ENE,64,4.0,10.0,55,0.00,,---,0.00,696.00,VWS V14.01,2012-12-02 17:21:00,
2012-12-02 12:22:00,79.3,61.8,30.23,East,82,3.0,10.0,55,0.00,,---,0.00,696.00,VWS V14.01,2012-12-02 17:22:00,
2012-12-02 12:23:00,79.5,61.9,30.23,ENE,60,5.0,10.0,55,0.00,,---,0.00,712.00,VWS V14.01,2012-12-02 17:23:00,
2012-12-02 12:24:00,79.6,61.5,30.23,East,91,1.0,10.0,54,0.00,,---,0.00,724.00,VWS V14.01,2012-12-02 17:24:00,
2012-12-02 12:25:00,79.7,63.1,30.23,East,95,3.0,10.0,57,0.00,,---,0.00,733.00,VWS V14.01,2012-12-02 17:25:00,
2012-12-02 12:26:00,79.8,61.7,30.23,ESE,108,0.0,10.0,54,0.00,,---,0.00,733.00,VWS V14.01,2012-12-02 17:26:00,
2012-12-02 12:27:00,79.9,62.3,30.23,SSE,154,1.0,10.0,55,0.00,,---,0.00,733.00,VWS V14.01,2012-12-02 17:27:00,
2012-12-02 12:28:00,80.2,61.5,30.23,East,86,2.0,10.0,53,0.00,,---,0.00,763.00,VWS V14.01,2012-12-02 17:28:00,
2012-12-02 12:29:00,80.2,61.5,30.23,NE,50,3.0,10.0,53,0.00,,---,0.00,747.00,VWS V14.01,2012-12-02 17:29:00,
2012-12-02 12:30:00,80.3,61.1,30.23,NW,317,1.0,10.0,52,0.00,,---,0.00,733.00,VWS V14.01,2012-12-02 17:30:00,
2012-12-02 12:31:00,80.6,61.9,30.23,ENE,75,8.0,10.0,53,0.00,,---,0.00,729.00,VWS V14.01,2012-12-02 17:31:00,
2012-12-02 12:32:00,80.6,61.9,30.23,ESE,118,4.0,10.0,53,0.00,,---,0.00,733.00,VWS V14.01,2012-12-02 17:32:00,
2012-12-02 12:33:00,80.5,61.3,30.23,ENE,58,5.0,10.0,52,0.00,,---,0.00,733.00,VWS V14.01,2012-12-02 17:33:00,
2012-12-02 12:34:00,80.4,61.2,30.23,South,179,4.0,10.0,52,0.00,,---,0.00,717.00,VWS V14.01,2012-12-02 17:34:00,
2012-12-02 12:35:00,80.3,60.5,30.23,ESE,108,1.0,10.0,51,0.00,,---,0.00,712.00,VWS V14.01,2012-12-02 17:35:00,
2012-12-02 12:36:00,80.2,60.5,30.23,East,91,2.0,10.0,51,0.00,,---,0.00,710.00,VWS V14.01,2012-12-02 17:36:00,
2012-12-02 12:37:00,80.0,59.7,30.23,East,92,3.0,10.0,50,0.00,,---,0.00,708.00,VWS V14.01,2012-12-02 17:37:00,
2012-12-02 12:38:00,80.0,60.3,30.23,East,89,0.0,10.0,51,0.00,,---,0.00,701.00,VWS V14.01,2012-12-02 17:38:00,
2012-12-02 12:39:00,80.0,60.8,30.23,ENE,68,1.0,10.0,52,0.00,,---,0.00,698.00,VWS V14.01,2012-12-02 17:39:00,
2012-12-02 12:40:00,80.1,60.9,30.23,West,262,1.0,10.0,52,0.00,,---,0.00,687.00,VWS V14.01,2012-12-02 17:40:00,
2012-12-02 12:41:00,80.1,60.9,30.22,East,100,7.0,10.0,52,0.00,,---,0.00,687.00,VWS V14.01,2012-12-02 17:41:00,
2012-12-02 12:42:00,80.0,60.3,30.22,East,87,5.0,10.0,51,0.00,,---,0.00,693.00,VWS V14.01,2012-12-02 17:42:00,
2012-12-02 12:43:00,79.9,59.6,30.22,NE,52,5.0,10.0,50,0.00,,---,0.00,701.00,VWS V14.01,2012-12-02 17:43:00,
2012-12-02 12:44:00,79.8,59.5,30.22,SSE,151,4.0,10.0,50,0.00,,---,0.00,707.00,VWS V14.01,2012-12-02 17:44:00,
2012-12-02 12:45:00,79.8,60.1,30.22,SSW,198,1.0,10.0,51,0.00,,---,0.00,696.00,VWS V14.01,2012-12-02 17:45:00,
2012-12-02 12:46:00,80.0,59.7,30.22,SE,146,1.0,10.0,50,0.00,,---,0.00,717.00,VWS V14.01,2012-12-02 17:46:00,
2012-12-02 12:47:00,80.2,60.5,30.22,South,176,2.0,10.0,51,0.00,,---,0.00,717.00,VWS V14.01,2012-12-02 17:47:00,
2012-12-02 12:48:00,80.3,60.0,30.22,SSE,148,2.0,10.0,50,0.00,,---,0.00,726.00,VWS V14.01,2012-12-02 17:48:00,
2012-12-02 12:49:00,80.3,60.0,30.22,SE,127,5.0,10.0,50,0.00,,---,0.00,733.00,VWS V14.01,2012-12-02 17:49:00,
2012-12-02 12:50:00,80.3,60.0,30.22,East,81,1.0,10.0,50,0.00,,---,0.00,724.00,VWS V14.01,2012-12-02 17:50:00,
2012-12-02 12:51:00,80.4,60.6,30.22,East,89,4.0,10.0,51,0.00,,---,0.00,724.00,VWS V14.01,2012-12-02 17:51:00,
2012-12-02 12:52:00,80.2,58.8,30.22,ENE,72,4.0,10.0,48,0.00,,---,0.00,90.00,VWS V14.01,2012-12-02 17:52:00,
2012-12-02 12:53:00,79.9,58.5,30.22,East,100,6.0,10.0,48,0.00,,---,0.00,84.00,VWS V14.01,2012-12-02 17:53:00,
2012-12-02 12:54:00,79.5,58.7,30.22,ESE,114,0.0,10.0,49,0.00,,---,0.00,81.00,VWS V14.01,2012-12-02 17:54:00,
2012-12-02 12:55:00,79.0,58.8,30.22,East,85,4.0,10.0,50,0.00,,---,0.00,79.00,VWS V14.01,2012-12-02 17:55:00,
2012-12-02 12:56:00,78.6,58.4,30.21,East,87,5.0,10.0,50,0.00,,---,0.00,84.00,VWS V14.01,2012-12-02 17:56:00,
2012-12-02 12:57:00,78.4,58.2,30.21,East,93,6.0,10.0,50,0.00,,---,0.00,102.00,VWS V14.01,2012-12-02 17:57:00,
2012-12-02 12:58:00,78.1,58.5,30.21,ESE,122,1.0,10.0,51,0.00,,---,0.00,714.00,VWS V14.01,2012-12-02 17:58:00,
2012-12-02 12:59:00,78.1,59.1,30.21,ESE,104,1.0,10.0,52,0.00,,---,0.00,714.00,VWS V14.01,2012-12-02 17:59:00,
2012-12-02 13:00:00,78.2,59.2,30.21,East,90,1.0,10.0,52,0.00,,---,0.00,714.00,VWS V14.01,2012-12-02 18:00:00,
2012-12-02 13:01:00,78.2,59.2,30.21,ESE,105,2.0,6.0,52,0.00,,---,0.00,714.00,VWS V14.01,2012-12-02 18:01:00,
2012-12-02 13:02:00,78.2,59.2,30.21,ESE,107,5.0,7.0,52,0.00,,---,0.00,188.00,VWS V14.01,2012-12-02 18:02:00,
2012-12-02 13:03:00,78.0,59.0,30.21,ENE,75,0.0,7.0,52,0.00,,---,0.00,98.00,VWS V14.01,2012-12-02 18:03:00,
2012-12-02 13:04:00,77.9,58.3,30.21,SE,131,3.0,7.0,51,0.00,,---,0.00,98.00,VWS V14.01,2012-12-02 18:04:00,
2012-12-02 13:05:00,77.8,57.7,30.21,East,84,3.0,7.0,50,0.00,,---,0.00,95.00,VWS V14.01,2012-12-02 18:05:00,
2012-12-02 13:06:00,77.7,58.7,30.21,East,93,2.0,7.0,52,0.00,,---,0.00,95.00,VWS V14.01,2012-12-02 18:06:00,
2012-12-02 13:07:00,77.5,58.5,30.21,NNE,23,0.0,7.0,52,0.00,,---,0.00,93.00,VWS V14.01,2012-12-02 18:07:00,
2012-12-02 13:08:00,77.4,57.9,30.21,NE,42,0.0,7.0,51,0.00,,---,0.00,98.00,VWS V14.01,2012-12-02 18:08:00,
2012-12-02 13:09:00,77.3,57.2,30.21,NE,48,1.0,7.0,50,0.00,,---,0.00,105.00,VWS V14.01,2012-12-02 18:09:00,
2012-12-02 13:10:00,77.2,57.1,30.21,ESE,107,7.0,8.0,50,0.00,,---,0.00,105.00,VWS V14.01,2012-12-02 18:10:00,
2012-12-02 13:11:00,77.2,56.0,30.21,ENE,68,4.0,8.0,48,0.00,,---,0.00,197.00,VWS V14.01,2012-12-02 18:11:00,
2012-12-02 13:12:00,77.2,56.0,30.21,SSE,161,2.0,8.0,48,0.00,,---,0.00,121.00,VWS V14.01,2012-12-02 18:12:00,
2012-12-02 13:13:00,77.2,56.6,30.21,SE,136,1.0,8.0,49,0.00,,---,0.00,121.00,VWS V14.01,2012-12-02 18:13:00,
2012-12-02 13:14:00,77.3,56.7,30.21,ENE,68,6.0,8.0,49,0.00,,---,0.00,127.00,VWS V14.01,2012-12-02 18:14:00,
2012-12-02 13:15:00,77.3,57.8,30.21,SE,135,6.0,8.0,51,0.00,,---,0.00,130.00,VWS V14.01,2012-12-02 18:15:00,
2012-12-02 13:16:00,77.3,57.2,30.21,East,89,1.0,8.0,50,0.00,,---,0.00,137.00,VWS V14.01,2012-12-02 18:16:00,
2012-12-02 13:17:00,77.3,57.8,30.21,ESE,114,0.0,8.0,51,0.00,,---,0.00,137.00,VWS V14.01,2012-12-02 18:17:00,
2012-12-02 13:18:00,77.3,58.3,30.21,ESE,112,2.0,8.0,52,0.00,,---,0.00,536.00,VWS V14.01,2012-12-02 18:18:00,
2012-12-02 13:19:00,77.4,57.9,30.21,NNE,33,4.0,8.0,51,0.00,,---,0.00,536.00,VWS V14.01,2012-12-02 18:19:00,
2012-12-02 13:20:00,77.9,58.9,30.21,ESE,104,5.0,8.0,52,0.00,,---,0.00,536.00,VWS V14.01,2012-12-02 18:20:00,
2012-12-02 13:21:00,78.2,58.1,30.21,ENE,72,2.0,8.0,50,0.00,,---,0.00,712.00,VWS V14.01,2012-12-02 18:21:00,
2012-12-02 13:22:00,78.5,58.3,30.21,East,100,3.0,8.0,50,0.00,,---,0.00,712.00,VWS V14.01,2012-12-02 18:22:00,
2012-12-02 13:23:00,78.7,57.4,30.21,East,81,3.0,8.0,48,0.00,,---,0.00,719.00,VWS V14.01,2012-12-02 18:23:00,
2012-12-02 13:24:00,78.8,56.9,30.21,SE,142,2.0,8.0,47,0.00,,---,0.00,719.00,VWS V14.01,2012-12-02 18:24:00,
2012-12-02 13:25:00,79.1,58.3,30.21,ESE,119,1.0,8.0,49,0.00,,---,0.00,703.00,VWS V14.01,2012-12-02 18:25:00,
2012-12-02 13:26:00,79.3,58.5,30.21,SE,129,0.0,8.0,49,0.00,,---,0.00,703.00,VWS V14.01,2012-12-02 18:26:00,
2012-12-02 13:27:00,79.3,57.9,30.21,ENE,68,4.0,8.0,48,0.00,,---,0.00,176.00,VWS V14.01,2012-12-02 18:27:00,
2012-12-02 13:28:00,79.2,57.2,30.21,ENE,63,3.0,8.0,47,0.00,,---,0.00,74.00,VWS V14.01,2012-12-02 18:28:00,
2012-12-02 13:29:00,78.9,57.6,30.20,NE,44,2.0,8.0,48,0.00,,---,0.00,70.00,VWS V14.01,2012-12-02 18:29:00,
2012-12-02 13:30:00,78.7,57.4,30.20,ENE,68,2.0,8.0,48,0.00,,---,0.00,67.00,VWS V14.01,2012-12-02 18:30:00,
2012-12-02 13:31:00,78.4,57.1,30.20,NE,35,0.0,8.0,48,0.00,,---,0.00,67.00,VWS V14.01,2012-12-02 18:31:00,
2012-12-02 13:32:00,78.4,57.1,30.20,NE,35,1.0,8.0,48,0.00,,---,0.00,67.00,VWS V14.01,2012-12-02 18:32:00,
2012-12-02 13:33:00,78.4,58.2,30.20,ESE,120,2.0,8.0,50,0.00,,---,0.00,643.00,VWS V14.01,2012-12-02 18:33:00,
2012-12-02 13:34:00,78.5,57.2,30.20,ESE,120,0.0,8.0,48,0.00,,---,0.00,640.00,VWS V14.01,2012-12-02 18:34:00,
2012-12-02 13:35:00,78.7,56.2,30.20,East,79,2.0,8.0,46,0.00,,---,0.00,640.00,VWS V14.01,2012-12-02 18:35:00,
2012-12-02 13:36:00,79.0,55.2,30.20,NE,49,1.0,8.0,44,0.00,,---,0.00,636.00,VWS V14.01,2012-12-02 18:36:00,
2012-12-02 13:37:00,79.2,57.2,30.20,ESE,106,2.0,8.0,47,0.00,,---,0.00,635.00,VWS V14.01,2012-12-02 18:37:00,
2012-12-02 13:38:00,79.4,57.4,30.20,East,97,0.0,8.0,47,0.00,,---,0.00,638.00,VWS V14.01,2012-12-02 18:38:00,
2012-12-02 13:39:00,79.6,58.8,30.20,SE,130,1.0,8.0,49,0.00,,---,0.00,636.00,VWS V14.01,2012-12-02 18:39:00,
2012-12-02 13:40:00,79.8,57.2,30.20,NNE,19,2.0,8.0,46,0.00,,---,0.00,650.00,VWS V14.01,2012-12-02 18:40:00,
2012-12-02 13:41:00,79.8,57.2,30.20,North,7,1.0,8.0,46,0.00,,---,0.00,642.00,VWS V14.01,2012-12-02 18:41:00,
2012-12-02 13:42:00,80.0,57.4,30.20,North,7,0.0,8.0,46,0.00,,---,0.00,640.00,VWS V14.01,2012-12-02 18:42:00,
2012-12-02 13:43:00,80.1,57.5,30.20,East,85,0.0,8.0,46,0.00,,---,0.00,640.00,VWS V14.01,2012-12-02 18:43:00,
2012-12-02 13:44:00,80.1,57.5,30.20,ENE,67,0.0,8.0,46,0.00,,---,0.00,638.00,VWS V14.01,2012-12-02 18:44:00,
2012-12-02 13:45:00,80.1,58.7,30.20,NE,50,4.0,8.0,48,0.00,,---,0.00,645.00,VWS V14.01,2012-12-02 18:45:00,
2012-12-02 13:46:00,80.0,58.6,30.20,ENE,67,4.0,8.0,48,0.00,,---,0.00,649.00,VWS V14.01,2012-12-02 18:46:00,
2012-12-02 13:47:00,80.1,58.1,30.20,East,96,2.0,8.0,47,0.00,,---,0.00,657.00,VWS V14.01,2012-12-02 18:47:00,
2012-12-02 13:48:00,80.2,57.6,30.20,NNE,13,0.0,8.0,46,0.00,,---,0.00,664.00,VWS V14.01,2012-12-02 18:48:00,
2012-12-02 13:49:00,80.3,57.7,30.20,East,83,4.0,8.0,46,0.00,,---,0.00,664.00,VWS V14.01,2012-12-02 18:49:00,
2012-12-02 13:50:00,80.1,58.1,30.20,ENE,64,2.0,8.0,47,0.00,,---,0.00,664.00,VWS V14.01,2012-12-02 18:50:00,
2012-12-02 13:51:00,80.0,58.0,30.20,NNE,18,1.0,8.0,47,0.00,,---,0.00,664.00,VWS V14.01,2012-12-02 18:51:00,
2012-12-02 13:52:00,79.8,58.4,30.20,ESE,106,5.0,8.0,48,0.00,,---,0.00,98.00,VWS V14.01,2012-12-02 18:52:00,
2012-12-02 13:53:00,79.6,57.0,30.20,NE,43,6.0,8.0,46,0.00,,---,0.00,98.00,VWS V14.01,2012-12-02 18:53:00,
2012-12-02 13:54:00,79.5,56.3,30.20,ESE,104,2.0,8.0,45,0.00,,---,0.00,77.00,VWS V14.01,2012-12-02 18:54:00,
2012-12-02 13:55:00,79.1,56.0,30.20,ENE,76,1.0,8.0,45,0.00,,---,0.00,77.00,VWS V14.01,2012-12-02 18:55:00,
2012-12-02 13:56:00,78.8,56.9,30.20,ENE,61,0.0,8.0,47,0.00,,---,0.00,83.00,VWS V14.01,2012-12-02 18:56:00,
2012-12-02 13:57:00,78.5,56.6,30.20,ENE,62,1.0,8.0,47,0.00,,---,0.00,74.00,VWS V14.01,2012-12-02 18:57:00,
2012-12-02 13:58:00,78.2,56.9,30.20,ENE,61,0.0,8.0,48,0.00,,---,0.00,74.00,VWS V14.01,2012-12-02 18:58:00,
2012-12-02 13:59:00,77.9,57.2,30.20,SE,132,0.0,8.0,49,0.00,,---,0.00,74.00,VWS V14.01,2012-12-02 18:59:00,
2012-12-02 14:00:00,77.8,58.2,30.20,ESE,122,0.0,8.0,51,0.00,,---,0.00,74.00,VWS V14.01,2012-12-02 19:00:00,
2012-12-02 14:01:00,77.9,58.9,30.20,East,96,0.0,3.0,52,0.00,,---,0.00,592.00,VWS V14.01,2012-12-02 19:01:00,
2012-12-02 14:02:00,78.1,58.0,30.20,East,96,0.0,3.0,50,0.00,,---,0.00,592.00,VWS V14.01,2012-12-02 19:02:00,
2012-12-02 14:03:00,78.3,59.8,30.20,East,96,0.0,3.0,53,0.00,,---,0.00,592.00,VWS V14.01,2012-12-02 19:03:00,
2012-12-02 14:04:00,78.4,59.3,30.20,ESE,104,1.0,3.0,52,0.00,,---,0.00,594.00,VWS V14.01,2012-12-02 19:04:00,
2012-12-02 14:05:00,78.4,58.8,30.20,ESE,104,0.0,3.0,51,0.00,,---,0.00,599.00,VWS V14.01,2012-12-02 19:05:00,
2012-12-02 14:06:00,78.5,59.4,30.20,East,101,1.0,3.0,52,0.00,,---,0.00,605.00,VWS V14.01,2012-12-02 19:06:00,
2012-12-02 14:07:00,78.7,59.1,30.20,East,101,0.0,3.0,51,0.00,,---,0.00,612.00,VWS V14.01,2012-12-02 19:07:00,
2012-12-02 14:08:00,78.9,59.2,30.20,East,93,1.0,3.0,51,0.00,,---,0.00,624.00,VWS V14.01,2012-12-02 19:08:00,
2012-12-02 14:09:00,79.2,58.4,30.19,NE,56,0.0,4.0,49,0.00,,---,0.00,645.00,VWS V14.01,2012-12-02 19:09:00,
2012-12-02 14:10:00,79.4,60.3,30.19,East,79,1.0,4.0,52,0.00,,---,0.00,654.00,VWS V14.01,2012-12-02 19:10:00,
2012-12-02 14:11:00,79.5,58.7,30.19,NNE,24,3.0,4.0,49,0.00,,---,0.00,659.00,VWS V14.01,2012-12-02 19:11:00,
2012-12-02 14:12:00,79.6,59.9,30.19,NE,48,0.0,4.0,51,0.00,,---,0.00,659.00,VWS V14.01,2012-12-02 19:12:00,
2012-12-02 14:13:00,79.7,59.4,30.19,NE,48,0.0,4.0,50,0.00,,---,0.00,675.00,VWS V14.01,2012-12-02 19:13:00,
2012-12-02 14:14:00,79.7,58.3,30.19,NE,48,0.0,4.0,48,0.00,,---,0.00,677.00,VWS V14.01,2012-12-02 19:14:00,
2012-12-02 14:15:00,79.7,60.0,30.19,NE,48,1.0,4.0,51,0.00,,---,0.00,671.00,VWS V14.01,2012-12-02 19:15:00,
2012-12-02 14:16:00,79.7,59.4,30.19,ENE,77,0.0,4.0,50,0.00,,---,0.00,673.00,VWS V14.01,2012-12-02 19:16:00,
2012-12-02 14:17:00,79.8,59.5,30.19,NNW,347,1.0,4.0,50,0.00,,---,0.00,671.00,VWS V14.01,2012-12-02 19:17:00,
2012-12-02 14:18:00,79.8,60.1,30.19,NNE,29,1.0,4.0,51,0.00,,---,0.00,659.00,VWS V14.01,2012-12-02 19:18:00,
2012-12-02 14:19:00,79.7,58.9,30.19,ENE,69,2.0,4.0,49,0.00,,---,0.00,659.00,VWS V14.01,2012-12-02 19:19:00,
2012-12-02 14:20:00,79.6,57.6,30.19,North,357,6.0,6.0,47,0.00,,---,0.00,659.00,VWS V14.01,2012-12-02 19:20:00,
2012-12-02 14:21:00,79.4,58.0,30.19,NE,48,7.0,7.0,48,0.00,,---,0.00,659.00,VWS V14.01,2012-12-02 19:21:00,
2012-12-02 14:22:00,79.2,57.8,30.19,NNW,341,2.0,9.0,48,0.00,,---,0.00,162.00,VWS V14.01,2012-12-02 19:22:00,
2012-12-02 14:23:00,79.0,58.2,30.19,ENE,59,1.0,9.0,49,0.00,,---,0.00,162.00,VWS V14.01,2012-12-02 19:23:00,
2012-12-02 14:24:00,78.9,58.1,30.19,East,101,6.0,10.0,49,0.00,,---,0.00,105.00,VWS V14.01,2012-12-02 19:24:00,
2012-12-02 14:25:00,78.7,57.4,30.19,ENE,67,1.0,10.0,48,0.00,,---,0.00,109.00,VWS V14.01,2012-12-02 19:25:00,
2012-12-02 14:26:00,78.5,58.3,30.19,ENE,62,1.0,10.0,50,0.00,,---,0.00,109.00,VWS V14.01,2012-12-02 19:26:00,
2012-12-02 14:27:00,78.4,57.7,30.19,ENE,67,0.0,10.0,49,0.00,,---,0.00,109.00,VWS V14.01,2012-12-02 19:27:00,
2012-12-02 14:28:00,78.2,58.1,30.19,NNE,12,1.0,10.0,50,0.00,,---,0.00,70.00,VWS V14.01,2012-12-02 19:28:00,
2012-12-02 14:29:00,78.1,58.0,30.19,ENE,66,2.0,10.0,50,0.00,,---,0.00,65.00,VWS V14.01,2012-12-02 19:29:00,
2012-12-02 14:30:00,78.0,58.4,30.19,NE,55,5.0,10.0,51,0.00,,---,0.00,58.00,VWS V14.01,2012-12-02 19:30:00,
2012-12-02 14:31:00,77.7,58.2,30.19,NE,53,0.0,10.0,51,0.00,,---,0.00,47.00,VWS V14.01,2012-12-02 19:31:00,
2012-12-02 14:32:00,77.5,58.0,30.19,ENE,67,1.0,10.0,51,0.00,,---,0.00,49.00,VWS V14.01,2012-12-02 19:32:00,
2012-12-02 14:33:00,77.3,57.8,30.19,ENE,57,1.0,10.0,51,0.00,,---,0.00,49.00,VWS V14.01,2012-12-02 19:33:00,
2012-12-02 14:34:00,77.1,58.1,30.19,NE,49,3.0,10.0,52,0.00,,---,0.00,47.00,VWS V14.01,2012-12-02 19:34:00,
2012-12-02 14:35:00,77.0,58.0,30.19,East,82,1.0,10.0,52,0.00,,---,0.00,47.00,VWS V14.01,2012-12-02 19:35:00,
2012-12-02 14:36:00,76.8,57.9,30.19,ENE,77,2.0,10.0,52,0.00,,---,0.00,51.00,VWS V14.01,2012-12-02 19:36:00,
2012-12-02 14:37:00,76.7,57.2,30.19,East,81,1.0,10.0,51,0.00,,---,0.00,56.00,VWS V14.01,2012-12-02 19:37:00,
2012-12-02 14:38:00,76.7,57.8,30.19,East,87,4.0,10.0,52,0.00,,---,0.00,56.00,VWS V14.01,2012-12-02 19:38:00,
2012-12-02 14:39:00,76.8,57.9,30.19,East,79,0.0,10.0,52,0.00,,---,0.00,513.00,VWS V14.01,2012-12-02 19:39:00,
2012-12-02 14:40:00,77.0,58.6,30.19,East,79,0.0,10.0,53,0.00,,---,0.00,512.00,VWS V14.01,2012-12-02 19:40:00,
2012-12-02 14:41:00,77.2,58.2,30.19,ENE,77,0.0,10.0,52,0.00,,---,0.00,515.00,VWS V14.01,2012-12-02 19:41:00,
2012-12-02 14:42:00,77.4,58.4,30.19,NNW,333,3.0,10.0,52,0.00,,---,0.00,517.00,VWS V14.01,2012-12-02 19:42:00,
2012-12-02 14:43:00,77.6,57.5,30.19,North,349,0.0,10.0,50,0.00,,---,0.00,520.00,VWS V14.01,2012-12-02 19:43:00,
2012-12-02 14:44:00,77.7,58.7,30.19,ENE,60,1.0,10.0,52,0.00,,---,0.00,526.00,VWS V14.01,2012-12-02 19:44:00,
2012-12-02 14:45:00,78.1,58.0,30.19,ENE,60,0.0,10.0,50,0.00,,---,0.00,526.00,VWS V14.01,2012-12-02 19:45:00,
2012-12-02 14:46:00,78.4,58.2,30.19,ENE,60,0.0,10.0,50,0.00,,---,0.00,533.00,VWS V14.01,2012-12-02 19:46:00,
2012-12-02 14:47:00,78.6,59.0,30.19,NNE,31,4.0,10.0,51,0.00,,---,0.00,536.00,VWS V14.01,2012-12-02 19:47:00,
2012-12-02 14:48:00,78.7,57.4,30.19,ENE,76,0.0,10.0,48,0.00,,---,0.00,540.00,VWS V14.01,2012-12-02 19:48:00,
2012-12-02 14:49:00,79.0,57.7,30.19,NE,50,6.0,10.0,48,0.00,,---,0.00,538.00,VWS V14.01,2012-12-02 19:49:00,
2012-12-02 14:50:00,79.1,57.2,30.19,East,89,1.0,10.0,47,0.00,,---,0.00,536.00,VWS V14.01,2012-12-02 19:50:00,
2012-12-02 14:51:00,79.3,57.3,30.19,WSW,245,0.0,10.0,47,0.00,,---,0.00,536.00,VWS V14.01,2012-12-02 19:51:00,
2012-12-02 14:52:00,79.3,57.3,30.19,ENE,60,2.0,10.0,47,0.00,,---,0.00,533.00,VWS V14.01,2012-12-02 19:52:00,
2012-12-02 14:53:00,79.4,57.4,30.19,ESE,104,4.0,10.0,47,0.00,,---,0.00,529.00,VWS V14.01,2012-12-02 19:53:00,
2012-12-02 14:54:00,79.6,56.4,30.19,ESE,109,5.0,10.0,45,0.00,,---,0.00,524.00,VWS V14.01,2012-12-02 19:54:00,
2012-12-02 14:55:00,79.7,55.2,30.19,SE,141,5.0,10.0,43,0.00,,---,0.00,517.00,VWS V14.01,2012-12-02 19:55:00,
2012-12-02 14:56:00,79.8,54.7,30.19,NE,46,1.0,10.0,42,0.00,,---,0.00,504.00,VWS V14.01,2012-12-02 19:56:00,
2012-12-02 14:57:00,79.9,57.3,30.19,ENE,73,1.0,10.0,46,0.00,,---,0.00,497.00,VWS V14.01,2012-12-02 19:57:00,
2012-12-02 14:58:00,79.9,57.3,30.19,NE,54,0.0,10.0,46,0.00,,---,0.00,497.00,VWS V14.01,2012-12-02 19:58:00,
2012-12-02 14:59:00,79.8,57.2,30.19,NE,54,2.0,10.0,46,0.00,,---,0.00,483.00,VWS V14.01,2012-12-02 19:59:00,
2012-12-02 15:00:00,79.7,57.1,30.19,NE,50,4.0,10.0,46,0.00,,---,0.00,476.00,VWS V14.01,2012-12-02 20:00:00,
2012-12-02 15:01:00,79.7,56.5,30.19,East,79,1.0,3.0,45,0.00,,---,0.00,461.00,VWS V14.01,2012-12-02 20:01:00,
2012-12-02 15:02:00,79.7,57.1,30.19,ENE,72,1.0,3.0,46,0.00,,---,0.00,461.00,VWS V14.01,2012-12-02 20:02:00,
2012-12-02 15:03:00,79.5,56.9,30.19,ENE,72,3.0,3.0,46,0.00,,---,0.00,63.00,VWS V14.01,2012-12-02 20:03:00,
2012-12-02 15:04:00,79.2,56.7,30.19,ENE,64,1.0,3.0,46,0.00,,---,0.00,63.00,VWS V14.01,2012-12-02 20:04:00,
2012-12-02 15:05:00,78.9,55.8,30.19,East,85,4.0,6.0,45,0.00,,---,0.00,62.00,VWS V14.01,2012-12-02 20:05:00,
2012-12-02 15:06:00,78.7,55.6,30.19,ESE,106,6.0,6.0,45,0.00,,---,0.00,56.00,VWS V14.01,2012-12-02 20:06:00,
2012-12-02 15:07:00,78.5,55.4,30.19,NE,56,4.0,6.0,45,0.00,,---,0.00,56.00,VWS V14.01,2012-12-02 20:07:00,
2012-12-02 15:08:00,78.3,55.8,30.19,ENE,77,0.0,6.0,46,0.00,,---,0.00,51.00,VWS V14.01,2012-12-02 20:08:00,
2012-12-02 15:09:00,78.1,56.8,30.19,NE,50,3.0,6.0,48,0.00,,---,0.00,49.00,VWS V14.01,2012-12-02 20:09:00,
2012-12-02 15:10:00,77.8,57.1,30.19,NNW,336,0.0,6.0,49,0.00,,---,0.00,49.00,VWS V14.01,2012-12-02 20:10:00,
2012-12-02 15:11:00,77.6,57.0,30.19,NE,54,3.0,6.0,49,0.00,,---,0.00,47.00,VWS V14.01,2012-12-02 20:11:00,
2012-12-02 15:12:00,77.4,56.8,30.19,ENE,59,2.0,6.0,49,0.00,,---,0.00,46.00,VWS V14.01,2012-12-02 20:12:00,
2012-12-02 15:13:00,77.3,56.7,30.19,NE,56,3.0,6.0,49,0.00,,---,0.00,44.00,VWS V14.01,2012-12-02 20:13:00,
2012-12-02 15:14:00,77.1,56.5,30.19,East,83,1.0,6.0,49,0.00,,---,0.00,44.00,VWS V14.01,2012-12-02 20:14:00,
2012-12-02 15:15:00,77.0,57.0,30.19,NNW,345,3.0,6.0,50,0.00,,---,0.00,46.00,VWS V14.01,2012-12-02 20:15:00,
2012-12-02 15:16:00,76.9,56.9,30.19,ENE,58,2.0,6.0,50,0.00,,---,0.00,46.00,VWS V14.01,2012-12-02 20:16:00,
2012-12-02 15:17:00,76.8,56.8,30.19,NE,39,1.0,6.0,50,0.00,,---,0.00,146.00,VWS V14.01,2012-12-02 20:17:00,
2012-12-02 15:18:00,76.8,57.3,30.19,NE,39,0.0,6.0,51,0.00,,---,0.00,367.00,VWS V14.01,2012-12-02 20:18:00,
2012-12-02 15:19:00,76.9,57.4,30.19,East,85,0.0,6.0,51,0.00,,---,0.00,376.00,VWS V14.01,2012-12-02 20:19:00,
2012-12-02 15:20:00,77.1,58.1,30.19,East,85,1.0,6.0,52,0.00,,---,0.00,376.00,VWS V14.01,2012-12-02 20:20:00,
2012-12-02 15:21:00,77.2,58.2,30.19,ENE,71,0.0,6.0,52,0.00,,---,0.00,376.00,VWS V14.01,2012-12-02 20:21:00,
2012-12-02 15:22:00,77.5,56.9,30.19,ENE,71,0.0,6.0,49,0.00,,---,0.00,378.00,VWS V14.01,2012-12-02 20:22:00,
2012-12-02 15:23:00,77.8,56.6,30.19,ENE,71,2.0,6.0,48,0.00,,---,0.00,381.00,VWS V14.01,2012-12-02 20:23:00,
2012-12-02 15:24:00,78.1,57.4,30.19,ENE,73,0.0,6.0,49,0.00,,---,0.00,381.00,VWS V14.01,2012-12-02 20:24:00,
2012-12-02 15:25:00,78.2,57.5,30.19,ENE,73,1.0,6.0,49,0.00,,---,0.00,381.00,VWS V14.01,2012-12-02 20:25:00,
2012-12-02 15:26:00,78.3,57.0,30.18,ENE,73,0.0,6.0,48,0.00,,---,0.00,381.00,VWS V14.01,2012-12-02 20:26:00,
2012-12-02 15:27:00,78.4,57.7,30.19,ENE,66,1.0,6.0,49,0.00,,---,0.00,381.00,VWS V14.01,2012-12-02 20:27:00,
2012-12-02 15:28:00,78.5,57.2,30.19,ENE,66,1.0,6.0,48,0.00,,---,0.00,381.00,VWS V14.01,2012-12-02 20:28:00,
2012-12-02 15:29:00,78.6,57.3,30.19,East,97,0.0,6.0,48,0.00,,---,0.00,381.00,VWS V14.01,2012-12-02 20:29:00,
2012-12-02 15:30:00,78.7,57.4,30.19,East,97,1.0,6.0,48,0.00,,---,0.00,381.00,VWS V14.01,2012-12-02 20:30:00,
2012-12-02 15:31:00,78.7,56.8,30.19,ENE,64,1.0,6.0,47,0.00,,---,0.00,104.00,VWS V14.01,2012-12-02 20:31:00,
2012-12-02 15:32:00,78.7,57.4,30.19,ENE,64,1.0,6.0,48,0.00,,---,0.00,104.00,VWS V14.01,2012-12-02 20:32:00,
2012-12-02 15:33:00,78.7,57.4,30.18,ENE,68,2.0,6.0,48,0.00,,---,0.00,118.00,VWS V14.01,2012-12-02 20:33:00,
2012-12-02 15:34:00,78.5,57.8,30.19,NNE,13,0.0,6.0,49,0.00,,---,0.00,118.00,VWS V14.01,2012-12-02 20:34:00,
2012-12-02 15:35:00,78.4,58.2,30.19,ENE,61,0.0,6.0,50,0.00,,---,0.00,118.00,VWS V14.01,2012-12-02 20:35:00,
2012-12-02 15:36:00,78.2,58.6,30.18,NE,56,1.0,6.0,51,0.00,,---,0.00,113.00,VWS V14.01,2012-12-02 20:36:00,
2012-12-02 15:37:00,78.0,58.4,30.18,NE,39,1.0,6.0,51,0.00,,---,0.00,104.00,VWS V14.01,2012-12-02 20:37:00,
2012-12-02 15:38:00,77.9,57.8,30.18,NNE,16,2.0,6.0,50,0.00,,---,0.00,100.00,VWS V14.01,2012-12-02 20:38:00,
2012-12-02 15:39:00,77.8,58.2,30.18,NNE,16,0.0,6.0,51,0.00,,---,0.00,100.00,VWS V14.01,2012-12-02 20:39:00,
2012-12-02 15:40:00,77.8,58.2,30.18,NE,50,1.0,6.0,51,0.00,,---,0.00,121.00,VWS V14.01,2012-12-02 20:40:00,
2012-12-02 15:41:00,77.7,58.7,30.18,NE,50,0.0,6.0,52,0.00,,---,0.00,135.00,VWS V14.01,2012-12-02 20:41:00,
2012-12-02 15:42:00,77.7,58.7,30.18,NE,39,1.0,8.0,52,0.00,,---,0.00,86.00,VWS V14.01,2012-12-02 20:42:00,
2012-12-02 15:43:00,77.6,59.1,30.18,NE,39,0.0,8.0,53,0.00,,---,0.00,86.00,VWS V14.01,2012-12-02 20:43:00,
2012-12-02 15:44:00,77.6,58.6,30.18,NE,52,1.0,8.0,52,0.00,,---,0.00,65.00,VWS V14.01,2012-12-02 20:44:00,
2012-12-02 15:45:00,77.5,59.0,30.18,North,360,0.0,8.0,53,0.00,,---,0.00,56.00,VWS V14.01,2012-12-02 20:45:00,
2012-12-02 15:46:00,77.5,58.5,30.18,North,360,0.0,8.0,52,0.00,,---,0.00,51.00,VWS V14.01,2012-12-02 20:46:00,
2012-12-02 15:47:00,77.4,57.3,30.18,ENE,72,3.0,8.0,50,0.00,,---,0.00,49.00,VWS V14.01,2012-12-02 20:47:00,
2012-12-02 15:48:00,77.5,58.0,30.18,NE,38,2.0,8.0,51,0.00,,---,0.00,49.00,VWS V14.01,2012-12-02 20:48:00,
2012-12-02 15:49:00,77.5,58.0,30.18,East,99,6.0,8.0,51,0.00,,---,0.00,40.00,VWS V14.01,2012-12-02 20:49:00,
2012-12-02 15:50:00,77.5,57.4,30.18,ENE,58,5.0,8.0,50,0.00,,---,0.00,40.00,VWS V14.01,2012-12-02 20:50:00,
2012-12-02 15:51:00,77.6,57.0,30.18,NNE,14,3.0,8.0,49,0.00,,---,0.00,39.00,VWS V14.01,2012-12-02 20:51:00,
2012-12-02 15:52:00,77.7,57.6,30.18,NNE,26,2.0,8.0,50,0.00,,---,0.00,39.00,VWS V14.01,2012-12-02 20:52:00,
2012-12-02 15:53:00,77.8,57.1,30.18,NE,51,4.0,8.0,49,0.00,,---,0.00,39.00,VWS V14.01,2012-12-02 20:53:00,
2012-12-02 15:54:00,77.8,57.7,30.18,NE,50,4.0,8.0,50,0.00,,---,0.00,39.00,VWS V14.01,2012-12-02 20:54:00,
2012-12-02 15:55:00,77.9,57.8,30.18,ENE,58,1.0,8.0,50,0.00,,---,0.00,54.00,VWS V14.01,2012-12-02 20:55:00,
2012-12-02 15:56:00,77.8,57.7,30.18,ENE,65,4.0,8.0,50,0.00,,---,0.00,58.00,VWS V14.01,2012-12-02 20:56:00,
2012-12-02 15:57:00,77.8,57.1,30.18,East,83,5.0,8.0,49,0.00,,---,0.00,39.00,VWS V14.01,2012-12-02 20:57:00,
2012-12-02 15:58:00,77.7,57.0,30.18,East,80,2.0,8.0,49,0.00,,---,0.00,32.00,VWS V14.01,2012-12-02 20:58:00,
2012-12-02 15:59:00,77.7,57.0,30.18,East,95,1.0,8.0,49,0.00,,---,0.00,26.00,VWS V14.01,2012-12-02 20:59:00,
2012-12-02 16:00:00,77.7,57.6,30.18,East,81,3.0,8.0,50,0.00,,---,0.00,26.00,VWS V14.01,2012-12-02 21:00:00,
2012-12-02 16:01:00,77.6,57.5,30.18,North,2,2.0,4.0,50,0.00,,---,0.00,26.00,VWS V14.01,2012-12-02 21:01:00,
2012-12-02 16:02:00,77.5,58.0,30.18,North,350,0.0,4.0,51,0.00,,---,0.00,28.00,VWS V14.01,2012-12-02 21:02:00,
2012-12-02 16:03:00,77.4,58.4,30.18,North,350,0.0,4.0,52,0.00,,---,0.00,32.00,VWS V14.01,2012-12-02 21:03:00,
2012-12-02 16:04:00,77.2,58.2,30.18,NE,47,1.0,4.0,52,0.00,,---,0.00,32.00,VWS V14.01,2012-12-02 21:04:00,
2012-12-02 16:05:00,77.1,57.6,30.18,NNE,26,0.0,4.0,51,0.00,,---,0.00,32.00,VWS V14.01,2012-12-02 21:05:00,
2012-12-02 16:06:00,76.9,58.0,30.18,NNE,26,1.0,4.0,52,0.00,,---,0.00,32.00,VWS V14.01,2012-12-02 21:06:00,
2012-12-02 16:07:00,76.8,57.9,30.18,NNE,29,1.0,4.0,52,0.00,,---,0.00,32.00,VWS V14.01,2012-12-02 21:07:00,
2012-12-02 16:08:00,76.7,57.8,30.18,NNE,29,0.0,4.0,52,0.00,,---,0.00,32.00,VWS V14.01,2012-12-02 21:08:00,
2012-12-02 16:09:00,76.7,57.8,30.18,NNE,29,0.0,4.0,52,0.00,,---,0.00,32.00,VWS V14.01,2012-12-02 21:09:00,
2012-12-02 16:10:00,76.7,57.8,30.18,NNE,28,1.0,4.0,52,0.00,,---,0.00,32.00,VWS V14.01,2012-12-02 21:10:00,
2012-12-02 16:11:00,76.7,57.8,30.18,NE,46,1.0,4.0,52,0.00,,---,0.00,32.00,VWS V14.01,2012-12-02 21:11:00,
2012-12-02 16:12:00,76.8,57.3,30.18,NE,45,1.0,4.0,51,0.00,,---,0.00,32.00,VWS V14.01,2012-12-02 21:12:00,
2012-12-02 16:13:00,76.8,57.9,30.18,NE,45,1.0,4.0,52,0.00,,---,0.00,32.00,VWS V14.01,2012-12-02 21:13:00,
2012-12-02 16:14:00,76.9,58.0,30.18,ENE,60,1.0,4.0,52,0.00,,---,0.00,32.00,VWS V14.01,2012-12-02 21:14:00,
2012-12-02 16:15:00,77.0,58.0,30.18,ENE,60,0.0,4.0,52,0.00,,---,0.00,32.00,VWS V14.01,2012-12-02 21:15:00,
2012-12-02 16:16:00,77.0,58.0,30.18,ENE,60,1.0,4.0,52,0.00,,---,0.00,32.00,VWS V14.01,2012-12-02 21:16:00,
2012-12-02 16:17:00,77.1,58.1,30.18,ENE,60,0.0,4.0,52,0.00,,---,0.00,32.00,VWS V14.01,2012-12-02 21:17:00,
2012-12-02 16:18:00,77.1,58.7,30.18,NNE,18,0.0,4.0,53,0.00,,---,0.00,32.00,VWS V14.01,2012-12-02 21:18:00,
2012-12-02 16:19:00,77.1,58.1,30.18,NE,48,2.0,4.0,52,0.00,,---,0.00,33.00,VWS V14.01,2012-12-02 21:19:00,
2012-12-02 16:20:00,77.1,58.1,30.18,ESE,120,1.0,4.0,52,0.00,,---,0.00,33.00,VWS V14.01,2012-12-02 21:20:00,
2012-12-02 16:21:00,77.1,57.6,30.18,ESE,120,0.0,4.0,51,0.00,,---,0.00,33.00,VWS V14.01,2012-12-02 21:21:00,
2012-12-02 16:22:00,77.2,57.1,30.18,NE,39,0.0,4.0,50,0.00,,---,0.00,33.00,VWS V14.01,2012-12-02 21:22:00,
2012-12-02 16:23:00,77.2,57.1,30.18,East,98,1.0,4.0,50,0.00,,---,0.00,33.00,VWS V14.01,2012-12-02 21:23:00,
2012-12-02 16:24:00,77.3,57.2,30.18,NE,55,1.0,4.0,50,0.00,,---,0.00,33.00,VWS V14.01,2012-12-02 21:24:00,
2012-12-02 16:25:00,77.3,57.8,30.18,NE,49,0.0,4.0,51,0.00,,---,0.00,33.00,VWS V14.01,2012-12-02 21:25:00,
2012-12-02 16:26:00,77.3,57.8,30.19,North,9,1.0,6.0,51,0.00,,---,0.00,33.00,VWS V14.01,2012-12-02 21:26:00,
2012-12-02 16:27:00,77.3,58.3,30.19,NE,34,1.0,6.0,52,0.00,,---,0.00,33.00,VWS V14.01,2012-12-02 21:27:00,
2012-12-02 16:28:00,77.2,57.7,30.19,North,6,1.0,6.0,51,0.00,,---,0.00,33.00,VWS V14.01,2012-12-02 21:28:00,
2012-12-02 16:29:00,77.2,58.8,30.19,ENE,60,4.0,6.0,53,0.00,,---,0.00,30.00,VWS V14.01,2012-12-02 21:29:00,
2012-12-02 16:30:00,77.1,58.1,30.18,ENE,75,1.0,6.0,52,0.00,,---,0.00,30.00,VWS V14.01,2012-12-02 21:30:00,
2012-12-02 16:31:00,77.0,58.6,30.18,NNE,30,1.0,6.0,53,0.00,,---,0.00,30.00,VWS V14.01,2012-12-02 21:31:00,
2012-12-02 16:32:00,77.0,59.1,30.18,East,87,3.0,6.0,54,0.00,,---,0.00,30.00,VWS V14.01,2012-12-02 21:32:00,
2012-12-02 16:33:00,76.9,58.5,30.18,ENE,75,1.0,6.0,53,0.00,,---,0.00,28.00,VWS V14.01,2012-12-02 21:33:00,
2012-12-02 16:34:00,76.9,59.0,30.19,ESE,116,2.0,6.0,54,0.00,,---,0.00,26.00,VWS V14.01,2012-12-02 21:34:00,
2012-12-02 16:35:00,76.8,58.9,30.19,NE,51,2.0,6.0,54,0.00,,---,0.00,26.00,VWS V14.01,2012-12-02 21:35:00,
2012-12-02 16:36:00,76.7,58.8,30.19,NE,50,0.0,6.0,54,0.00,,---,0.00,26.00,VWS V14.01,2012-12-02 21:36:00,
2012-12-02 16:37:00,76.6,59.2,30.19,NNE,29,0.0,6.0,55,0.00,,---,0.00,26.00,VWS V14.01,2012-12-02 21:37:00,
2012-12-02 16:38:00,76.6,58.2,30.19,NE,37,0.0,6.0,53,0.00,,---,0.00,26.00,VWS V14.01,2012-12-02 21:38:00,
2012-12-02 16:39:00,76.5,59.2,30.19,NNE,28,0.0,6.0,55,0.00,,---,0.00,25.00,VWS V14.01,2012-12-02 21:39:00,
2012-12-02 16:40:00,76.5,58.6,30.19,NNE,28,0.0,6.0,54,0.00,,---,0.00,25.00,VWS V14.01,2012-12-02 21:40:00,
2012-12-02 16:41:00,76.5,58.6,30.19,East,100,1.0,6.0,54,0.00,,---,0.00,25.00,VWS V14.01,2012-12-02 21:41:00,
2012-12-02 16:42:00,76.5,58.6,30.19,East,100,0.0,6.0,54,0.00,,---,0.00,25.00,VWS V14.01,2012-12-02 21:42:00,
2012-12-02 16:43:00,76.5,59.2,30.19,East,84,2.0,6.0,55,0.00,,---,0.00,23.00,VWS V14.01,2012-12-02 21:43:00,
2012-12-02 16:44:00,76.4,58.5,30.19,NE,43,3.0,6.0,54,0.00,,---,0.00,23.00,VWS V14.01,2012-12-02 21:44:00,
2012-12-02 16:45:00,76.4,59.1,30.19,NE,43,1.0,6.0,55,0.00,,---,0.00,23.00,VWS V14.01,2012-12-02 21:45:00,
2012-12-02 16:46:00,76.4,58.5,30.19,ESE,104,1.0,6.0,54,0.00,,---,0.00,21.00,VWS V14.01,2012-12-02 21:46:00,
2012-12-02 16:47:00,76.4,58.5,30.19,ESE,104,1.0,6.0,54,0.00,,---,0.00,21.00,VWS V14.01,2012-12-02 21:47:00,
2012-12-02 16:48:00,76.3,58.5,30.19,ESE,106,1.0,6.0,54,0.00,,---,0.00,21.00,VWS V14.01,2012-12-02 21:48:00,
2012-12-02 16:49:00,76.3,58.5,30.19,ENE,69,1.0,6.0,54,0.00,,---,0.00,19.00,VWS V14.01,2012-12-02 21:49:00,
2012-12-02 16:50:00,76.3,58.5,30.19,ENE,69,0.0,6.0,54,0.00,,---,0.00,19.00,VWS V14.01,2012-12-02 21:50:00,
2012-12-02 16:51:00,76.3,58.5,30.19,ENE,69,1.0,6.0,54,0.00,,---,0.00,19.00,VWS V14.01,2012-12-02 21:51:00,
2012-12-02 16:52:00,76.2,58.4,30.19,ENE,69,1.0,6.0,54,0.00,,---,0.00,18.00,VWS V14.01,2012-12-02 21:52:00,
2012-12-02 16:53:00,76.2,58.4,30.19,East,81,1.0,6.0,54,0.00,,---,0.00,18.00,VWS V14.01,2012-12-02 21:53:00,
2012-12-02 16:54:00,76.2,58.4,30.19,East,81,0.0,6.0,54,0.00,,---,0.00,18.00,VWS V14.01,2012-12-02 21:54:00,
2012-12-02 16:55:00,76.2,58.4,30.19,East,81,1.0,6.0,54,0.00,,---,0.00,18.00,VWS V14.01,2012-12-02 21:55:00,
2012-12-02 16:56:00,76.1,58.8,30.19,East,81,2.0,6.0,55,0.00,,---,0.00,16.00,VWS V14.01,2012-12-02 21:56:00,
2012-12-02 16:57:00,76.0,58.7,30.19,East,87,3.0,6.0,55,0.00,,---,0.00,16.00,VWS V14.01,2012-12-02 21:57:00,
2012-12-02 16:58:00,76.0,58.2,30.19,NE,50,3.0,6.0,54,0.00,,---,0.00,16.00,VWS V14.01,2012-12-02 21:58:00,
2012-12-02 16:59:00,76.0,58.7,30.19,ENE,58,2.0,6.0,55,0.00,,---,0.00,14.00,VWS V14.01,2012-12-02 21:59:00,
2012-12-02 17:00:00,75.9,58.6,30.19,ENE,58,0.0,6.0,55,0.00,,---,0.00,14.00,VWS V14.01,2012-12-02 22:00:00,
2012-12-02 17:01:00,75.8,58.5,30.19,NE,51,0.0,2.0,55,0.00,,---,0.00,14.00,VWS V14.01,2012-12-02 22:01:00,
2012-12-02 17:02:00,75.7,58.9,30.19,NE,51,0.0,2.0,56,0.00,,---,0.00,14.00,VWS V14.01,2012-12-02 22:02:00,
2012-12-02 17:03:00,75.6,58.8,30.19,NE,47,2.0,2.0,56,0.00,,---,0.00,12.00,VWS V14.01,2012-12-02 22:03:00,
2012-12-02 17:04:00,75.4,58.6,30.19,East,80,1.0,2.0,56,0.00,,---,0.00,12.00,VWS V14.01,2012-12-02 22:04:00,
2012-12-02 17:05:00,75.3,58.5,30.19,ENE,72,1.0,2.0,56,0.00,,---,0.00,12.00,VWS V14.01,2012-12-02 22:05:00,
2012-12-02 17:06:00,75.1,58.3,30.19,ENE,72,1.0,2.0,56,0.00,,---,0.00,12.00,VWS V14.01,2012-12-02 22:06:00,
2012-12-02 17:07:00,75.0,58.8,30.19,ENE,71,1.0,2.0,57,0.00,,---,0.00,11.00,VWS V14.01,2012-12-02 22:07:00,
2012-12-02 17:08:00,74.9,58.7,30.19,East,91,0.0,2.0,57,0.00,,---,0.00,11.00,VWS V14.01,2012-12-02 22:08:00,
2012-12-02 17:09:00,74.8,58.6,30.19,ENE,59,0.0,3.0,57,0.00,,---,0.00,11.00,VWS V14.01,2012-12-02 22:09:00,
2012-12-02 17:10:00,74.8,58.6,30.19,ENE,59,1.0,3.0,57,0.00,,---,0.00,11.00,VWS V14.01,2012-12-02 22:10:00,
2012-12-02 17:11:00,74.7,59.0,30.19,ENE,59,0.0,3.0,58,0.00,,---,0.00,9.00,VWS V14.01,2012-12-02 22:11:00,
2012-12-02 17:12:00,74.7,59.0,30.19,ENE,59,0.0,3.0,58,0.00,,---,0.00,9.00,VWS V14.01,2012-12-02 22:12:00,
2012-12-02 17:13:00,74.6,58.9,30.19,ENE,59,1.0,3.0,58,0.00,,---,0.00,9.00,VWS V14.01,2012-12-02 22:13:00,
2012-12-02 17:14:00,74.5,58.8,30.19,ENE,60,0.0,3.0,58,0.00,,---,0.00,9.00,VWS V14.01,2012-12-02 22:14:00,
2012-12-02 17:15:00,74.4,58.7,30.19,ENE,58,0.0,3.0,58,0.00,,---,0.00,7.00,VWS V14.01,2012-12-02 22:15:00,
2012-12-02 17:16:00,74.3,58.6,30.19,ENE,58,0.0,3.0,58,0.00,,---,0.00,7.00,VWS V14.01,2012-12-02 22:16:00,
2012-12-02 17:17:00,74.2,59.0,30.19,ENE,58,0.0,3.0,59,0.00,,---,0.00,7.00,VWS V14.01,2012-12-02 22:17:00,
2012-12-02 17:18:00,74.0,58.8,30.19,ENE,58,0.0,3.0,59,0.00,,---,0.00,7.00,VWS V14.01,2012-12-02 22:18:00,
2012-12-02 17:19:00,73.9,58.7,30.19,NE,56,0.0,3.0,59,0.00,,---,0.00,5.00,VWS V14.01,2012-12-02 22:19:00,
2012-12-02 17:20:00,73.7,59.0,30.19,NE,56,0.0,3.0,60,0.00,,---,0.00,5.00,VWS V14.01,2012-12-02 22:20:00,
2012-12-02 17:21:00,73.6,58.9,30.19,NE,56,0.0,3.0,60,0.00,,---,0.00,5.00,VWS V14.01,2012-12-02 22:21:00,
2012-12-02 17:22:00,73.5,58.8,30.19,NE,56,0.0,3.0,60,0.00,,---,0.00,5.00,VWS V14.01,2012-12-02 22:22:00,
2012-12-02 17:23:00,73.4,58.7,30.19,NE,56,0.0,3.0,60,0.00,,---,0.00,0.00,VWS V14.01,2012-12-02 22:23:00,
2012-12-02 17:24:00,73.2,58.5,30.19,NE,56,0.0,3.0,60,0.00,,---,0.00,0.00,VWS V14.01,2012-12-02 22:24:00,
2012-12-02 17:25:00,73.1,58.4,30.19,NE,56,0.0,3.0,60,0.00,,---,0.00,0.00,VWS V14.01,2012-12-02 22:25:00,
2012-12-02 17:26:00,73.0,58.8,30.19,NE,56,0.0,3.0,61,0.00,,---,0.00,0.00,VWS V14.01,2012-12-02 22:26:00,
2012-12-02 17:27:00,72.9,58.7,30.19,NE,56,0.0,3.0,61,0.00,,---,0.00,0.00,VWS V14.01,2012-12-02 22:27:00,
2012-12-02 17:28:00,72.8,58.6,30.19,NE,56,1.0,3.0,61,0.00,,---,0.00,0.00,VWS V14.01,2012-12-02 22:28:00,
2012-12-02 17:29:00,72.7,58.9,30.19,NE,56,0.0,3.0,62,0.00,,---,0.00,0.00,VWS V14.01,2012-12-02 22:29:00,
2012-12-02 17:30:00,72.5,58.8,30.19,NE,56,0.0,3.0,62,0.00,,---,0.00,0.00,VWS V14.01,2012-12-02 22:30:00,
2012-12-02 17:31:00,72.4,58.7,30.19,NE,56,0.0,3.0,62,0.00,,---,0.00,0.00,VWS V14.01,2012-12-02 22:31:00,
2012-12-02 17:32:00,72.3,59.5,30.19,NE,56,0.0,3.0,64,0.00,,---,0.00,0.00,VWS V14.01,2012-12-02 22:32:00,
2012-12-02 17:33:00,72.2,60.2,30.19,NE,56,0.0,3.0,66,0.00,,---,0.00,0.00,VWS V14.01,2012-12-02 22:33:00,
2012-12-02 17:34:00,72.0,60.9,30.19,NE,56,0.0,3.0,68,0.00,,---,0.00,0.00,VWS V14.01,2012-12-02 22:34:00,
2012-12-02 17:35:00,71.8,61.1,30.19,NE,56,0.0,3.0,69,0.00,,---,0.00,0.00,VWS V14.01,2012-12-02 22:35:00,
2012-12-02 17:36:00,71.6,60.1,30.19,NE,56,0.0,3.0,67,0.00,,---,0.00,0.00,VWS V14.01,2012-12-02 22:36:00,
2012-12-02 17:37:00,71.5,60.0,30.19,NE,56,0.0,3.0,67,0.00,,---,0.00,0.00,VWS V14.01,2012-12-02 22:37:00,
2012-12-02 17:38:00,71.3,60.2,30.19,NE,56,0.0,3.0,68,0.00,,---,0.00,0.00,VWS V14.01,2012-12-02 22:38:00,
2012-12-02 17:39:00,71.3,60.2,30.19,NE,56,0.0,3.0,68,0.00,,---,0.00,0.00,VWS V14.01,2012-12-02 22:39:00,
2012-12-02 17:40:00,71.2,60.1,30.19,NE,56,0.0,3.0,68,0.00,,---,0.00,0.00,VWS V14.01,2012-12-02 22:40:00,
2012-12-02 17:41:00,71.1,60.0,30.19,NE,56,0.0,3.0,68,0.00,,---,0.00,0.00,VWS V14.01,2012-12-02 22:41:00,
2012-12-02 17:42:00,71.0,59.9,30.19,NE,56,0.0,3.0,68,0.00,,---,0.00,0.00,VWS V14.01,2012-12-02 22:42:00,
2012-12-02 17:43:00,71.0,59.9,30.19,NE,56,0.0,3.0,68,0.00,,---,0.00,0.00,VWS V14.01,2012-12-02 22:43:00,
2012-12-02 17:44:00,70.9,59.4,30.19,NE,56,0.0,3.0,67,0.00,,---,0.00,0.00,VWS V14.01,2012-12-02 22:44:00,
2012-12-02 17:45:00,70.8,58.9,30.19,NE,56,0.0,3.0,66,0.00,,---,0.00,0.00,VWS V14.01,2012-12-02 22:45:00,
2012-12-02 17:46:00,70.8,58.9,30.19,NE,56,0.0,3.0,66,0.00,,---,0.00,0.00,VWS V14.01,2012-12-02 22:46:00,
2012-12-02 17:47:00,70.8,58.9,30.19,NE,56,0.0,3.0,66,0.00,,---,0.00,0.00,VWS V14.01,2012-12-02 22:47:00,
2012-12-02 17:48:00,70.7,58.8,30.19,NE,56,0.0,3.0,66,0.00,,---,0.00,0.00,VWS V14.01,2012-12-02 22:48:00,
2012-12-02 17:49:00,70.7,58.8,30.19,NE,56,0.0,3.0,66,0.00,,---,0.00,0.00,VWS V14.01,2012-12-02 22:49:00,
2012-12-02 17:50:00,70.5,59.0,30.19,NE,56,0.0,3.0,67,0.00,,---,0.00,0.00,VWS V14.01,2012-12-02 22:50:00,
2012-12-02 17:51:00,70.5,59.0,30.19,NE,56,0.0,3.0,67,0.00,,---,0.00,0.00,VWS V14.01,2012-12-02 22:51:00,
2012-12-02 17:52:00,70.3,59.2,30.19,NE,56,0.0,3.0,68,0.00,,---,0.00,0.00,VWS V14.01,2012-12-02 22:52:00,
2012-12-02 17:53:00,70.2,59.2,30.19,NE,56,0.0,3.0,68,0.00,,---,0.00,0.00,VWS V14.01,2012-12-02 22:53:00,
2012-12-02 17:54:00,70.1,59.1,30.19,NE,56,0.0,3.0,68,0.00,,---,0.00,0.00,VWS V14.01,2012-12-02 22:54:00,
2012-12-02 17:55:00,70.1,59.1,30.19,NE,50,1.0,4.0,68,0.00,,---,0.00,0.00,VWS V14.01,2012-12-02 22:55:00,
2012-12-02 17:56:00,69.9,58.9,30.19,NE,50,0.0,4.0,68,0.00,,---,0.00,0.00,VWS V14.01,2012-12-02 22:56:00,
2012-12-02 17:57:00,69.9,58.9,30.19,NE,50,0.0,4.0,68,0.00,,---,0.00,0.00,VWS V14.01,2012-12-02 22:57:00,
2012-12-02 17:58:00,69.7,58.7,30.19,NE,50,0.0,4.0,68,0.00,,---,0.00,0.00,VWS V14.01,2012-12-02 22:58:00,
2012-12-02 17:59:00,69.7,58.7,30.19,NE,50,1.0,4.0,68,0.00,,---,0.00,0.00,VWS V14.01,2012-12-02 22:59:00,
2012-12-02 18:00:00,69.6,58.6,30.19,NE,50,0.0,4.0,68,0.00,,---,0.00,0.00,VWS V14.01,2012-12-02 23:00:00,
2012-12-02 18:01:00,69.6,59.0,30.20,North,8,1.0,1.0,69,0.00,,---,0.00,0.00,VWS V14.01,2012-12-02 23:01:00,
2012-12-02 18:02:00,69.6,59.0,30.19,NNE,15,0.0,2.0,69,0.00,,---,0.00,0.00,VWS V14.01,2012-12-02 23:02:00,
2012-12-02 18:03:00,69.6,59.0,30.19,NE,55,1.0,2.0,69,0.00,,---,0.00,0.00,VWS V14.01,2012-12-02 23:03:00,
2012-12-02 18:04:00,69.7,59.1,30.20,NE,56,0.0,2.0,69,0.00,,---,0.00,0.00,VWS V14.01,2012-12-02 23:04:00,
2012-12-02 18:05:00,69.8,58.8,30.20,ENE,60,1.0,3.0,68,0.00,,---,0.00,0.00,VWS V14.01,2012-12-02 23:05:00,
2012-12-02 18:06:00,69.9,58.9,30.20,ENE,63,0.0,3.0,68,0.00,,---,0.00,0.00,VWS V14.01,2012-12-02 23:06:00,
2012-12-02 18:07:00,69.9,58.9,30.20,ENE,63,0.0,3.0,68,0.00,,---,0.00,0.00,VWS V14.01,2012-12-02 23:07:00,
2012-12-02 18:08:00,70.0,59.0,30.20,ENE,63,0.0,3.0,68,0.00,,---,0.00,0.00,VWS V14.01,2012-12-02 23:08:00,
2012-12-02 18:09:00,70.1,59.1,30.20,ENE,63,0.0,3.0,68,0.00,,---,0.00,0.00,VWS V14.01,2012-12-02 23:09:00,
2012-12-02 18:10:00,70.1,59.1,30.20,ENE,63,0.0,3.0,68,0.00,,---,0.00,0.00,VWS V14.01,2012-12-02 23:10:00,
2012-12-02 18:11:00,70.1,59.1,30.20,ENE,63,0.0,3.0,68,0.00,,---,0.00,0.00,VWS V14.01,2012-12-02 23:11:00,
2012-12-02 18:12:00,70.1,59.1,30.20,ENE,63,0.0,3.0,68,0.00,,---,0.00,0.00,VWS V14.01,2012-12-02 23:12:00,
2012-12-02 18:13:00,70.1,59.1,30.20,ENE,63,0.0,3.0,68,0.00,,---,0.00,0.00,VWS V14.01,2012-12-02 23:13:00,
2012-12-02 18:14:00,70.0,59.0,30.20,ENE,63,0.0,3.0,68,0.00,,---,0.00,0.00,VWS V14.01,2012-12-02 23:14:00,
2012-12-02 18:15:00,70.0,59.0,30.20,ENE,63,0.0,3.0,68,0.00,,---,0.00,0.00,VWS V14.01,2012-12-02 23:15:00,
2012-12-02 18:16:00,70.0,59.4,30.20,ENE,63,0.0,3.0,69,0.00,,---,0.00,0.00,VWS V14.01,2012-12-02 23:16:00,
2012-12-02 18:17:00,70.0,59.4,30.20,ENE,63,0.0,3.0,69,0.00,,---,0.00,0.00,VWS V14.01,2012-12-02 23:17:00,
2012-12-02 18:18:00,69.9,59.3,30.20,ENE,63,1.0,3.0,69,0.00,,---,0.00,0.00,VWS V14.01,2012-12-02 23:18:00,
2012-12-02 18:19:00,69.9,59.3,30.20,ENE,63,0.0,3.0,69,0.00,,---,0.00,0.00,VWS V14.01,2012-12-02 23:19:00,
2012-12-02 18:20:00,69.9,59.3,30.20,ENE,63,0.0,3.0,69,0.00,,---,0.00,0.00,VWS V14.01,2012-12-02 23:20:00,
2012-12-02 18:21:00,69.9,59.3,30.20,ENE,63,1.0,3.0,69,0.00,,---,0.00,0.00,VWS V14.01,2012-12-02 23:21:00,
2012-12-02 18:22:00,69.9,59.3,30.20,ENE,63,0.0,3.0,69,0.00,,---,0.00,0.00,VWS V14.01,2012-12-02 23:22:00,
2012-12-02 18:23:00,69.8,59.2,30.20,ENE,63,1.0,3.0,69,0.00,,---,0.00,0.00,VWS V14.01,2012-12-02 23:23:00,
2012-12-02 18:24:00,69.8,59.2,30.20,ENE,62,1.0,3.0,69,0.00,,---,0.00,0.00,VWS V14.01,2012-12-02 23:24:00,
2012-12-02 18:25:00,69.8,59.2,30.20,ENE,63,0.0,3.0,69,0.00,,---,0.00,0.00,VWS V14.01,2012-12-02 23:25:00,
2012-12-02 18:26:00,69.8,59.6,30.20,NE,40,0.0,3.0,70,0.00,,---,0.00,0.00,VWS V14.01,2012-12-02 23:26:00,
2012-12-02 18:27:00,69.7,59.5,30.20,NE,40,1.0,3.0,70,0.00,,---,0.00,0.00,VWS V14.01,2012-12-02 23:27:00,
2012-12-02 18:28:00,69.8,59.6,30.20,ENE,72,2.0,3.0,70,0.00,,---,0.00,0.00,VWS V14.01,2012-12-02 23:28:00,
2012-12-02 18:29:00,69.8,59.6,30.20,NE,39,1.0,3.0,70,0.00,,---,0.00,0.00,VWS V14.01,2012-12-02 23:29:00,
2012-12-02 18:30:00,69.9,59.7,30.20,NE,39,0.0,3.0,70,0.00,,---,0.00,0.00,VWS V14.01,2012-12-02 23:30:00,
2012-12-02 18:31:00,69.8,59.6,30.20,NE,55,1.0,3.0,70,0.00,,---,0.00,0.00,VWS V14.01,2012-12-02 23:31:00,
2012-12-02 18:32:00,69.9,59.7,30.20,East,82,1.0,3.0,70,0.00,,---,0.00,0.00,VWS V14.01,2012-12-02 23:32:00,
2012-12-02 18:33:00,69.9,59.7,30.20,ENE,77,1.0,3.0,70,0.00,,---,0.00,0.00,VWS V14.01,2012-12-02 23:33:00,
2012-12-02 18:34:00,69.9,59.7,30.20,East,91,1.0,3.0,70,0.00,,---,0.00,0.00,VWS V14.01,2012-12-02 23:34:00,
2012-12-02 18:35:00,70.0,59.8,30.20,East,91,0.0,3.0,70,0.00,,---,0.00,0.00,VWS V14.01,2012-12-02 23:35:00,
2012-12-02 18:36:00,70.0,59.4,30.20,East,85,0.0,3.0,69,0.00,,---,0.00,0.00,VWS V14.01,2012-12-02 23:36:00,
2012-12-02 18:37:00,70.1,59.5,30.20,East,85,0.0,3.0,69,0.00,,---,0.00,0.00,VWS V14.01,2012-12-02 23:37:00,
2012-12-02 18:38:00,70.1,59.5,30.20,ENE,62,0.0,3.0,69,0.00,,---,0.00,0.00,VWS V14.01,2012-12-02 23:38:00,
2012-12-02 18:39:00,70.1,59.5,30.20,ENE,62,0.0,3.0,69,0.00,,---,0.00,0.00,VWS V14.01,2012-12-02 23:39:00,
2012-12-02 18:40:00,70.1,59.5,30.20,ENE,70,0.0,3.0,69,0.00,,---,0.00,0.00,VWS V14.01,2012-12-02 23:40:00,
2012-12-02 18:41:00,69.9,59.3,30.21,ENE,69,1.0,3.0,69,0.00,,---,0.00,0.00,VWS V14.01,2012-12-02 23:41:00,
2012-12-02 18:42:00,69.9,59.7,30.21,NE,46,2.0,3.0,70,0.00,,---,0.00,0.00,VWS V14.01,2012-12-02 23:42:00,
2012-12-02 18:43:00,69.9,59.7,30.21,NE,45,2.0,3.0,70,0.00,,---,0.00,0.00,VWS V14.01,2012-12-02 23:43:00,
2012-12-02 18:44:00,69.8,59.6,30.21,ENE,59,2.0,3.0,70,0.00,,---,0.00,0.00,VWS V14.01,2012-12-02 23:44:00,
2012-12-02 18:45:00,69.9,59.7,30.21,ENE,59,1.0,3.0,70,0.00,,---,0.00,0.00,VWS V14.01,2012-12-02 23:45:00,
2012-12-02 18:46:00,69.9,59.7,30.21,ENE,59,0.0,3.0,70,0.00,,---,0.00,0.00,VWS V14.01,2012-12-02 23:46:00,
2012-12-02 18:47:00,69.8,59.6,30.21,ENE,59,0.0,3.0,70,0.00,,---,0.00,0.00,VWS V14.01,2012-12-02 23:47:00,
2012-12-02 18:48:00,69.8,59.6,30.21,ENE,59,0.0,3.0,70,0.00,,---,0.00,0.00,VWS V14.01,2012-12-02 23:48:00,
2012-12-02 18:49:00,69.8,59.6,30.21,NE,41,0.0,3.0,70,0.00,,---,0.00,0.00,VWS V14.01,2012-12-02 23:49:00,
2012-12-02 18:50:00,69.8,59.6,30.21,NE,41,0.0,3.0,70,0.00,,---,0.00,0.00,VWS V14.01,2012-12-02 23:50:00,
2012-12-02 18:51:00,69.8,59.6,30.21,NE,45,1.0,3.0,70,0.00,,---,0.00,0.00,VWS V14.01,2012-12-02 23:51:00,
2012-12-02 18:52:00,69.7,59.5,30.21,NE,45,0.0,3.0,70,0.00,,---,0.00,0.00,VWS V14.01,2012-12-02 23:52:00,
2012-12-02 18:53:00,69.7,59.5,30.21,NNE,17,0.0,3.0,70,0.00,,---,0.00,0.00,VWS V14.01,2012-12-02 23:53:00,
2012-12-02 18:54:00,69.7,59.5,30.21,ENE,62,1.0,3.0,70,0.00,,---,0.00,0.00,VWS V14.01,2012-12-02 23:54:00,
2012-12-02 18:55:00,69.7,59.5,30.21,ENE,62,0.0,3.0,70,0.00,,---,0.00,0.00,VWS V14.01,2012-12-02 23:55:00,
2012-12-02 18:56:00,69.7,59.9,30.21,ENE,60,1.0,3.0,71,0.00,,---,0.00,0.00,VWS V14.01,2012-12-02 23:56:00,
2012-12-02 18:57:00,69.7,59.9,30.21,ENE,60,1.0,3.0,71,0.00,,---,0.00,0.00,VWS V14.01,2012-12-02 23:57:00,
2012-12-02 18:58:00,69.7,59.9,30.21,ENE,60,1.0,3.0,71,0.00,,---,0.00,0.00,VWS V14.01,2012-12-02 23:58:00,
2012-12-02 18:59:00,69.6,59.8,30.21,ENE,72,3.0,3.0,71,0.00,,---,0.00,0.00,VWS V14.01,2012-12-02 23:59:00,
2012-12-02 19:00:00,69.6,59.8,30.21,ENE,75,3.0,3.0,71,0.00,,---,0.00,0.00,VWS V14.01,2012-12-03 00:00:00,
2012-12-02 19:01:00,69.5,59.7,30.21,East,86,0.0,3.0,71,0.00,,---,0.00,0.00,VWS V14.01,2012-12-03 00:01:00,
2012-12-02 19:02:00,69.5,59.7,30.21,ENE,66,0.0,3.0,71,0.00,,---,0.00,0.00,VWS V14.01,2012-12-03 00:02:00,
2012-12-02 19:03:00,69.5,59.7,30.21,ENE,66,1.0,3.0,71,0.00,,---,0.00,0.00,VWS V14.01,2012-12-03 00:03:00,
2012-12-02 19:04:00,69.5,59.7,30.21,ENE,66,0.0,3.0,71,0.00,,---,0.00,0.00,VWS V14.01,2012-12-03 00:04:00,
2012-12-02 19:05:00,69.5,59.7,30.21,NE,56,2.0,3.0,71,0.00,,---,0.00,0.00,VWS V14.01,2012-12-03 00:05:00,
2012-12-02 19:06:00,69.5,60.1,30.21,SE,126,3.0,3.0,72,0.00,,---,0.00,0.00,VWS V14.01,2012-12-03 00:06:00,
2012-12-02 19:07:00,69.6,60.2,30.21,East,93,4.0,4.0,72,0.00,,---,0.00,0.00,VWS V14.01,2012-12-03 00:07:00,
2012-12-02 19:08:00,69.6,60.2,30.21,NE,36,2.0,4.0,72,0.00,,---,0.00,0.00,VWS V14.01,2012-12-03 00:08:00,
2012-12-02 19:09:00,69.6,60.2,30.21,East,81,0.0,4.0,72,0.00,,---,0.00,0.00,VWS V14.01,2012-12-03 00:09:00,
2012-12-02 19:10:00,69.7,60.3,30.21,NNE,24,2.0,4.0,72,0.00,,---,0.00,0.00,VWS V14.01,2012-12-03 00:10:00,
2012-12-02 19:11:00,69.7,60.3,30.21,East,85,2.0,4.0,72,0.00,,---,0.00,0.00,VWS V14.01,2012-12-03 00:11:00,
2012-12-02 19:12:00,69.7,60.3,30.21,ENE,59,2.0,4.0,72,0.00,,---,0.00,0.00,VWS V14.01,2012-12-03 00:12:00,
2012-12-02 19:13:00,69.7,60.3,30.21,ENE,66,1.0,4.0,72,0.00,,---,0.00,0.00,VWS V14.01,2012-12-03 00:13:00,
2012-12-02 19:14:00,69.7,60.3,30.21,East,79,1.0,4.0,72,0.00,,---,0.00,0.00,VWS V14.01,2012-12-03 00:14:00,
2012-12-02 19:15:00,69.7,60.3,30.21,ENE,63,0.0,4.0,72,0.00,,---,0.00,0.00,VWS V14.01,2012-12-03 00:15:00,
2012-12-02 19:16:00,69.7,60.3,30.21,ENE,64,2.0,4.0,72,0.00,,---,0.00,0.00,VWS V14.01,2012-12-03 00:16:00,
2012-12-02 19:17:00,69.7,60.7,30.21,ENE,64,0.0,4.0,73,0.00,,---,0.00,0.00,VWS V14.01,2012-12-03 00:17:00,
2012-12-02 19:18:00,69.7,60.7,30.22,NE,45,1.0,4.0,73,0.00,,---,0.00,0.00,VWS V14.01,2012-12-03 00:18:00,
2012-12-02 19:19:00,69.7,60.7,30.21,ENE,77,0.0,4.0,73,0.00,,---,0.00,0.00,VWS V14.01,2012-12-03 00:19:00,
2012-12-02 19:20:00,69.7,60.7,30.22,NE,45,2.0,4.0,73,0.00,,---,0.00,0.00,VWS V14.01,2012-12-03 00:20:00,
2012-12-02 19:21:00,69.7,60.7,30.22,NE,45,0.0,4.0,73,0.00,,---,0.00,0.00,VWS V14.01,2012-12-03 00:21:00,
2012-12-02 19:22:00,69.6,60.6,30.22,East,101,1.0,4.0,73,0.00,,---,0.00,0.00,VWS V14.01,2012-12-03 00:22:00,
2012-12-02 19:23:00,69.6,60.6,30.22,East,84,5.0,5.0,73,0.00,,---,0.00,0.00,VWS V14.01,2012-12-03 00:23:00,
2012-12-02 19:24:00,69.5,60.5,30.22,East,83,3.0,5.0,73,0.00,,---,0.00,0.00,VWS V14.01,2012-12-03 00:24:00,
2012-12-02 19:25:00,69.5,60.5,30.22,East,81,2.0,5.0,73,0.00,,---,0.00,0.00,VWS V14.01,2012-12-03 00:25:00,
2012-12-02 19:26:00,69.5,60.9,30.22,SE,127,1.0,5.0,74,0.00,,---,0.00,0.00,VWS V14.01,2012-12-03 00:26:00,
2012-12-02 19:27:00,69.5,60.9,30.22,ENE,68,2.0,5.0,74,0.00,,---,0.00,0.00,VWS V14.01,2012-12-03 00:27:00,
2012-12-02 19:28:00,69.4,60.8,30.22,ENE,61,0.0,5.0,74,0.00,,---,0.00,0.00,VWS V14.01,2012-12-03 00:28:00,
2012-12-02 19:29:00,69.4,60.8,30.22,ENE,61,0.0,5.0,74,0.00,,---,0.00,0.00,VWS V14.01,2012-12-03 00:29:00,
2012-12-02 19:30:00,69.4,61.1,30.22,East,87,1.0,5.0,75,0.00,,---,0.00,0.00,VWS V14.01,2012-12-03 00:30:00,
2012-12-02 19:31:00,69.3,61.0,30.22,NE,37,2.0,5.0,75,0.00,,---,0.00,0.00,VWS V14.01,2012-12-03 00:31:00,
2012-12-02 19:32:00,69.3,61.0,30.22,NE,46,1.0,5.0,75,0.00,,---,0.00,0.00,VWS V14.01,2012-12-03 00:32:00,
2012-12-02 19:33:00,69.3,61.0,30.22,ENE,68,2.0,5.0,75,0.00,,---,0.00,0.00,VWS V14.01,2012-12-03 00:33:00,
2012-12-02 19:34:00,69.3,61.0,30.22,ENE,60,0.0,5.0,75,0.00,,---,0.00,0.00,VWS V14.01,2012-12-03 00:34:00,
2012-12-02 19:35:00,69.2,61.0,30.22,East,81,3.0,5.0,75,0.00,,---,0.00,0.00,VWS V14.01,2012-12-03 00:35:00,
2012-12-02 19:36:00,69.2,61.3,30.22,ENE,64,1.0,5.0,76,0.00,,---,0.00,0.00,VWS V14.01,2012-12-03 00:36:00,
2012-12-02 19:37:00,69.1,61.2,30.22,ENE,67,1.0,5.0,76,0.00,,---,0.00,0.00,VWS V14.01,2012-12-03 00:37:00,
2012-12-02 19:38:00,69.1,61.2,30.22,ENE,67,1.0,5.0,76,0.00,,---,0.00,0.00,VWS V14.01,2012-12-03 00:38:00,
2012-12-02 19:39:00,69.0,61.1,30.22,ENE,68,1.0,5.0,76,0.00,,---,0.00,0.00,VWS V14.01,2012-12-03 00:39:00,
2012-12-02 19:40:00,69.0,61.1,30.22,East,79,1.0,5.0,76,0.00,,---,0.00,0.00,VWS V14.01,2012-12-03 00:40:00,
2012-12-02 19:41:00,68.9,61.0,30.22,NNE,24,0.0,5.0,76,0.00,,---,0.00,0.00,VWS V14.01,2012-12-03 00:41:00,
2012-12-02 19:42:00,68.9,61.4,30.22,NNE,24,0.0,5.0,77,0.00,,---,0.00,0.00,VWS V14.01,2012-12-03 00:42:00,
2012-12-02 19:43:00,68.9,61.4,30.22,ENE,76,0.0,5.0,77,0.00,,---,0.00,0.00,VWS V14.01,2012-12-03 00:43:00,
2012-12-02 19:44:00,68.8,61.3,30.22,East,85,2.0,5.0,77,0.00,,---,0.00,0.00,VWS V14.01,2012-12-03 00:44:00,
2012-12-02 19:45:00,68.8,61.3,30.22,East,84,0.0,5.0,77,0.00,,---,0.00,0.00,VWS V14.01,2012-12-03 00:45:00,
2012-12-02 19:46:00,68.8,61.3,30.22,ESE,104,2.0,5.0,77,0.00,,---,0.00,0.00,VWS V14.01,2012-12-03 00:46:00,
2012-12-02 19:47:00,68.8,61.7,30.22,East,85,2.0,5.0,78,0.00,,---,0.00,0.00,VWS V14.01,2012-12-03 00:47:00,
2012-12-02 19:48:00,68.8,61.7,30.22,ENE,74,0.0,5.0,78,0.00,,---,0.00,0.00,VWS V14.01,2012-12-03 00:48:00,
2012-12-02 19:49:00,68.8,61.7,30.22,East,99,2.0,5.0,78,0.00,,---,0.00,0.00,VWS V14.01,2012-12-03 00:49:00,
2012-12-02 19:50:00,68.9,61.8,30.22,East,98,3.0,5.0,78,0.00,,---,0.00,0.00,VWS V14.01,2012-12-03 00:50:00,
2012-12-02 19:51:00,68.9,61.8,30.22,ENE,74,2.0,5.0,78,0.00,,---,0.00,0.00,VWS V14.01,2012-12-03 00:51:00,
2012-12-02 19:52:00,68.9,61.8,30.22,SE,146,0.0,5.0,78,0.00,,---,0.00,0.00,VWS V14.01,2012-12-03 00:52:00,
2012-12-02 19:53:00,69.0,61.9,30.22,East,86,2.0,5.0,78,0.00,,---,0.00,0.00,VWS V14.01,2012-12-03 00:53:00,
2012-12-02 19:54:00,69.0,61.9,30.22,ENE,72,4.0,5.0,78,0.00,,---,0.00,0.00,VWS V14.01,2012-12-03 00:54:00,
2012-12-02 19:55:00,69.0,61.9,30.22,ENE,69,5.0,5.0,78,0.00,,---,0.00,0.00,VWS V14.01,2012-12-03 00:55:00,
2012-12-02 19:56:00,69.0,62.2,30.22,East,84,1.0,5.0,79,0.00,,---,0.00,0.00,VWS V14.01,2012-12-03 00:56:00,
2012-12-02 19:57:00,69.0,62.2,30.22,ESE,102,1.0,5.0,79,0.00,,---,0.00,0.00,VWS V14.01,2012-12-03 00:57:00,
2012-12-02 19:58:00,69.0,62.2,30.22,ESE,102,0.0,5.0,79,0.00,,---,0.00,0.00,VWS V14.01,2012-12-03 00:58:00,
2012-12-02 19:59:00,69.0,62.2,30.22,East,85,0.0,5.0,79,0.00,,---,0.00,0.00,VWS V14.01,2012-12-03 00:59:00,
2012-12-02 20:00:00,69.0,62.2,30.22,East,85,0.0,5.0,79,0.00,,---,0.00,0.00,VWS V14.01,2012-12-03 01:00:00,
2012-12-02 20:01:00,69.0,62.2,30.22,ESE,115,3.0,3.0,79,0.00,,---,0.00,0.00,VWS V14.01,2012-12-03 01:01:00,
2012-12-02 20:02:00,69.0,62.2,30.22,East,85,2.0,5.0,79,0.00,,---,0.00,0.00,VWS V14.01,2012-12-03 01:02:00,
2012-12-02 20:03:00,69.0,62.2,30.23,East,100,0.0,5.0,79,0.00,,---,0.00,0.00,VWS V14.01,2012-12-03 01:03:00,
2012-12-02 20:04:00,69.0,62.2,30.23,SE,133,0.0,5.0,79,0.00,,---,0.00,0.00,VWS V14.01,2012-12-03 01:04:00,
2012-12-02 20:05:00,69.0,62.2,30.23,SSE,154,2.0,5.0,79,0.00,,---,0.00,0.00,VWS V14.01,2012-12-03 01:05:00,
2012-12-02 20:06:00,69.0,62.2,30.22,SE,126,3.0,5.0,79,0.00,,---,0.00,0.00,VWS V14.01,2012-12-03 01:06:00,
2012-12-02 20:07:00,68.9,62.5,30.23,SE,130,1.0,5.0,80,0.00,,---,0.00,0.00,VWS V14.01,2012-12-03 01:07:00,
2012-12-02 20:08:00,68.9,62.5,30.23,SSE,166,2.0,5.0,80,0.00,,---,0.00,0.00,VWS V14.01,2012-12-03 01:08:00,
2012-12-02 20:09:00,68.9,62.5,30.22,SSE,148,0.0,5.0,80,0.00,,---,0.00,0.00,VWS V14.01,2012-12-03 01:09:00,
2012-12-02 20:10:00,68.9,62.5,30.23,ESE,118,1.0,5.0,80,0.00,,---,0.00,0.00,VWS V14.01,2012-12-03 01:10:00,
2012-12-02 20:11:00,68.9,62.5,30.23,ESE,121,1.0,5.0,80,0.00,,---,0.00,0.00,VWS V14.01,2012-12-03 01:11:00,
2012-12-02 20:12:00,68.9,62.5,30.23,SSE,157,1.0,5.0,80,0.00,,---,0.00,0.00,VWS V14.01,2012-12-03 01:12:00,
2012-12-02 20:13:00,68.9,62.5,30.23,SSE,162,0.0,5.0,80,0.00,,---,0.00,0.00,VWS V14.01,2012-12-03 01:13:00,
2012-12-02 20:14:00,68.8,62.4,30.23,SSE,161,0.0,5.0,80,0.00,,---,0.00,0.00,VWS V14.01,2012-12-03 01:14:00,
2012-12-02 20:15:00,68.8,62.4,30.23,SE,127,1.0,5.0,80,0.00,,---,0.00,0.00,VWS V14.01,2012-12-03 01:15:00,
2012-12-02 20:16:00,68.8,62.4,30.23,ESE,108,3.0,5.0,80,0.00,,---,0.00,0.00,VWS V14.01,2012-12-03 01:16:00,
2012-12-02 20:17:00,68.8,62.4,30.23,East,101,2.0,5.0,80,0.00,,---,0.00,0.00,VWS V14.01,2012-12-03 01:17:00,
2012-12-02 20:18:00,68.8,62.4,30.23,East,101,0.0,5.0,80,0.00,,---,0.00,0.00,VWS V14.01,2012-12-03 01:18:00,
2012-12-02 20:19:00,68.7,62.3,30.23,East,101,1.0,5.0,80,0.00,,---,0.00,0.00,VWS V14.01,2012-12-03 01:19:00,
2012-12-02 20:20:00,68.7,62.6,30.23,East,101,0.0,5.0,81,0.00,,---,0.00,0.00,VWS V14.01,2012-12-03 01:20:00,
2012-12-02 20:21:00,68.6,62.5,30.23,East,89,0.0,5.0,81,0.00,,---,0.00,0.00,VWS V14.01,2012-12-03 01:21:00,
2012-12-02 20:22:00,68.6,62.5,30.23,SE,134,2.0,5.0,81,0.00,,---,0.00,0.00,VWS V14.01,2012-12-03 01:22:00,
2012-12-02 20:23:00,68.5,62.5,30.23,SE,139,0.0,5.0,81,0.00,,---,0.00,0.00,VWS V14.01,2012-12-03 01:23:00,
2012-12-02 20:24:00,68.5,62.5,30.23,SE,139,0.0,5.0,81,0.00,,---,0.00,0.00,VWS V14.01,2012-12-03 01:24:00,
2012-12-02 20:25:00,68.5,62.5,30.23,SSE,152,1.0,5.0,81,0.00,,---,0.00,0.00,VWS V14.01,2012-12-03 01:25:00,
2012-12-02 20:26:00,68.5,62.5,30.23,ESE,116,0.0,5.0,81,0.00,,---,0.00,0.00,VWS V14.01,2012-12-03 01:26:00,
2012-12-02 20:27:00,68.5,62.8,30.23,ESE,106,1.0,5.0,82,0.00,,---,0.00,0.00,VWS V14.01,2012-12-03 01:27:00,
2012-12-02 20:28:00,68.5,62.5,30.23,South,179,1.0,5.0,81,0.00,,---,0.00,0.00,VWS V14.01,2012-12-03 01:28:00,
2012-12-02 20:29:00,68.5,62.8,30.23,SE,124,0.0,5.0,82,0.00,,---,0.00,0.00,VWS V14.01,2012-12-03 01:29:00,
2012-12-02 20:30:00,68.5,62.8,30.23,SSE,161,1.0,5.0,82,0.00,,---,0.00,0.00,VWS V14.01,2012-12-03 01:30:00,
2012-12-02 20:31:00,68.5,62.8,30.23,SSE,151,1.0,5.0,82,0.00,,---,0.00,0.00,VWS V14.01,2012-12-03 01:31:00,
2012-12-02 20:32:00,68.5,62.8,30.23,SSE,165,0.0,5.0,82,0.00,,---,0.00,0.00,VWS V14.01,2012-12-03 01:32:00,
2012-12-02 20:33:00,68.4,62.7,30.23,SSE,165,0.0,5.0,82,0.00,,---,0.00,0.00,VWS V14.01,2012-12-03 01:33:00,
2012-12-02 20:34:00,68.4,62.7,30.23,SSE,165,0.0,5.0,82,0.00,,---,0.00,0.00,VWS V14.01,2012-12-03 01:34:00,
2012-12-02 20:35:00,68.4,62.7,30.23,East,95,3.0,5.0,82,0.00,,---,0.00,0.00,VWS V14.01,2012-12-03 01:35:00,
2012-12-02 20:36:00,68.4,62.7,30.23,East,96,0.0,5.0,82,0.00,,---,0.00,0.00,VWS V14.01,2012-12-03 01:36:00,
2012-12-02 20:37:00,68.4,62.7,30.23,East,96,0.0,5.0,82,0.00,,---,0.00,0.00,VWS V14.01,2012-12-03 01:37:00,
2012-12-02 20:38:00,68.4,62.7,30.23,East,96,1.0,5.0,82,0.00,,---,0.00,0.00,VWS V14.01,2012-12-03 01:38:00,
2012-12-02 20:39:00,68.3,62.9,30.24,East,97,1.0,5.0,83,0.00,,---,0.00,0.00,VWS V14.01,2012-12-03 01:39:00,
2012-12-02 20:40:00,68.3,62.9,30.23,East,97,0.0,5.0,83,0.00,,---,0.00,0.00,VWS V14.01,2012-12-03 01:40:00,
2012-12-02 20:41:00,68.3,62.9,30.23,ESE,110,0.0,5.0,83,0.00,,---,0.00,0.00,VWS V14.01,2012-12-03 01:41:00,
2012-12-02 20:42:00,68.3,62.9,30.23,ESE,110,0.0,5.0,83,0.00,,---,0.00,0.00,VWS V14.01,2012-12-03 01:42:00,
2012-12-02 20:43:00,68.3,62.9,30.23,SE,143,0.0,5.0,83,0.00,,---,0.00,0.00,VWS V14.01,2012-12-03 01:43:00,
2012-12-02 20:44:00,68.2,62.8,30.23,East,97,2.0,5.0,83,0.00,,---,0.00,0.00,VWS V14.01,2012-12-03 01:44:00,
2012-12-02 20:45:00,68.2,62.8,30.23,SE,124,1.0,5.0,83,0.00,,---,0.00,0.00,VWS V14.01,2012-12-03 01:45:00,
2012-12-02 20:46:00,68.2,62.8,30.23,SE,135,3.0,5.0,83,0.00,,---,0.00,0.00,VWS V14.01,2012-12-03 01:46:00,
2012-12-02 20:47:00,68.2,62.8,30.23,ESE,106,2.0,5.0,83,0.00,,---,0.00,0.00,VWS V14.01,2012-12-03 01:47:00,
2012-12-02 20:48:00,68.2,62.8,30.23,ESE,122,2.0,5.0,83,0.00,,---,0.00,0.00,VWS V14.01,2012-12-03 01:48:00,
2012-12-02 20:49:00,68.2,62.8,30.23,ESE,122,0.0,5.0,83,0.00,,---,0.00,0.00,VWS V14.01,2012-12-03 01:49:00,
2012-12-02 20:50:00,68.1,62.8,30.23,ESE,122,0.0,5.0,83,0.00,,---,0.00,0.00,VWS V14.01,2012-12-03 01:50:00,
2012-12-02 20:51:00,68.1,62.8,30.23,ESE,122,0.0,5.0,83,0.00,,---,0.00,0.00,VWS V14.01,2012-12-03 01:51:00,
2012-12-02 20:52:00,68.1,62.8,30.23,ESE,108,1.0,5.0,83,0.00,,---,0.00,0.00,VWS V14.01,2012-12-03 01:52:00,
2012-12-02 20:53:00,68.0,62.7,30.23,SE,135,1.0,5.0,83,0.00,,---,0.00,0.00,VWS V14.01,2012-12-03 01:53:00,
2012-12-02 20:54:00,68.0,62.7,30.23,East,90,1.0,5.0,83,0.00,,---,0.00,0.00,VWS V14.01,2012-12-03 01:54:00,
2012-12-02 20:55:00,68.0,62.7,30.23,SSE,152,0.0,5.0,83,0.00,,---,0.00,0.00,VWS V14.01,2012-12-03 01:55:00,
2012-12-02 20:56:00,68.0,63.0,30.23,SE,131,1.0,5.0,84,0.00,,---,0.00,0.00,VWS V14.01,2012-12-03 01:56:00,
2012-12-02 20:57:00,68.0,63.0,30.23,SE,131,0.0,5.0,84,0.00,,---,0.00,0.00,VWS V14.01,2012-12-03 01:57:00,
2012-12-02 20:58:00,68.0,63.0,30.23,SE,131,0.0,5.0,84,0.00,,---,0.00,0.00,VWS V14.01,2012-12-03 01:58:00,
2012-12-02 20:59:00,68.0,62.7,30.23,ESE,110,1.0,5.0,83,0.00,,---,0.00,0.00,VWS V14.01,2012-12-03 01:59:00,
2012-12-02 21:00:00,67.9,62.5,30.23,ESE,110,0.0,5.0,83,0.00,,---,0.00,0.00,VWS V14.01,2012-12-03 02:00:00,
2012-12-02 21:01:00,67.9,62.9,30.23,ESE,110,0.0,0.0,84,0.00,,---,0.00,0.00,VWS V14.01,2012-12-03 02:01:00,
2012-12-02 21:02:00,67.9,62.9,30.23,ENE,65,2.0,2.0,84,0.00,,---,0.00,0.00,VWS V14.01,2012-12-03 02:02:00,
2012-12-02 21:03:00,67.9,62.9,30.23,SE,141,1.0,2.0,84,0.00,,---,0.00,0.00,VWS V14.01,2012-12-03 02:03:00,
2012-12-02 21:04:00,67.9,62.9,30.23,East,96,2.0,2.0,84,0.00,,---,0.00,0.00,VWS V14.01,2012-12-03 02:04:00,
2012-12-02 21:05:00,67.8,62.8,30.23,ESE,122,2.0,4.0,84,0.00,,---,0.00,0.00,VWS V14.01,2012-12-03 02:05:00,
2012-12-02 21:06:00,67.8,62.8,30.23,ESE,117,0.0,4.0,84,0.00,,---,0.00,0.00,VWS V14.01,2012-12-03 02:06:00,
2012-12-02 21:07:00,67.7,62.7,30.23,ESE,118,1.0,4.0,84,0.00,,---,0.00,0.00,VWS V14.01,2012-12-03 02:07:00,
2012-12-02 21:08:00,67.7,62.7,30.23,ESE,118,0.0,4.0,84,0.00,,---,0.00,0.00,VWS V14.01,2012-12-03 02:08:00,
2012-12-02 21:09:00,67.7,62.7,30.23,SE,137,2.0,4.0,84,0.00,,---,0.00,0.00,VWS V14.01,2012-12-03 02:09:00,
2012-12-02 21:10:00,67.7,62.7,30.23,ESE,104,2.0,4.0,84,0.00,,---,0.00,0.00,VWS V14.01,2012-12-03 02:10:00,
2012-12-02 21:11:00,67.7,62.7,30.23,ESE,105,0.0,4.0,84,0.00,,---,0.00,0.00,VWS V14.01,2012-12-03 02:11:00,
2012-12-02 21:12:00,67.6,62.6,30.23,SSE,147,2.0,4.0,84,0.00,,---,0.00,0.00,VWS V14.01,2012-12-03 02:12:00,
2012-12-02 21:13:00,67.6,62.6,30.23,ESE,112,2.0,4.0,84,0.00,,---,0.00,0.00,VWS V14.01,2012-12-03 02:13:00,
2012-12-02 21:14:00,67.6,62.6,30.23,ESE,112,0.0,4.0,84,0.00,,---,0.00,0.00,VWS V14.01,2012-12-03 02:14:00,
2012-12-02 21:15:00,67.5,62.5,30.23,SE,124,2.0,4.0,84,0.00,,---,0.00,0.00,VWS V14.01,2012-12-03 02:15:00,
2012-12-02 21:16:00,67.5,62.5,30.23,SE,140,0.0,4.0,84,0.00,,---,0.00,0.00,VWS V14.01,2012-12-03 02:16:00,
2012-12-02 21:17:00,67.5,62.5,30.23,ESE,106,2.0,4.0,84,0.00,,---,0.00,0.00,VWS V14.01,2012-12-03 02:17:00,
2012-12-02 21:18:00,67.4,62.4,30.23,ESE,106,2.0,4.0,84,0.00,,---,0.00,0.00,VWS V14.01,2012-12-03 02:18:00,
2012-12-02 21:19:00,67.4,62.4,30.23,ESE,106,0.0,4.0,84,0.00,,---,0.00,0.00,VWS V14.01,2012-12-03 02:19:00,
2012-12-02 21:20:00,67.4,62.4,30.23,ENE,72,2.0,4.0,84,0.00,,---,0.00,0.00,VWS V14.01,2012-12-03 02:20:00,
2012-12-02 21:21:00,67.3,62.3,30.23,ENE,73,0.0,4.0,84,0.00,,---,0.00,0.00,VWS V14.01,2012-12-03 02:21:00,
2012-12-02 21:22:00,67.3,62.6,30.23,ENE,73,1.0,4.0,85,0.00,,---,0.00,0.00,VWS V14.01,2012-12-03 02:22:00,
2012-12-02 21:23:00,67.3,62.6,30.23,SE,133,5.0,5.0,85,0.00,,---,0.00,0.00,VWS V14.01,2012-12-03 02:23:00,
2012-12-02 21:24:00,67.2,62.5,30.23,SE,137,1.0,5.0,85,0.00,,---,0.00,0.00,VWS V14.01,2012-12-03 02:24:00,
2012-12-02 21:25:00,67.2,62.5,30.23,SE,136,0.0,5.0,85,0.00,,---,0.00,0.00,VWS V14.01,2012-12-03 02:25:00,
2012-12-02 21:26:00,67.2,62.5,30.23,South,188,0.0,5.0,85,0.00,,---,0.00,0.00,VWS V14.01,2012-12-03 02:26:00,
2012-12-02 21:27:00,67.2,62.5,30.23,South,187,1.0,5.0,85,0.00,,---,0.00,0.00,VWS V14.01,2012-12-03 02:27:00,
2012-12-02 21:28:00,67.1,62.5,30.23,ESE,106,3.0,5.0,85,0.00,,---,0.00,0.00,VWS V14.01,2012-12-03 02:28:00,
2012-12-02 21:29:00,67.1,62.5,30.23,East,100,0.0,5.0,85,0.00,,---,0.00,0.00,VWS V14.01,2012-12-03 02:29:00,
2012-12-02 21:30:00,67.1,62.5,30.23,SSE,156,2.0,5.0,85,0.00,,---,0.00,0.00,VWS V14.01,2012-12-03 02:30:00,
2012-12-02 21:31:00,67.0,62.3,30.23,SE,135,1.0,5.0,85,0.00,,---,0.00,0.00,VWS V14.01,2012-12-03 02:31:00,
2012-12-02 21:32:00,67.1,62.8,30.23,South,184,0.0,5.0,86,0.00,,---,0.00,0.00,VWS V14.01,2012-12-03 02:32:00,
2012-12-02 21:33:00,67.0,62.3,30.23,South,184,0.0,5.0,85,0.00,,---,0.00,0.00,VWS V14.01,2012-12-03 02:33:00,
2012-12-02 21:34:00,67.0,62.3,30.23,ESE,108,2.0,5.0,85,0.00,,---,0.00,0.00,VWS V14.01,2012-12-03 02:34:00,
2012-12-02 21:35:00,67.0,62.3,30.23,ESE,108,0.0,5.0,85,0.00,,---,0.00,0.00,VWS V14.01,2012-12-03 02:35:00,
2012-12-02 21:36:00,67.0,62.3,30.23,SE,136,3.0,5.0,85,0.00,,---,0.00,0.00,VWS V14.01,2012-12-03 02:36:00,
2012-12-02 21:37:00,67.0,62.7,30.23,SE,127,2.0,5.0,86,0.00,,---,0.00,0.00,VWS V14.01,2012-12-03 02:37:00,
2012-12-02 21:38:00,66.9,62.6,30.23,SE,143,1.0,5.0,86,0.00,,---,0.00,0.00,VWS V14.01,2012-12-03 02:38:00,
2012-12-02 21:39:00,67.0,62.7,30.23,SE,143,0.0,5.0,86,0.00,,---,0.00,0.00,VWS V14.01,2012-12-03 02:39:00,
2012-12-02 21:40:00,66.9,62.6,30.23,SE,135,3.0,5.0,86,0.00,,---,0.00,0.00,VWS V14.01,2012-12-03 02:40:00,
2012-12-02 21:41:00,66.9,62.2,30.23,SSE,164,0.0,5.0,85,0.00,,---,0.00,0.00,VWS V14.01,2012-12-03 02:41:00,
2012-12-02 21:42:00,66.9,62.2,30.23,East,92,2.0,5.0,85,0.00,,---,0.00,0.00,VWS V14.01,2012-12-03 02:42:00,
2012-12-02 21:43:00,66.9,62.2,30.23,East,93,0.0,5.0,85,0.00,,---,0.00,0.00,VWS V14.01,2012-12-03 02:43:00,
2012-12-02 21:44:00,66.8,62.2,30.23,East,95,0.0,5.0,85,0.00,,---,0.00,0.00,VWS V14.01,2012-12-03 02:44:00,
2012-12-02 21:45:00,66.8,62.5,30.23,South,171,1.0,5.0,86,0.00,,---,0.00,0.00,VWS V14.01,2012-12-03 02:45:00,
2012-12-02 21:46:00,66.8,62.5,30.23,SE,139,1.0,5.0,86,0.00,,---,0.00,0.00,VWS V14.01,2012-12-03 02:46:00,
2012-12-02 21:47:00,66.8,62.5,30.23,SE,139,2.0,5.0,86,0.00,,---,0.00,0.00,VWS V14.01,2012-12-03 02:47:00,
2012-12-02 21:48:00,66.8,62.5,30.23,SE,140,0.0,5.0,86,0.00,,---,0.00,0.00,VWS V14.01,2012-12-03 02:48:00,
2012-12-02 21:49:00,66.7,62.4,30.23,SSE,162,2.0,5.0,86,0.00,,---,0.00,0.00,VWS V14.01,2012-12-03 02:49:00,
2012-12-02 21:50:00,66.7,62.4,30.23,ESE,114,2.0,5.0,86,0.00,,---,0.00,0.00,VWS V14.01,2012-12-03 02:50:00,
2012-12-02 21:51:00,66.7,62.4,30.23,SE,131,3.0,5.0,86,0.00,,---,0.00,0.00,VWS V14.01,2012-12-03 02:51:00,
2012-12-02 21:52:00,66.7,62.4,30.23,SSE,147,2.0,5.0,86,0.00,,---,0.00,0.00,VWS V14.01,2012-12-03 02:52:00,
2012-12-02 21:53:00,66.7,62.4,30.23,ESE,116,1.0,5.0,86,0.00,,---,0.00,0.00,VWS V14.01,2012-12-03 02:53:00,
2012-12-02 21:54:00,66.7,62.4,30.23,SE,127,1.0,5.0,86,0.00,,---,0.00,0.00,VWS V14.01,2012-12-03 02:54:00,
2012-12-02 21:55:00,66.6,62.3,30.23,SE,127,1.0,5.0,86,0.00,,---,0.00,0.00,VWS V14.01,2012-12-03 02:55:00,
2012-12-02 21:56:00,66.6,62.3,30.23,SE,131,1.0,5.0,86,0.00,,---,0.00,0.00,VWS V14.01,2012-12-03 02:56:00,
2012-12-02 21:57:00,66.6,62.3,30.23,SSE,159,2.0,5.0,86,0.00,,---,0.00,0.00,VWS V14.01,2012-12-03 02:57:00,
2012-12-02 21:58:00,66.5,62.2,30.23,ESE,106,0.0,5.0,86,0.00,,---,0.00,0.00,VWS V14.01,2012-12-03 02:58:00,
2012-12-02 21:59:00,66.5,62.2,30.23,ESE,119,2.0,5.0,86,0.00,,---,0.00,0.00,VWS V14.01,2012-12-03 02:59:00,
2012-12-02 22:00:00,66.5,62.2,30.23,SE,132,1.0,5.0,86,0.00,,---,0.00,0.00,VWS V14.01,2012-12-03 03:00:00,
2012-12-02 22:01:00,66.5,62.2,30.23,ESE,123,1.0,1.0,86,0.00,,---,0.00,0.00,VWS V14.01,2012-12-03 03:01:00,
2012-12-02 22:02:00,66.5,62.2,30.23,ESE,123,0.0,1.0,86,0.00,,---,0.00,0.00,VWS V14.01,2012-12-03 03:02:00,
2012-12-02 22:03:00,66.5,62.2,30.23,SE,140,3.0,3.0,86,0.00,,---,0.00,0.00,VWS V14.01,2012-12-03 03:03:00,
2012-12-02 22:04:00,66.5,62.2,30.23,SE,128,1.0,3.0,86,0.00,,---,0.00,0.00,VWS V14.01,2012-12-03 03:04:00,
2012-12-02 22:05:00,66.4,62.1,30.23,ESE,122,0.0,3.0,86,0.00,,---,0.00,0.00,VWS V14.01,2012-12-03 03:05:00,
2012-12-02 22:06:00,66.4,62.1,30.23,SE,135,4.0,4.0,86,0.00,,---,0.00,0.00,VWS V14.01,2012-12-03 03:06:00,
2012-12-02 22:07:00,66.4,62.1,30.23,South,176,4.0,4.0,86,0.00,,---,0.00,0.00,VWS V14.01,2012-12-03 03:07:00,
2012-12-02 22:08:00,66.4,62.4,30.23,East,89,2.0,4.0,87,0.00,,---,0.00,0.00,VWS V14.01,2012-12-03 03:08:00,
2012-12-02 22:09:00,66.4,62.4,30.23,SSE,166,0.0,4.0,87,0.00,,---,0.00,0.00,VWS V14.01,2012-12-03 03:09:00,
2012-12-02 22:10:00,66.5,62.5,30.23,SSE,160,0.0,4.0,87,0.00,,---,0.00,0.00,VWS V14.01,2012-12-03 03:10:00,
2012-12-02 22:11:00,66.4,62.4,30.23,SSE,160,0.0,4.0,87,0.00,,---,0.00,0.00,VWS V14.01,2012-12-03 03:11:00,
2012-12-02 22:12:00,66.4,62.4,30.23,ESE,112,2.0,4.0,87,0.00,,---,0.00,0.00,VWS V14.01,2012-12-03 03:12:00,
2012-12-02 22:13:00,66.4,62.4,30.23,East,83,2.0,4.0,87,0.00,,---,0.00,0.00,VWS V14.01,2012-12-03 03:13:00,
2012-12-02 22:14:00,66.4,62.4,30.23,East,83,1.0,4.0,87,0.00,,---,0.00,0.00,VWS V14.01,2012-12-03 03:14:00,
2012-12-02 22:15:00,66.3,62.3,30.23,South,180,0.0,4.0,87,0.00,,---,0.00,0.00,VWS V14.01,2012-12-03 03:15:00,
2012-12-02 22:16:00,66.3,62.3,30.23,SSE,158,3.0,4.0,87,0.00,,---,0.00,0.00,VWS V14.01,2012-12-03 03:16:00,
2012-12-02 22:17:00,66.3,62.3,30.23,SSE,158,0.0,4.0,87,0.00,,---,0.00,0.00,VWS V14.01,2012-12-03 03:17:00,
2012-12-02 22:18:00,66.2,62.2,30.23,ESE,119,1.0,4.0,87,0.00,,---,0.00,0.00,VWS V14.01,2012-12-03 03:18:00,
2012-12-02 22:19:00,66.2,62.2,30.23,ESE,119,1.0,4.0,87,0.00,,---,0.00,0.00,VWS V14.01,2012-12-03 03:19:00,
2012-12-02 22:20:00,66.2,62.2,30.23,SE,134,0.0,4.0,87,0.00,,---,0.00,0.00,VWS V14.01,2012-12-03 03:20:00,
2012-12-02 22:21:00,66.2,62.2,30.23,SSE,160,0.0,4.0,87,0.00,,---,0.00,0.00,VWS V14.01,2012-12-03 03:21:00,
2012-12-02 22:22:00,66.1,62.1,30.23,SSE,162,0.0,4.0,87,0.00,,---,0.00,0.00,VWS V14.01,2012-12-03 03:22:00,
2012-12-02 22:23:00,66.1,62.1,30.23,SE,137,0.0,4.0,87,0.00,,---,0.00,0.00,VWS V14.01,2012-12-03 03:23:00,
2012-12-02 22:24:00,66.1,62.1,30.23,SE,140,0.0,4.0,87,0.00,,---,0.00,0.00,VWS V14.01,2012-12-03 03:24:00,
2012-12-02 22:25:00,66.1,62.1,30.23,SE,140,0.0,4.0,87,0.00,,---,0.00,0.00,VWS V14.01,2012-12-03 03:25:00,
2012-12-02 22:26:00,66.1,62.1,30.23,SE,139,0.0,4.0,87,0.00,,---,0.00,0.00,VWS V14.01,2012-12-03 03:26:00,
2012-12-02 22:27:00,66.0,62.0,30.23,SE,139,0.0,4.0,87,0.00,,---,0.00,0.00,VWS V14.01,2012-12-03 03:27:00,
2012-12-02 22:28:00,66.0,62.0,30.23,SE,139,0.0,4.0,87,0.00,,---,0.00,0.00,VWS V14.01,2012-12-03 03:28:00,
2012-12-02 22:29:00,65.9,61.9,30.23,SE,140,1.0,4.0,87,0.00,,---,0.00,0.00,VWS V14.01,2012-12-03 03:29:00,
2012-12-02 22:30:00,65.9,61.9,30.23,SE,140,0.0,4.0,87,0.00,,---,0.00,0.00,VWS V14.01,2012-12-03 03:30:00,
2012-12-02 22:31:00,65.9,61.9,30.23,SE,140,0.0,4.0,87,0.00,,---,0.00,0.00,VWS V14.01,2012-12-03 03:31:00,
2012-12-02 22:32:00,65.8,61.8,30.23,SSE,162,0.0,4.0,87,0.00,,---,0.00,0.00,VWS V14.01,2012-12-03 03:32:00,
2012-12-02 22:33:00,65.8,62.2,30.23,SSE,162,0.0,4.0,88,0.00,,---,0.00,0.00,VWS V14.01,2012-12-03 03:33:00,
2012-12-02 22:34:00,65.8,62.2,30.23,SSE,162,0.0,4.0,88,0.00,,---,0.00,0.00,VWS V14.01,2012-12-03 03:34:00,
2012-12-02 22:35:00,65.7,62.0,30.23,SSE,162,0.0,4.0,88,0.00,,---,0.00,0.00,VWS V14.01,2012-12-03 03:35:00,
2012-12-02 22:36:00,65.7,62.0,30.23,SSE,162,0.0,4.0,88,0.00,,---,0.00,0.00,VWS V14.01,2012-12-03 03:36:00,
2012-12-02 22:37:00,65.7,62.0,30.23,SSE,162,1.0,4.0,88,0.00,,---,0.00,0.00,VWS V14.01,2012-12-03 03:37:00,
2012-12-02 22:38:00,65.7,62.0,30.22,SSE,161,0.0,4.0,88,0.00,,---,0.00,0.00,VWS V14.01,2012-12-03 03:38:00,
2012-12-02 22:39:00,65.6,62.0,30.22,SSE,161,0.0,4.0,88,0.00,,---,0.00,0.00,VWS V14.01,2012-12-03 03:39:00,
2012-12-02 22:40:00,65.6,62.0,30.23,SSE,160,0.0,4.0,88,0.00,,---,0.00,0.00,VWS V14.01,2012-12-03 03:40:00,
2012-12-02 22:41:00,65.6,62.0,30.22,SSE,152,0.0,4.0,88,0.00,,---,0.00,0.00,VWS V14.01,2012-12-03 03:41:00,
2012-12-02 22:42:00,65.5,61.9,30.22,SE,131,1.0,4.0,88,0.00,,---,0.00,0.00,VWS V14.01,2012-12-03 03:42:00,
2012-12-02 22:43:00,65.5,61.9,30.22,ESE,102,0.0,4.0,88,0.00,,---,0.00,0.00,VWS V14.01,2012-12-03 03:43:00,
2012-12-02 22:44:00,65.5,62.2,30.22,ESE,102,0.0,4.0,89,0.00,,---,0.00,0.00,VWS V14.01,2012-12-03 03:44:00,
2012-12-02 22:45:00,65.5,62.2,30.22,SE,133,1.0,4.0,89,0.00,,---,0.00,0.00,VWS V14.01,2012-12-03 03:45:00,
2012-12-02 22:46:00,65.5,62.2,30.22,SE,131,1.0,4.0,89,0.00,,---,0.00,0.00,VWS V14.01,2012-12-03 03:46:00,
2012-12-02 22:47:00,65.5,62.2,30.22,SE,140,0.0,4.0,89,0.00,,---,0.00,0.00,VWS V14.01,2012-12-03 03:47:00,
2012-12-02 22:48:00,65.5,62.2,30.22,SE,135,1.0,4.0,89,0.00,,---,0.00,0.00,VWS V14.01,2012-12-03 03:48:00,
2012-12-02 22:49:00,65.4,62.1,30.22,SE,141,0.0,4.0,89,0.00,,---,0.00,0.00,VWS V14.01,2012-12-03 03:49:00,
2012-12-02 22:50:00,65.4,62.1,30.22,SE,141,0.0,4.0,89,0.00,,---,0.00,0.00,VWS V14.01,2012-12-03 03:50:00,
2012-12-02 22:51:00,65.4,62.1,30.22,SE,141,0.0,4.0,89,0.00,,---,0.00,0.00,VWS V14.01,2012-12-03 03:51:00,
2012-12-02 22:52:00,65.4,62.1,30.22,SE,138,1.0,4.0,89,0.00,,---,0.00,0.00,VWS V14.01,2012-12-03 03:52:00,
2012-12-02 22:53:00,65.4,62.1,30.22,SE,138,0.0,4.0,89,0.00,,---,0.00,0.00,VWS V14.01,2012-12-03 03:53:00,
2012-12-02 22:54:00,65.4,62.1,30.22,SE,138,1.0,4.0,89,0.00,,---,0.00,0.00,VWS V14.01,2012-12-03 03:54:00,
2012-12-02 22:55:00,65.4,62.1,30.22,SE,138,0.0,4.0,89,0.00,,---,0.00,0.00,VWS V14.01,2012-12-03 03:55:00,
2012-12-02 22:56:00,65.4,62.1,30.22,SE,138,0.0,4.0,89,0.00,,---,0.00,0.00,VWS V14.01,2012-12-03 03:56:00,
2012-12-02 22:57:00,65.4,62.1,30.22,SE,138,0.0,4.0,89,0.00,,---,0.00,0.00,VWS V14.01,2012-12-03 03:57:00,
2012-12-02 22:58:00,65.3,62.0,30.22,SE,138,0.0,4.0,89,0.00,,---,0.00,0.00,VWS V14.01,2012-12-03 03:58:00,
2012-12-02 22:59:00,65.3,62.0,30.22,SE,139,1.0,4.0,89,0.00,,---,0.00,0.00,VWS V14.01,2012-12-03 03:59:00,
2012-12-02 23:00:00,65.2,61.9,30.22,SE,139,0.0,4.0,89,0.00,,---,0.00,0.00,VWS V14.01,2012-12-03 04:00:00,
2012-12-02 23:01:00,65.2,61.9,30.22,SE,139,0.0,0.0,89,0.00,,---,0.00,0.00,VWS V14.01,2012-12-03 04:01:00,
2012-12-02 23:02:00,65.2,61.9,30.22,SE,139,0.0,0.0,89,0.00,,---,0.00,0.00,VWS V14.01,2012-12-03 04:02:00,
2012-12-02 23:03:00,65.1,61.8,30.22,SE,139,0.0,0.0,89,0.00,,---,0.00,0.00,VWS V14.01,2012-12-03 04:03:00,
2012-12-02 23:04:00,65.1,61.8,30.22,SE,139,0.0,0.0,89,0.00,,---,0.00,0.00,VWS V14.01,2012-12-03 04:04:00,
2012-12-02 23:05:00,65.0,61.7,30.22,SE,139,0.0,0.0,89,0.00,,---,0.00,0.00,VWS V14.01,2012-12-03 04:05:00,
2012-12-02 23:06:00,65.0,61.7,30.22,SE,139,0.0,0.0,89,0.00,,---,0.00,0.00,VWS V14.01,2012-12-03 04:06:00,
2012-12-02 23:07:00,64.9,61.6,30.22,SE,139,0.0,0.0,89,0.00,,---,0.00,0.00,VWS V14.01,2012-12-03 04:07:00,
2012-12-02 23:08:00,64.8,61.8,30.22,SE,139,0.0,0.0,90,0.00,,---,0.00,0.00,VWS V14.01,2012-12-03 04:08:00,
2012-12-02 23:09:00,64.7,61.7,30.22,SE,139,0.0,0.0,90,0.00,,---,0.00,0.00,VWS V14.01,2012-12-03 04:09:00,
2012-12-02 23:10:00,64.7,61.7,30.22,SE,139,0.0,0.0,90,0.00,,---,0.00,0.00,VWS V14.01,2012-12-03 04:10:00,
2012-12-02 23:11:00,64.6,61.6,30.22,SE,139,0.0,0.0,90,0.00,,---,0.00,0.00,VWS V14.01,2012-12-03 04:11:00,
2012-12-02 23:12:00,64.5,61.5,30.22,SE,135,0.0,2.0,90,0.00,,---,0.00,0.00,VWS V14.01,2012-12-03 04:12:00,
2012-12-02 23:13:00,64.5,61.5,30.22,SE,135,0.0,2.0,90,0.00,,---,0.00,0.00,VWS V14.01,2012-12-03 04:13:00,
2012-12-02 23:14:00,64.4,61.4,30.22,SE,135,0.0,2.0,90,0.00,,---,0.00,0.00,VWS V14.01,2012-12-03 04:14:00,
2012-12-02 23:15:00,64.4,61.4,30.22,SE,135,0.0,2.0,90,0.00,,---,0.00,0.00,VWS V14.01,2012-12-03 04:15:00,
2012-12-02 23:16:00,64.3,61.3,30.22,SE,135,0.0,2.0,90,0.00,,---,0.00,0.00,VWS V14.01,2012-12-03 04:16:00,
2012-12-02 23:17:00,64.3,61.6,30.22,SE,135,0.0,2.0,91,0.00,,---,0.00,0.00,VWS V14.01,2012-12-03 04:17:00,
2012-12-02 23:18:00,64.2,61.5,30.22,SE,135,0.0,2.0,91,0.00,,---,0.00,0.00,VWS V14.01,2012-12-03 04:18:00,
2012-12-02 23:19:00,64.1,61.4,30.22,SE,135,0.0,2.0,91,0.00,,---,0.00,0.00,VWS V14.01,2012-12-03 04:19:00,
2012-12-02 23:20:00,64.0,61.3,30.22,SE,135,0.0,2.0,91,0.00,,---,0.00,0.00,VWS V14.01,2012-12-03 04:20:00,
2012-12-02 23:21:00,63.9,61.2,30.22,SE,135,0.0,2.0,91,0.00,,---,0.00,0.00,VWS V14.01,2012-12-03 04:21:00,
2012-12-02 23:22:00,63.9,61.2,30.22,SE,135,0.0,2.0,91,0.00,,---,0.00,0.00,VWS V14.01,2012-12-03 04:22:00,
2012-12-02 23:23:00,63.8,61.1,30.22,SE,135,0.0,2.0,91,0.00,,---,0.00,0.00,VWS V14.01,2012-12-03 04:23:00,
2012-12-02 23:24:00,63.7,61.0,30.22,SE,135,0.0,2.0,91,0.00,,---,0.00,0.00,VWS V14.01,2012-12-03 04:24:00,
2012-12-02 23:25:00,63.6,60.9,30.22,SE,135,0.0,2.0,91,0.00,,---,0.00,0.00,VWS V14.01,2012-12-03 04:25:00,
2012-12-02 23:26:00,63.5,60.8,30.22,SE,135,0.0,2.0,91,0.00,,---,0.00,0.00,VWS V14.01,2012-12-03 04:26:00,
2012-12-02 23:27:00,63.5,61.1,30.22,SE,135,0.0,2.0,92,0.00,,---,0.00,0.00,VWS V14.01,2012-12-03 04:27:00,
2012-12-02 23:28:00,63.5,61.1,30.22,SE,135,0.0,2.0,92,0.00,,---,0.00,0.00,VWS V14.01,2012-12-03 04:28:00,
2012-12-02 23:29:00,63.5,61.1,30.22,SE,135,1.0,2.0,92,0.00,,---,0.00,0.00,VWS V14.01,2012-12-03 04:29:00,
2012-12-02 23:30:00,63.5,61.1,30.22,SE,135,0.0,2.0,92,0.00,,---,0.00,0.00,VWS V14.01,2012-12-03 04:30:00,
2012-12-02 23:31:00,63.4,61.0,30.22,SE,135,0.0,2.0,92,0.00,,---,0.00,0.00,VWS V14.01,2012-12-03 04:31:00,
2012-12-02 23:32:00,63.4,61.0,30.22,SE,135,0.0,2.0,92,0.00,,---,0.00,0.00,VWS V14.01,2012-12-03 04:32:00,
2012-12-02 23:33:00,63.4,61.0,30.22,SE,135,0.0,2.0,92,0.00,,---,0.00,0.00,VWS V14.01,2012-12-03 04:33:00,
2012-12-02 23:34:00,63.3,60.9,30.22,SE,135,0.0,2.0,92,0.00,,---,0.00,0.00,VWS V14.01,2012-12-03 04:34:00,
2012-12-02 23:35:00,63.3,60.9,30.22,SE,135,0.0,2.0,92,0.00,,---,0.00,0.00,VWS V14.01,2012-12-03 04:35:00,
2012-12-02 23:36:00,63.3,61.2,30.22,SE,135,0.0,2.0,93,0.00,,---,0.00,0.00,VWS V14.01,2012-12-03 04:36:00,
2012-12-02 23:37:00,63.3,61.2,30.22,SE,135,0.0,2.0,93,0.00,,---,0.00,0.00,VWS V14.01,2012-12-03 04:37:00,
2012-12-02 23:38:00,63.3,61.2,30.22,SE,135,1.0,2.0,93,0.00,,---,0.00,0.00,VWS V14.01,2012-12-03 04:38:00,
2012-12-02 23:39:00,63.2,61.2,30.22,SE,135,0.0,2.0,93,0.00,,---,0.00,0.00,VWS V14.01,2012-12-03 04:39:00,
2012-12-02 23:40:00,63.2,61.2,30.22,SE,135,0.0,2.0,93,0.00,,---,0.00,0.00,VWS V14.01,2012-12-03 04:40:00,
2012-12-02 23:41:00,63.2,61.2,30.22,SE,135,0.0,2.0,93,0.00,,---,0.00,0.00,VWS V14.01,2012-12-03 04:41:00,
2012-12-02 23:42:00,63.1,61.0,30.22,SE,135,0.0,2.0,93,0.00,,---,0.00,0.00,VWS V14.01,2012-12-03 04:42:00,
2012-12-02 23:43:00,63.2,61.2,30.22,SE,135,0.0,2.0,93,0.00,,---,0.00,0.00,VWS V14.01,2012-12-03 04:43:00,
2012-12-02 23:44:00,63.1,61.0,30.22,SE,135,0.0,2.0,93,0.00,,---,0.00,0.00,VWS V14.01,2012-12-03 04:44:00,
2012-12-02 23:45:00,63.1,61.0,30.22,SE,135,1.0,2.0,93,0.00,,---,0.00,0.00,VWS V14.01,2012-12-03 04:45:00,
2012-12-02 23:46:00,63.1,61.0,30.22,SE,135,0.0,2.0,93,0.00,,---,0.00,0.00,VWS V14.01,2012-12-03 04:46:00,
2012-12-02 23:47:00,63.1,61.0,30.22,SE,127,1.0,2.0,93,0.00,,---,0.00,0.00,VWS V14.01,2012-12-03 04:47:00,
2012-12-02 23:48:00,63.1,61.0,30.22,SE,127,0.0,2.0,93,0.00,,---,0.00,0.00,VWS V14.01,2012-12-03 04:48:00,
2012-12-02 23:49:00,63.0,61.0,30.22,SE,127,0.0,2.0,93,0.00,,---,0.00,0.00,VWS V14.01,2012-12-03 04:49:00,
2012-12-02 23:50:00,63.0,61.0,30.22,SE,127,0.0,2.0,93,0.00,,---,0.00,0.00,VWS V14.01,2012-12-03 04:50:00,
2012-12-02 23:51:00,63.0,61.0,30.22,SE,126,0.0,2.0,93,0.00,,---,0.00,0.00,VWS V14.01,2012-12-03 04:51:00,
2012-12-02 23:52:00,63.1,61.0,30.22,ENE,78,0.0,2.0,93,0.00,,---,0.00,0.00,VWS V14.01,2012-12-03 04:52:00,
2012-12-02 23:53:00,63.1,61.0,30.22,ENE,78,0.0,2.0,93,0.00,,---,0.00,0.00,VWS V14.01,2012-12-03 04:53:00,
2012-12-02 23:54:00,63.1,61.0,30.22,ENE,78,2.0,2.0,93,0.00,,---,0.00,0.00,VWS V14.01,2012-12-03 04:54:00,
2012-12-02 23:55:00,63.1,61.0,30.22,NE,50,0.0,2.0,93,0.00,,---,0.00,0.00,VWS V14.01,2012-12-03 04:55:00,
2012-12-02 23:56:00,63.1,61.0,30.22,NE,53,1.0,2.0,93,0.00,,---,0.00,0.00,VWS V14.01,2012-12-03 04:56:00,
2012-12-02 23:57:00,63.1,61.0,30.22,NE,53,0.0,2.0,93,0.00,,---,0.00,0.00,VWS V14.01,2012-12-03 04:57:00,
2012-12-02 23:58:00,63.1,61.0,30.22,NE,53,2.0,2.0,93,0.00,,---,0.00,0.00,VWS V14.01,2012-12-03 04:58:00,
2012-12-02 23:59:00,63.1,61.0,30.22,ENE,59,1.0,2.0,93,0.00,,---,0.00,0.00,VWS V14.01,2012-12-03 04:59:00,